[[{"header":{"parameterUnit":"m.s-1","parameterCategory":1,"la1":30.6,"la2":28.766,"lo1":-90.7593,"lo2":-88.6598,"dy":0.0162,"dx":0.0183,"nx":116,"ny":114,"refTime":"2023-09-09T12:00:00:Z","depth":0,"parameterNumber":2,"parameterNumberName":"U-component_of_WINDS"},"data":[0.0,0.0,0.0,0.0,0.0,0.0,0.0,0.0,0.0,0.0,0.0,0.0,0.0,0.0,0.0,0.0,0.0,0.0,0.0,0.0,0.0,0.0,0.0,0.0,0.0,0.0,0.0,0.0,0.0,0.0,0.0,0.0,0.0,0.0,0.0,0.0,0.0,0.0,0.0,0.0,0.0,0.0,0.0,0.0,0.0,0.0,0.0,0.0,0.0,0.0,0.0,0.0,0.0,0.0,0.0,0.0,0.0,0.0,0.0,0.0,0.0,0.0,0.0,0.0,0.0,0.0,0.0,0.0,0.0,0.0,0.0,0.0,0.0,0.0,0.0,0.0,0.0,0.0,0.0,0.0,0.0,0.0,0.0,0.0,0.0,0.0,0.0,0.0,0.0,0.0,0.0,0.0,0.0,0.0,0.0,0.0,0.0,0.0,0.0,0.0,0.0,0.0,0.0,0.0,0.0,0.0,0.0,0.0,0.0,0.0,0.0,0.0,0.0,0.0,0.0,0.0,0.0,0.0,0.0,0.0,0.0,0.0,0.0,0.0,0.0,0.0,0.0,0.0,0.0,0.0,0.0,0.0,0.0,0.0,0.0,0.0,0.0,0.0,0.0,0.0,0.0,0.0,0.0,0.0,0.0,0.0,0.0,0.0,0.0,0.0,0.0,0.0,0.0,0.0,0.0,0.0,0.0,0.0,0.0,0.0,0.0,0.0,0.0,0.0,0.0,0.0,0.0,0.0,0.0,0.0,0.0,0.0,0.0,0.0,0.0,0.0,0.0,0.0,0.0,0.0,0.0,0.0,0.0,0.0,0.0,0.0,0.0,0.0,0.0,0.0,0.0,0.0,0.0,0.0,0.0,0.0,0.0,0.0,0.0,0.0,0.0,0.0,0.0,0.0,0.0,0.0,0.0,0.0,0.0,0.0,0.0,0.0,0.0,0.0,0.0,0.0,0.0,0.0,0.0,0.0,0.0,0.0,0.0,0.0,0.0,0.0,0.0,0.0,0.0,0.0,0.0,0.0,0.0,0.0,0.0,0.0,0.0,0.0,0.0,0.0,0.0,0.0,0.0,0.0,0.0,0.0,0.0,0.0,0.0,0.0,0.0,0.0,0.0,0.0,0.0,0.0,0.0,0.0,0.0,0.0,0.0,0.0,0.0,0.0,0.0,0.0,0.0,0.0,0.0,0.0,0.0,0.0,0.0,0.0,0.0,0.0,0.0,0.0,0.0,0.0,0.0,0.0,0.0,0.0,0.0,0.0,0.0,0.0,0.0,0.0,0.0,0.0,0.0,0.0,0.0,0.0,0.0,0.0,0.0,0.0,0.0,0.0,0.0,0.0,0.0,0.0,0.0,0.0,0.0,0.0,0.0,0.0,0.0,0.0,0.0,0.0,0.0,0.0,0.0,0.0,0.0,0.0,0.0,0.0,0.0,0.0,0.0,0.0,0.0,0.0,0.0,0.0,0.0,0.0,0.0,0.0,0.0,0.0,0.0,0.0,0.0,0.0,0.0,0.0,0.0,0.0,0.0,0.0,0.0,0.0,0.0,0.0,0.0,0.0,0.0,0.0,0.0,0.0,0.0,0.0,0.0,0.0,0.0,0.0,0.0,0.0,0.0,0.0,0.0,0.0,0.0,0.0,0.0,0.0,0.0,0.0,0.0,0.0,0.0,0.0,0.0,0.0,0.0,0.0,0.0,0.0,0.0,0.0,0.0,0.0,0.0,0.0,0.0,0.0,0.0,0.0,0.0,0.0,0.0,0.0,0.0,0.0,0.0,0.0,0.0,0.0,0.0,0.0,0.0,0.0,0.0,0.0,0.0,0.0,0.0,0.0,0.0,0.0,0.0,0.0,0.0,0.0,0.0,0.0,0.0,0.0,0.0,0.0,0.0,0.0,0.0,0.0,0.0,0.0,0.0,0.0,0.0,0.0,0.0,0.0,0.0,0.0,0.0,0.0,0.0,0.0,0.0,0.0,0.0,0.0,0.0,0.0,0.0,0.0,0.0,0.0,0.0,0.0,0.0,0.0,0.0,0.0,0.0,0.0,0.0,0.0,0.0,0.0,0.0,0.0,0.0,0.0,0.0,0.0,0.0,0.0,0.0,0.0,0.0,0.0,0.0,0.0,0.0,0.0,0.0,0.0,0.0,0.0,0.0,0.0,0.0,0.0,0.0,0.0,0.0,0.0,0.0,0.0,0.0,0.0,0.0,0.0,0.0,0.0,0.0,0.0,0.0,0.0,0.0,0.0,0.0,0.0,0.0,0.0,0.0,0.0,0.0,0.0,0.0,0.0,0.0,0.0,0.0,0.0,0.0,0.0,0.0,0.0,0.0,0.0,0.0,0.0,0.0,0.0,0.0,0.0,0.0,0.0,0.0,0.0,0.0,0.0,0.0,0.0,0.0,0.0,0.0,0.0,0.0,0.0,0.0,0.0,0.0,0.0,0.0,0.0,0.0,0.0,0.0,0.0,0.0,0.0,0.0,0.0,0.0,0.0,0.0,0.0,0.0,0.0,0.0,0.0,0.0,0.0,0.0,0.0,0.0,0.0,0.0,0.0,0.0,0.0,0.0,0.0,0.0,0.0,0.0,0.0,0.0,0.0,0.0,0.0,0.0,0.0,0.0,0.0,0.0,0.0,0.0,0.0,0.0,0.0,0.0,0.0,0.0,0.0,0.0,0.0,0.0,0.0,0.0,0.0,0.0,0.0,0.0,0.0,0.0,0.0,0.0,0.0,0.0,0.0,0.0,0.0,0.0,0.0,0.0,0.0,0.0,0.0,0.0,0.0,0.0,0.0,0.0,0.0,0.0,0.0,0.0,0.0,0.0,0.0,0.0,0.0,0.0,0.0,0.0,0.0,0.0,0.0,0.0,0.0,0.0,0.0,0.0,0.0,0.0,0.0,0.0,0.0,0.0,0.0,0.0,0.0,0.0,0.0,0.0,0.0,0.0,0.0,0.0,0.0,0.0,0.0,0.0,0.0,0.0,0.0,0.0,0.0,0.0,0.0,0.0,0.0,0.0,0.0,0.0,0.0,0.0,0.0,0.0,0.0,0.0,0.0,0.0,0.0,0.0,0.0,0.0,0.0,0.0,0.0,0.0,0.0,0.0,0.0,0.0,0.0,0.0,0.0,0.0,0.0,0.0,0.0,0.0,0.0,0.0,0.0,0.0,0.0,0.0,0.0,0.0,0.0,0.0,0.0,0.0,0.0,0.0,0.0,0.0,0.0,0.0,0.0,0.0,0.0,0.0,0.0,0.0,0.0,0.0,0.0,0.0,0.0,0.0,0.0,0.0,0.0,0.0,0.0,0.0,0.0,0.0,0.0,0.0,0.0,0.0,0.0,0.0,0.0,0.0,0.0,0.0,0.0,0.0,0.0,0.0,0.0,0.0,0.0,0.0,0.0,0.0,0.0,0.0,0.0,0.0,0.0,0.0,0.0,0.0,0.0,0.0,0.0,0.0,0.0,0.0,0.0,0.0,0.0,0.0,0.0,0.0,0.0,0.0,0.0,0.0,0.0,0.0,0.0,0.0,0.0,0.0,0.0,0.0,0.0,0.0,0.0,0.0,0.0,0.0,0.0,0.0,0.0,0.0,0.0,0.0,0.0,0.0,0.0,0.0,0.0,0.0,0.0,0.0,0.0,0.0,0.0,0.0,0.0,0.0,0.0,0.0,0.0,0.0,0.0,0.0,0.0,0.0,0.0,0.0,0.0,0.0,0.0,0.0,0.0,0.0,0.0,0.0,0.0,0.0,0.0,0.0,0.0,0.0,0.0,0.0,0.0,0.0,0.0,0.0,0.0,0.0,0.0,0.0,0.0,0.0,0.0,0.0,0.0,0.0,0.0,0.0,0.0,0.0,0.0,0.0,0.0,0.0,0.0,0.0,0.0,0.0,0.0,0.0,0.0,0.0,0.0,0.0,0.0,0.0,0.0,0.0,0.0,0.0,0.0,0.0,0.0,0.0,0.0,0.0,0.0,0.0,0.0,0.0,0.0,0.0,0.0,0.0,0.0,0.0,0.0,0.0,0.0,0.0,0.0,0.0,0.0,0.0,0.0,0.0,0.0,0.0,0.0,0.0,0.0,0.0,0.0,0.0,0.0,0.0,0.0,0.0,0.0,0.0,0.0,0.0,0.0,0.0,0.0,0.0,0.0,0.0,0.0,0.0,0.0,0.0,0.0,0.0,0.0,0.0,0.0,0.0,0.0,0.0,0.0,0.0,0.0,0.0,0.0,0.0,0.0,0.0,0.0,0.0,0.0,0.0,0.0,0.0,0.0,0.0,0.0,0.0,0.0,0.0,0.0,0.0,0.0,0.0,0.0,0.0,0.0,0.0,0.0,0.0,0.0,0.0,0.0,0.0,0.0,0.0,0.0,0.0,0.0,0.0,0.0,0.0,0.0,0.0,0.0,0.0,0.0,0.0,0.0,0.0,0.0,0.0,0.0,0.0,0.0,0.0,0.0,0.0,0.0,0.0,0.0,0.0,0.0,0.0,0.0,0.0,0.0,0.0,0.0,0.0,0.0,0.0,0.0,0.0,0.0,0.0,0.0,0.0,0.0,0.0,0.0,0.0,0.0,0.0,0.0,0.0,0.0,0.0,0.0,0.0,0.0,0.0,0.0,0.0,0.0,0.0,0.0,0.0,0.0,0.0,0.0,0.0,0.0,0.0,0.0,0.0,0.0,0.0,0.0,0.0,0.0,0.0,0.0,0.0,0.0,0.0,0.0,0.0,0.0,0.0,0.0,0.0,0.0,0.0,0.0,0.0,0.0,0.0,0.0,0.0,0.0,0.0,0.0,0.0,0.0,0.0,0.0,0.0,0.0,0.0,0.0,0.0,0.0,0.0,0.0,0.0,0.0,0.0,0.0,0.0,0.0,0.0,0.0,0.0,0.0,0.0,0.0,0.0,0.0,0.0,0.0,0.0,0.0,0.0,0.0,0.0,0.0,0.0,0.0,0.0,0.0,0.0,0.0,0.0,0.0,0.0,0.0,0.0,0.0,0.0,0.0,0.0,0.0,0.0,0.0,0.0,0.0,0.0,0.0,0.0,0.0,0.0,0.0,0.0,0.0,0.0,0.0,0.0,0.0,0.0,0.0,0.0,0.0,0.0,0.0,0.0,0.0,0.0,0.0,0.0,0.0,0.0,0.0,0.0,0.0,0.0,0.0,0.0,0.0,0.0,0.0,0.0,0.0,0.0,0.0,0.0,0.0,0.0,0.0,0.0,0.0,0.0,0.0,0.0,0.0,0.0,0.0,0.0,0.0,0.0,0.0,0.0,0.0,0.0,0.0,0.0,0.0,0.0,0.0,0.0,0.0,0.0,0.0,0.0,0.0,0.0,0.0,0.0,0.0,0.0,0.0,0.0,0.0,0.0,0.0,0.0,0.0,0.0,0.0,0.0,0.0,0.0,0.0,0.0,0.0,0.0,0.0,0.0,0.0,0.0,0.0,0.0,0.0,0.0,0.0,0.0,0.0,0.0,0.0,0.0,0.0,0.0,0.0,0.0,0.0,0.0,0.0,0.0,0.0,0.0,0.0,0.0,0.0,0.0,0.0,0.0,0.0,0.0,0.0,0.0,0.0,0.0,0.0,0.0,0.0,0.0,0.0,0.0,0.0,0.0,0.0,0.0,0.0,0.0,0.0,0.0,0.0,0.0,0.0,0.0,0.0,0.0,0.0,0.0,0.0,0.0,0.0,0.0,0.0,0.0,0.0,0.0,0.0,0.0,0.0,0.0,0.0,0.0,0.0,0.0,0.0,0.0,0.0,0.0,0.0,0.0,0.0,0.0,0.0,0.0,0.0,0.0,0.0,0.0,0.0,0.0,0.0,0.0,0.0,0.0,0.0,0.0,0.0,0.0,0.0,0.0,0.0,0.0,0.0,0.0,0.0,0.0,0.0,0.0,0.0,0.0,0.0,0.0,0.0,0.0,0.0,0.0,0.0,0.0,0.0,0.0,0.0,0.0,0.0,0.0,0.0,0.0,0.0,0.0,0.0,0.0,0.0,0.0,0.0,0.0,0.0,0.0,0.0,0.0,0.0,0.0,0.0,0.0,0.0,0.0,0.0,0.0,0.0,0.0,0.0,2.444,2.4202,0.0,0.0,0.0,0.0,0.0,0.0,0.0,0.0,0.0,0.0,0.0,0.0,0.0,0.0,0.0,0.0,0.0,0.0,0.0,0.0,0.0,0.0,0.0,0.0,0.0,0.0,0.0,0.0,0.0,0.0,0.0,0.0,0.0,0.0,0.0,0.0,0.0,0.0,0.0,0.0,0.0,0.0,0.0,0.0,0.0,0.0,0.0,0.0,0.0,0.0,0.0,0.0,0.0,0.0,0.0,0.0,0.0,0.0,0.0,0.0,0.0,0.0,0.0,0.0,0.0,0.0,0.0,0.0,0.0,0.0,0.0,0.0,0.0,0.0,0.0,0.0,0.0,0.0,0.0,0.0,0.0,0.0,0.0,0.0,0.0,0.0,0.0,0.0,0.0,0.0,0.0,0.0,0.0,0.0,0.0,0.0,0.0,0.0,0.0,0.0,0.0,0.0,0.0,0.0,0.0,0.0,0.0,0.0,0.0,0.0,0.0,0.0,0.0,0.0,2.4834,2.4641,0.0,0.0,0.0,0.0,0.0,0.0,0.0,0.0,0.0,0.0,0.0,0.0,0.0,0.0,0.0,0.0,0.0,0.0,0.0,0.0,0.0,0.0,0.0,0.0,0.0,0.0,0.0,0.0,0.0,0.0,0.0,0.0,0.0,0.0,0.0,0.0,0.0,0.0,0.0,0.0,0.0,0.0,0.0,0.0,0.0,0.0,0.0,0.0,0.0,0.0,0.0,0.0,0.0,0.0,0.0,0.0,0.0,0.0,0.0,0.0,0.0,0.0,0.0,0.0,0.0,0.0,0.0,0.0,0.0,0.0,0.0,0.0,0.0,0.0,0.0,0.0,0.0,0.0,0.0,0.0,0.0,0.0,0.0,0.0,0.0,0.0,0.0,0.0,0.0,0.0,0.0,0.0,0.0,0.0,0.0,0.0,0.0,0.0,0.0,0.0,0.0,0.0,0.0,0.0,0.0,0.0,0.0,0.0,2.1663,2.2038,2.3014,2.3171,2.3891,2.4992,2.4889,2.487,2.4942,2.4942,0.0,0.0,0.0,0.0,0.0,0.0,0.0,0.0,0.0,0.0,0.0,0.0,0.0,0.0,0.0,0.0,0.0,0.0,0.0,0.0,0.0,0.0,0.0,0.0,0.0,0.0,0.0,0.0,0.0,0.0,0.0,0.0,0.0,0.0,0.0,0.0,0.0,0.0,1.5396,1.5396,1.5396,1.5396,1.5396,0.0,0.0,0.0,0.0,0.0,0.0,0.0,0.0,0.0,0.0,0.0,0.0,0.0,0.0,0.0,0.0,0.0,0.0,0.0,0.0,0.0,0.0,0.0,0.0,0.0,0.0,0.0,0.0,0.0,0.0,0.0,0.0,0.0,0.0,0.0,0.0,0.0,0.0,0.0,0.0,0.0,0.0,0.0,1.7991,1.7991,0.0,0.0,0.0,0.0,0.0,0.0,0.0,0.0,0.0,0.0,0.0,0.0,0.0,2.0769,2.0011,2.1956,2.2629,2.1998,2.1949,2.2437,2.3388,2.2576,2.322,2.5004,2.4968,0.0,2.5485,2.5485,0.0,0.0,0.0,0.0,0.0,0.0,0.0,0.0,0.0,0.0,0.0,0.0,0.0,0.0,0.0,0.0,0.0,0.0,0.0,0.0,0.0,0.0,0.0,0.0,0.0,0.0,0.0,0.0,0.0,0.0,0.0,0.0,0.0,0.0,0.0,0.0,1.5396,1.5396,1.5396,1.5396,1.5396,1.5396,1.5396,1.5584,1.5935,1.6669,0.0,0.0,0.0,0.0,0.0,0.0,0.0,0.0,0.0,0.0,0.0,0.0,0.0,0.0,0.0,0.0,0.0,0.0,0.0,0.0,0.0,0.0,0.0,0.0,0.0,0.0,0.0,0.0,0.0,0.0,0.0,0.0,0.0,0.0,0.0,0.0,0.0,0.0,0.0,1.8196,1.8342,1.8342,1.8574,1.873,0.0,0.0,0.0,0.0,0.0,0.0,0.0,0.0,0.0,2.0038,2.0621,2.074,2.0302,2.134,2.1905,2.1989,2.1989,2.2534,2.3459,2.2459,2.3091,2.4969,2.4391,2.4897,2.6122,2.6122,2.5967,2.5766,0.0,0.0,0.0,0.0,2.5766,2.5766,0.0,0.0,0.0,0.0,0.0,0.0,0.0,0.0,0.0,0.0,0.0,0.0,0.0,0.0,0.0,1.5396,0.0,0.0,0.0,0.0,0.0,0.0,0.0,0.0,0.0,0.0,0.0,1.5396,1.5396,1.5396,1.5396,1.5396,1.5454,1.5576,1.5576,1.562,1.5729,1.6403,1.6685,0.0,0.0,0.0,0.0,0.0,0.0,0.0,0.0,0.0,0.0,0.0,0.0,0.0,0.0,0.0,0.0,0.0,0.0,0.0,0.0,0.0,0.0,0.0,0.0,0.0,0.0,0.0,0.0,0.0,0.0,0.0,0.0,0.0,0.0,0.0,0.0,0.0,0.0,1.8518,1.8781,1.8781,1.9092,1.9305,0.0,0.0,0.0,0.0,0.0,0.0,2.0106,2.0793,2.1001,2.0615,2.0818,2.0847,2.0605,2.0847,2.1432,2.2384,2.2286,2.2886,2.4054,2.3212,2.3765,2.5361,2.4333,2.5029,2.6901,2.6612,2.6499,2.6499,2.6499,2.6499,2.6499,2.6499,2.6499,2.6499,0.0,0.0,0.0,0.0,0.0,0.0,0.0,0.0,0.0,0.0,0.0,0.0,0.0,0.0,1.5396,1.5396,1.5396,1.5396,0.0,0.0,0.0,0.0,0.0,0.0,0.0,0.0,0.0,1.5396,1.5396,1.5396,1.5396,1.5396,1.5649,1.6056,1.6056,1.6207,1.6481,1.6963,1.7166,1.7166,0.0,0.0,0.0,0.0,0.0,0.0,0.0,0.0,0.0,0.0,0.0,0.0,0.0,0.0,0.0,0.0,0.0,0.0,0.0,0.0,0.0,0.0,0.0,0.0,0.0,0.0,0.0,0.0,0.0,0.0,0.0,0.0,0.0,0.0,0.0,0.0,0.0,0.0,0.0,1.9248,1.9296,0.0,0.0,0.0,0.0,1.9864,2.0321,2.0605,2.0566,2.0605,2.0644,2.0605,2.146,2.1498,2.0605,2.1479,2.244,2.3415,2.3044,2.3849,2.5663,2.523,2.5582,2.6462,2.5378,2.6108,2.7946,2.6909,2.6499,2.6499,2.6499,2.6499,2.6499,2.6499,2.6499,2.6499,0.0,0.0,0.0,0.0,0.0,0.0,0.0,0.0,0.0,0.0,0.0,0.0,0.0,1.5396,1.5396,1.5396,1.5396,1.5396,1.5396,0.0,0.0,0.0,0.0,0.0,0.0,0.0,1.5992,1.6244,1.6244,1.6244,1.6244,1.6244,1.6332,1.6494,1.6494,1.6546,1.6642,1.6802,1.6872,1.6872,1.6872,1.7579,0.0,0.0,0.0,0.0,0.0,0.0,0.0,0.0,0.0,0.0,0.0,0.0,0.0,0.0,0.0,0.0,0.0,0.0,0.0,0.0,0.0,0.0,0.0,0.0,0.0,0.0,0.0,0.0,0.0,0.0,0.0,0.0,0.0,0.0,0.0,0.0,0.0,2.0571,2.089,0.0,2.0202,2.0804,2.0998,2.039,2.1064,2.1241,2.0625,2.1465,2.1646,2.1016,2.161,2.1779,2.1436,2.1779,2.213,2.2478,2.2332,2.2624,2.3291,2.314,2.3992,2.5555,2.5168,2.6178,2.8072,2.77,2.7537,2.7537,2.7537,2.7537,2.7537,2.7537,2.7311,2.6997,0.0,0.0,0.0,0.0,0.0,0.0,0.0,0.0,0.0,0.0,0.0,1.5396,1.5396,1.5396,1.5396,1.5396,1.5396,1.5396,1.5396,0.0,0.0,0.0,0.0,0.0,0.0,1.6445,1.6436,1.6697,1.6697,1.6697,1.6697,1.6697,1.6775,1.6937,1.6937,1.7015,1.7142,1.7142,1.7064,1.6937,1.6937,1.7666,1.8662,0.0,0.0,0.0,0.0,0.0,0.0,0.0,0.0,0.0,0.0,0.0,0.0,0.0,0.0,0.0,0.0,0.0,0.0,0.0,0.0,0.0,0.0,0.0,0.0,0.0,0.0,0.0,0.0,0.0,0.0,0.0,0.0,0.0,0.0,2.0855,2.1244,2.1568,2.2147,2.2264,2.1642,2.183,2.1807,2.1347,2.157,2.1524,2.1056,2.2265,2.2498,2.1475,2.2097,2.2277,2.1905,2.1905,2.2061,2.238,2.2581,2.2848,2.3166,2.3361,2.4404,2.6019,2.5656,2.6706,2.8637,2.8263,2.8331,2.8637,2.826,2.8109,2.8109,2.8109,2.7871,2.7557,0.0,0.0,0.0,0.0,0.0,0.0,0.0,0.0,0.0,0.0,1.5396,1.5396,1.5396,1.5396,1.5396,1.5396,1.5396,1.5405,1.5415,1.586,0.0,0.0,0.0,0.0,1.6746,1.6726,1.6726,1.6746,1.6746,1.6746,1.6746,1.6746,1.6986,1.7419,1.7419,1.7644,1.7991,1.7991,1.7773,1.7419,1.7419,1.7663,1.8169,0.0,0.0,0.0,0.0,0.0,0.0,0.0,0.0,0.0,0.0,0.0,0.0,0.0,0.0,0.0,0.0,0.0,0.0,0.0,0.0,0.0,0.0,0.0,0.0,0.0,0.0,0.0,0.0,0.0,0.0,0.0,0.0,0.0,2.0357,2.2033,2.3147,2.2215,2.2973,2.3566,2.3518,2.2678,2.2315,2.2759,2.1879,2.1516,2.1979,2.3031,2.3123,2.2079,2.3052,2.3083,2.2046,2.2046,2.2481,2.3396,2.402,2.4806,2.5699,2.6272,2.7133,2.8103,2.701,2.7805,2.9752,2.8625,2.8816,2.9729,2.8599,2.816,2.816,2.816,2.8147,2.8134,0.0,0.0,0.0,0.0,0.0,0.0,0.0,0.0,0.0,0.0,1.5396,1.5396,1.5396,1.5396,1.5396,1.5396,1.5396,1.5547,1.5889,0.0,0.0,0.0,0.0,0.0,1.763,1.7363,1.7353,1.764,1.764,1.764,1.764,1.764,1.7708,1.7842,1.7842,1.79,1.7991,1.7991,1.7939,1.7842,1.7842,1.8278,1.89,0.0,0.0,0.0,0.0,0.0,0.0,0.0,0.0,0.0,0.0,0.0,0.0,0.0,0.0,0.0,0.0,0.0,0.0,0.0,0.0,0.0,0.0,0.0,0.0,0.0,0.0,0.0,0.0,0.0,0.0,0.0,2.5028,2.4933,2.2805,2.3077,2.3672,2.412,2.4747,2.4876,2.4164,2.4838,2.5101,2.4559,2.425,2.4159,2.4289,2.5214,2.5609,2.5312,2.5456,2.5395,2.5088,2.5088,2.5209,2.5504,2.654,2.7164,2.742,2.7587,2.8261,2.927,2.8037,2.8829,3.0866,2.9684,2.9889,3.0846,2.9754,2.9327,2.9327,2.9327,2.9063,2.8631,0.0,0.0,0.0,0.0,0.0,0.0,0.0,0.0,0.0,0.0,1.5396,1.5396,1.5396,1.5396,1.5396,1.5396,1.5576,1.5806,1.6075,0.0,0.0,0.0,0.0,1.7483,1.7981,1.7773,1.7764,1.7991,1.7991,1.7991,1.8008,1.8361,1.8536,1.8563,1.8938,1.9094,1.9094,1.9094,1.9094,1.9061,1.8687,1.8854,1.9282,1.9144,1.9628,2.0365,2.0193,1.9917,1.9628,1.9628,0.0,0.0,0.0,0.0,0.0,0.0,0.0,0.0,0.0,0.0,0.0,0.0,0.0,0.0,0.0,0.0,0.0,0.0,0.0,0.0,0.0,0.0,0.0,0.0,2.6035,2.6276,2.4692,2.4831,2.5139,2.5313,2.6178,2.6541,2.5956,2.631,2.6552,2.6417,2.6018,2.5971,2.6389,2.7387,2.7717,2.7235,2.7594,2.7535,2.7051,2.7062,2.7062,2.7051,2.7765,2.8092,2.8092,2.8092,2.8729,2.9773,2.9029,2.9728,3.1345,3.063,3.0766,3.1336,0.0,0.0,0.0,0.0,3.0244,2.9898,0.0,0.0,0.0,0.0,0.0,0.0,0.0,0.0,0.0,0.0,0.0,1.5396,1.5396,1.5396,1.5396,1.5396,1.5825,1.6134,0.0,0.0,0.0,1.7971,1.7991,1.7991,1.7991,1.7991,1.802,1.8059,1.8178,1.8208,1.8171,1.9048,1.9406,1.9339,2.0222,2.0629,2.0629,2.0742,2.0775,2.071,1.9942,1.9509,1.9365,2.0042,2.0782,2.1569,2.2372,2.2218,2.1616,2.1721,0.0,0.0,0.0,0.0,0.0,0.0,0.0,0.0,0.0,0.0,0.0,0.0,0.0,0.0,0.0,0.0,0.0,0.0,0.0,0.0,0.0,0.0,0.0,0.0,2.6413,2.7014,2.6184,2.688,2.7133,2.616,2.7311,2.8222,2.8298,2.7543,2.7455,2.8391,2.7656,2.7533,2.8414,2.9492,0.0,0.0,0.0,2.946,2.8457,2.8457,2.8457,2.8457,2.8587,2.8652,2.8652,2.8652,2.9225,3.0164,3.0025,3.0575,3.1574,3.1451,3.1459,3.1582,3.1436,3.1406,3.1406,3.1406,3.1406,3.1406,0.0,0.0,0.0,0.0,0.0,0.0,0.0,0.0,0.0,1.5396,1.5396,1.5396,1.5396,1.5396,1.5396,1.5396,1.5825,1.6398,0.0,0.0,1.793,1.8008,1.7991,1.7991,1.7991,1.7991,1.8157,1.8481,1.9311,1.9477,1.9079,2.0053,2.0071,1.9346,2.0317,2.0759,2.0811,2.1574,2.1885,2.188,2.171,2.0695,1.9233,1.8704,1.8613,1.8871,1.9732,1.9928,1.9911,2.0606,2.1207,2.1647,2.1647,0.0,0.0,0.0,0.0,0.0,0.0,0.0,0.0,0.0,0.0,0.0,0.0,0.0,0.0,0.0,0.0,0.0,0.0,0.0,0.0,2.6813,2.7099,2.7378,2.7622,2.8212,2.8362,2.7728,2.8294,2.8932,2.9415,2.9679,3.0092,3.0714,3.058,3.0565,3.0754,3.1373,3.1641,3.1419,3.1103,3.0826,3.0605,3.0605,3.0605,3.0605,3.1639,0.0,3.2118,3.2118,3.2247,3.2409,3.1387,3.1627,3.2678,3.167,3.1834,3.2688,3.1771,3.1406,3.1406,3.1406,3.1406,3.1406,0.0,0.0,0.0,0.0,0.0,0.0,0.0,0.0,0.0,0.0,1.5396,1.5396,1.5396,1.5396,1.5483,1.5737,1.6353,0.0,0.0,1.79,1.7991,1.7991,1.7991,1.8088,1.8303,1.8783,1.9252,1.9699,2.0198,2.0558,2.0762,2.1191,2.14,2.1435,2.2383,2.2802,2.2819,2.3301,2.3501,2.3452,2.3021,2.2272,2.1352,2.0918,2.1019,2.1463,2.1891,2.2055,2.212,2.2565,2.2995,2.3341,2.3341,2.3638,2.401,0.0,0.0,0.0,0.0,0.0,0.0,0.0,0.0,0.0,0.0,0.0,0.0,0.0,0.0,2.6901,2.6901,0.0,2.7386,2.7657,2.7921,2.831,2.8875,2.9408,2.9546,2.9013,2.9421,2.9973,3.0545,3.0834,3.1223,3.1763,3.18,3.1926,3.2236,3.2491,3.2641,3.2641,3.2321,3.2152,3.2152,3.2152,3.2152,3.2161,3.2797,3.3102,3.3102,3.3102,3.3102,3.3068,3.2426,3.2513,3.3047,3.2404,3.2534,3.304,3.2474,3.2248,3.2248,3.2248,3.2248,3.2248,0.0,0.0,0.0,0.0,0.0,0.0,0.0,0.0,0.0,0.0,1.5396,1.5396,1.5396,1.5396,1.5625,0.0,0.0,0.0,0.0,1.8252,1.8252,1.8252,1.8252,1.8451,1.8876,1.9854,2.0634,2.1211,2.1394,2.1813,2.2442,2.2546,2.2909,2.3529,2.445,2.4843,2.4843,2.5052,2.513,2.5069,2.4371,2.408,2.408,2.408,2.4171,2.4325,2.45,2.4549,2.4565,2.4739,2.4804,2.4804,2.4804,2.4804,2.4829,2.4929,2.4954,0.0,0.0,0.0,0.0,0.0,0.0,0.0,0.0,2.6575,2.665,2.665,2.7072,2.7462,2.7462,2.7808,2.8134,2.8247,2.8718,2.9283,2.9867,3.0419,3.0633,3.0306,3.057,3.0972,3.1499,3.157,3.1775,3.234,3.2378,3.2591,3.3077,3.3102,3.3102,3.3102,3.3102,3.3102,3.3102,3.3102,3.3102,3.3102,3.3102,3.3102,3.3102,3.3102,3.3102,3.3102,3.3102,3.3102,3.3102,3.3102,3.3102,3.3102,3.3102,3.3102,3.3102,3.3102,3.3102,3.3102,0.0,0.0,0.0,0.0,0.0,0.0,0.0,0.0,0.0,0.0,0.0,0.0,0.0,0.0,0.0,0.0,0.0,0.0,1.9129,1.916,1.916,1.916,1.916,1.9402,1.9929,2.0801,2.171,2.2666,2.3503,2.3723,2.3376,2.4252,2.4252,2.3539,2.4543,2.4979,2.5032,2.5938,2.6311,2.6311,2.6195,2.6161,2.6161,2.6161,2.4633,2.2587,2.3368,2.3646,2.3762,2.4549,2.4804,2.4804,2.4804,2.4804,2.4892,2.5372,0.0,2.5636,2.6248,2.6399,2.6411,2.6474,2.6418,2.6366,0.0,2.6876,2.7211,2.7211,2.765,2.8009,2.8009,2.8059,2.826,2.8731,2.9296,2.9892,3.0425,3.0972,3.1461,3.1888,3.1562,3.1524,3.2064,3.2106,3.2365,3.2952,3.3002,3.3027,3.3102,3.3102,3.3102,3.3102,3.3102,3.3102,3.3102,3.3102,3.3102,3.3102,3.3102,3.3102,3.3102,3.3102,3.3102,3.3102,3.3102,3.3102,3.3102,3.3102,3.3102,3.3102,3.3102,3.3102,3.3102,3.3102,3.3102,3.3102,0.0,0.0,0.0,0.0,0.0,0.0,0.0,0.0,0.0,0.0,0.0,0.0,0.0,0.0,0.0,0.0,0.0,0.0,1.9255,1.9299,1.9529,2.0025,2.0058,2.0424,2.1194,2.2144,2.3107,2.4124,2.4519,2.489,2.524,2.5075,2.5093,2.5258,2.5687,2.5873,2.5891,2.6314,2.6499,2.6499,2.6499,2.6499,2.6499,2.6499,2.5745,2.4747,2.5129,2.5248,0.0,0.0,2.5791,2.5791,2.5791,2.5791,2.5841,2.6055,2.6118,0.0,2.6424,2.6499,2.6562,2.6889,2.6977,2.7052,2.7361,2.7595,2.7758,2.7758,2.8179,2.8568,2.8568,2.9107,2.9622,2.9848,3.0369,3.0922,3.1474,3.1725,3.2077,3.2675,3.2537,3.2487,3.2692,3.2717,3.2839,3.3077,3.3102,3.3102,3.3102,3.3404,3.358,3.358,3.3872,3.4035,3.4035,3.4035,3.4035,3.4035,3.3709,3.358,3.3545,3.3241,3.3102,3.3102,3.3102,3.3102,3.3102,3.3102,3.3102,3.3102,3.3102,3.3102,3.3102,3.3102,3.3102,3.3102,0.0,0.0,0.0,0.0,0.0,0.0,0.0,0.0,0.0,0.0,0.0,0.0,0.0,0.0,0.0,0.0,0.0,0.0,0.0,1.9879,2.0301,2.0926,2.0958,2.1425,2.24,2.3368,2.4377,2.5406,2.5406,2.5786,2.6469,2.5751,2.5804,2.6499,2.6499,2.6499,2.6499,2.6499,2.6499,2.6499,2.6499,2.6499,2.6499,2.6499,2.6499,2.6499,2.6499,2.6499,0.0,0.0,2.6499,2.6499,2.6499,2.6499,2.6499,2.6499,2.66,2.6725,2.6725,2.6839,2.7022,2.7424,2.7507,2.7607,2.8009,2.8204,2.8317,2.8317,2.8881,2.9371,2.9371,3.0161,3.0834,3.0834,3.1273,3.1763,3.2152,3.2353,3.2604,3.3052,3.3102,3.3153,3.3316,3.319,3.3165,3.3316,3.3329,3.3391,3.352,3.3909,3.4123,3.4123,3.449,3.4703,3.4703,3.4703,3.4703,3.469,3.4324,3.4123,3.411,3.358,3.3241,3.3102,3.3102,3.3102,3.3102,3.3102,3.3102,3.3102,3.3102,3.3102,3.3102,3.3102,3.3102,3.3102,0.0,0.0,0.0,0.0,0.0,0.0,0.0,0.0,0.0,0.0,0.0,0.0,0.0,0.0,0.0,0.0,0.0,0.0,0.0,2.1349,2.1831,2.1862,2.1862,2.2349,2.3428,2.4308,2.5327,2.6452,2.6452,2.6469,2.6499,2.6469,2.6469,2.6499,2.6499,2.6499,2.6499,2.6499,2.6499,2.6499,2.6499,2.6499,2.6499,2.6499,2.6499,2.6499,2.6499,0.0,0.0,2.6499,2.6499,2.6499,2.6499,2.6499,0.0,2.6499,2.6876,2.7273,2.7273,2.7663,2.8059,2.8072,2.8084,2.8084,2.8109,2.8493,2.8881,2.8881,2.9772,3.055,3.055,3.0997,3.1381,3.1381,3.1825,3.2169,3.2194,3.2692,3.3077,3.3102,3.3102,3.3303,3.3822,3.3416,3.3329,3.3834,3.3872,3.411,3.4615,3.4665,3.4678,3.4678,3.469,3.4703,3.4703,3.4703,3.4703,3.4703,3.4678,3.4678,3.4653,3.4123,3.3583,3.3102,3.3102,3.3102,3.3102,3.3102,3.3102,3.3102,3.3102,3.3102,3.3102,3.3102,3.3102,3.3102,0.0,0.0,0.0,0.0,0.0,0.0,0.0,0.0,0.0,0.0,0.0,0.0,0.0,0.0,0.0,0.0,0.0,0.0,0.0,2.1737,2.2141,2.2659,2.2702,2.3062,2.3818,2.4471,2.5155,2.5904,2.6298,2.6499,2.6499,2.6499,2.6499,2.6499,2.6499,2.6499,2.6499,2.6499,2.6499,2.6499,2.6499,2.6499,2.6499,2.6499,2.6499,2.6499,0.0,0.0,0.0,2.6499,2.6499,2.6499,2.6499,2.6499,2.6562,2.6939,2.7412,2.7821,2.7821,2.7959,2.8197,2.8543,2.8631,2.8731,2.9139,2.9634,3.0036,3.0036,3.062,3.1135,3.1135,3.1574,3.1938,3.1938,3.2416,3.2801,3.2801,3.2977,3.3102,3.3102,3.3416,3.3696,3.3884,3.3734,3.3847,3.4377,3.4427,3.4502,3.469,3.5042,3.5219,3.5219,3.5617,3.5828,3.5828,3.5828,3.5828,3.5828,3.5418,3.5031,3.4678,3.4126,3.3796,3.3608,3.3253,3.3102,3.3102,3.3102,3.3102,3.3102,3.3102,3.3102,3.3102,3.3102,3.3102,3.3102,0.0,0.0,0.0,0.0,0.0,0.0,0.0,0.0,0.0,0.0,0.0,0.0,0.0,0.0,0.0,0.0,0.0,0.0,0.0,0.0,2.2552,2.3078,2.3108,2.3471,2.4264,2.4628,2.5172,2.5917,2.6311,2.6499,2.6499,2.6499,2.6499,2.6499,2.6499,2.6499,2.6499,2.6499,2.6499,2.6499,2.6499,2.6499,2.6499,2.6499,2.6499,0.0,0.0,0.0,2.6499,2.6499,2.6499,2.6499,2.6499,2.6625,2.6901,2.7437,2.7971,2.838,2.838,2.8549,2.88,2.9132,2.922,2.9371,2.9955,3.0337,3.0651,3.0859,3.1311,3.1687,3.1687,3.2139,3.2516,3.2516,3.2851,3.3102,3.3102,3.3102,3.3178,3.3366,3.3684,3.406,3.4427,3.4465,3.4603,3.4966,3.4992,3.5079,3.5303,3.5619,3.5807,3.5807,3.6205,3.6405,3.6405,3.6405,3.6405,3.6405,3.6006,3.5531,3.4979,3.4628,3.4274,3.3884,3.3542,3.3278,3.3102,3.3102,3.3102,3.3102,3.3102,3.3102,3.3102,3.3102,3.3102,3.3102,0.0,0.0,0.0,0.0,0.0,0.0,0.0,0.0,0.0,0.0,0.0,0.0,0.0,0.0,0.0,0.0,0.0,0.0,0.0,0.0,0.0,2.3108,2.3108,2.3609,2.4691,2.4741,2.5285,2.6361,2.6399,2.6424,2.6449,2.6449,2.6461,2.6499,2.6499,2.6499,2.6499,2.6499,2.6499,2.6499,2.6499,2.6499,2.6499,2.6499,0.0,0.0,0.0,0.0,2.6499,2.6499,2.6499,2.6499,2.6499,2.6889,2.7449,2.7946,2.8493,2.8957,2.8957,2.9358,2.9792,2.9792,2.9817,2.9967,3.0475,3.0638,3.0834,3.1336,3.1863,3.2252,3.2252,3.2704,3.3102,3.3102,3.3102,3.3102,3.3102,3.3128,3.3341,3.3834,3.3947,3.4377,3.5395,3.552,3.5545,3.5545,3.5545,3.5794,3.638,3.6405,3.6405,3.6405,3.6405,3.6405,3.6405,3.6405,3.6405,3.6405,3.6405,3.6094,3.5545,3.5508,3.4931,3.3985,3.3922,3.3608,3.314,3.3102,3.3102,3.3102,3.3102,3.3102,3.3102,3.3102,3.3102,3.3102,0.0,0.0,0.0,0.0,0.0,0.0,0.0,0.0,0.0,0.0,0.0,0.0,0.0,0.0,0.0,0.0,0.0,0.0,0.0,0.0,0.0,0.0,0.0,0.0,0.0,0.0,0.0,0.0,2.5034,2.5435,2.5829,2.5829,2.6067,2.6499,2.6499,2.6499,2.6499,2.6499,2.6499,2.6499,0.0,2.6499,2.6499,0.0,0.0,0.0,0.0,0.0,0.0,2.6499,2.6499,2.6499,2.6499,2.7135,2.7921,2.8059,2.88,2.9578,2.9578,2.9679,2.9792,2.9792,3.0105,3.0425,3.0563,3.1215,3.1817,3.1976,3.2453,3.2876,3.2876,3.3002,3.3102,3.3102,3.3102,3.3102,3.3102,3.3454,3.3746,3.3884,3.4603,3.5194,3.547,3.5918,3.618,3.618,3.618,3.6243,3.6405,3.6405,3.6405,3.6405,3.6405,3.6405,3.6405,3.6405,3.6405,3.6405,3.6405,3.6306,3.6168,3.5707,3.5345,3.5054,3.4261,3.3822,3.3658,3.3266,3.3102,3.3102,3.3102,3.3102,3.3102,3.3102,3.3102,3.3102,0.0,0.0,0.0,0.0,0.0,0.0,0.0,0.0,0.0,0.0,0.0,0.0,0.0,0.0,0.0,0.0,0.0,0.0,0.0,0.0,0.0,0.0,0.0,0.0,0.0,0.0,0.0,0.0,0.0,0.0,2.5243,2.5243,2.5435,2.5766,2.5992,2.6122,2.6118,2.6386,0.0,0.0,0.0,0.0,0.0,0.0,0.0,0.0,0.0,0.0,0.0,2.6499,2.6499,2.6575,2.7047,2.7625,2.821,2.8699,2.9302,2.9792,2.9792,2.9792,2.9854,3.0093,3.0382,3.0713,3.119,3.1767,3.229,3.2541,3.2855,3.3102,3.3102,3.3102,3.3102,3.3102,3.3102,3.3102,3.3102,3.3558,3.3985,3.4223,3.4992,3.5596,3.5881,3.6205,3.6405,3.6405,3.6405,3.6405,3.6405,3.6405,3.6405,3.6405,3.6405,3.6405,3.6405,3.6405,3.6405,3.6405,3.6405,3.6405,3.6405,3.6044,3.5744,3.547,3.4866,3.4349,3.3872,3.3592,3.3316,3.3102,3.3102,3.3102,3.3102,3.3102,3.3102,3.3102,0.0,0.0,0.0,0.0,0.0,0.0,0.0,0.0,0.0,0.0,0.0,0.0,0.0,0.0,0.0,0.0,0.0,0.0,0.0,0.0,0.0,0.0,0.0,0.0,0.0,0.0,0.0,0.0,0.0,0.0,0.0,0.0,0.0,0.0,0.0,0.0,0.0,0.0,0.0,0.0,0.0,0.0,0.0,0.0,0.0,0.0,0.0,0.0,0.0,0.0,2.6499,2.6675,2.767,2.8047,2.831,2.9365,2.9729,2.9792,2.9792,2.9792,2.993,3.0482,3.0651,3.0964,3.1968,3.2256,3.2466,3.2989,3.3102,3.3102,3.3102,3.3102,3.3102,3.3102,3.3102,3.3102,3.3102,3.3608,3.4186,3.464,3.5242,3.582,3.6344,3.6405,3.6405,3.6405,3.6405,3.6405,3.6405,3.6405,3.6405,3.6405,3.6405,3.6405,3.6405,3.6405,3.6405,3.6405,3.6405,3.6405,3.6405,3.6405,3.6117,3.5596,3.552,3.4979,3.411,3.4035,3.3684,3.3203,3.3203,3.3165,3.3102,3.3102,3.3102,3.3102,0.0,0.0,0.0,0.0,0.0,0.0,0.0,0.0,0.0,0.0,1.8004,1.8018,0.0,0.0,0.0,0.0,0.0,0.0,0.0,0.0,0.0,0.0,0.0,0.0,0.0,0.0,0.0,0.0,0.0,0.0,0.0,0.0,0.0,0.0,0.0,0.0,0.0,0.0,0.0,0.0,0.0,0.0,0.0,0.0,0.0,0.0,0.0,0.0,0.0,0.0,2.6499,2.6612,2.7236,2.7733,2.8235,2.8869,2.9396,2.9792,2.9792,2.9792,2.993,3.0482,3.0934,3.1424,3.2064,3.2591,3.2977,3.3077,3.3102,3.3102,3.3102,3.3102,3.3102,3.3102,3.3102,3.3102,3.3102,3.3935,3.459,3.469,3.5604,3.6281,3.6405,3.6405,3.6405,3.6405,3.6405,3.6405,3.6405,3.6405,3.6405,3.6405,3.6405,3.6405,3.6405,3.6405,3.6405,3.6405,3.6405,3.6405,3.6405,3.6405,3.6331,3.6218,3.5719,3.5395,3.5182,3.4741,3.4261,3.3759,3.3759,3.3483,3.3102,3.3102,3.3102,3.3102,0.0,0.0,0.0,0.0,0.0,0.0,0.0,1.9097,1.9669,1.932,1.8953,1.8874,1.9228,1.9268,0.0,0.0,0.0,0.0,0.0,0.0,0.0,0.0,0.0,0.0,0.0,2.2957,2.3108,2.3108,0.0,2.3246,2.3537,2.3537,2.3675,2.3923,2.4239,0.0,0.0,0.0,0.0,0.0,0.0,0.0,0.0,0.0,0.0,0.0,0.0,0.0,0.0,0.0,2.6499,2.6637,2.7462,2.7896,2.8273,2.9126,2.9578,2.9792,2.9792,2.9792,2.993,3.0482,3.0997,3.1537,3.2089,3.2667,3.3102,3.3102,3.3102,3.3102,3.3102,3.3102,3.3102,3.3102,3.3102,3.3102,3.3102,3.4022,3.4703,3.4703,3.5715,3.6405,3.6405,3.6405,3.6405,3.6405,3.6405,3.6405,3.6405,3.6405,3.6405,3.6405,3.6405,3.6405,3.6405,3.6405,3.6405,3.6405,3.6405,3.6405,3.6405,3.6405,3.6405,3.6392,3.6081,3.5782,3.5483,3.5207,3.4803,3.4324,3.4324,3.4161,3.3935,3.3935,3.3935,3.3935,0.0,0.0,0.0,0.0,0.0,0.0,0.0,1.9097,1.9618,1.9773,1.9798,1.9798,1.9798,1.9798,1.9798,0.0,0.0,0.0,0.0,0.0,0.0,0.0,0.0,0.0,0.0,0.0,0.0,2.2932,2.3045,0.0,0.0,0.0,0.0,0.0,2.36,2.3816,2.3838,0.0,0.0,0.0,0.0,2.5598,0.0,0.0,0.0,0.0,0.0,0.0,2.6499,0.0,2.6499,2.6688,2.7758,2.8109,2.8323,2.9465,2.9792,2.9792,2.9792,2.9792,2.993,3.0482,3.0922,3.1373,3.1913,3.2411,3.2776,3.2889,3.2914,3.2952,3.3077,3.3102,3.3102,3.3102,3.3102,3.3102,3.3102,3.4022,3.4703,3.4703,3.5715,3.6405,3.6405,3.6405,3.6405,3.6405,3.6405,3.6405,3.6405,3.6405,3.6405,3.6405,3.6405,3.6405,3.6405,3.6405,3.6405,3.6405,3.6405,3.6405,3.6405,3.6405,3.6405,3.6405,3.6405,3.6143,3.5694,3.5694,3.538,3.4879,3.4879,3.4803,3.4703,3.4703,3.4703,3.4703,0.0,0.0,0.0,0.0,0.0,0.0,0.0,1.834,1.9044,1.9708,1.9798,1.9798,1.9798,1.9798,1.9798,0.0,0.0,0.0,0.0,0.0,0.0,0.0,0.0,0.0,0.0,0.0,0.0,2.237,2.2857,0.0,0.0,0.0,0.0,0.0,0.0,2.3183,2.3221,2.3813,0.0,0.0,0.0,0.0,0.0,0.0,0.0,0.0,0.0,2.6499,2.6499,2.6499,2.6499,2.6688,2.7758,2.8109,2.8323,2.9465,2.9792,2.9792,2.9792,2.9792,2.993,3.0482,3.0638,3.0801,3.1348,3.1532,3.1687,3.219,3.229,3.2453,3.3002,3.3102,3.3102,3.3102,3.3102,3.3102,3.3102,3.4022,3.4703,3.4703,3.5715,3.6405,3.6405,3.6405,3.6405,3.6405,3.6405,3.6405,3.6405,3.6405,3.6405,3.6405,3.6405,3.6405,3.6405,3.6405,3.6405,3.6405,3.6405,3.6405,3.6405,3.6405,3.6405,3.6405,3.6405,3.638,3.6306,3.6306,3.5968,3.542,3.542,3.5119,3.4703,3.4703,3.4703,3.4703,0.0,0.0,0.0,0.0,0.0,0.0,1.6936,1.7936,1.8808,1.9097,1.9514,1.9798,1.9798,1.9798,1.9798,1.9798,0.0,0.0,0.0,0.0,0.0,0.0,0.0,0.0,0.0,0.0,2.182,2.182,2.2019,0.0,0.0,0.0,0.0,0.0,0.0,2.3108,2.312,2.3361,0.0,0.0,0.0,0.0,0.0,0.0,0.0,0.0,0.0,0.0,2.6499,2.6499,2.6499,2.6625,2.7386,2.7846,2.8323,2.9465,2.9792,2.9792,2.9792,2.9792,2.9842,3.0068,3.0369,3.0651,3.0871,3.1173,3.1449,3.1675,3.1725,3.1888,3.2453,3.2554,3.2667,3.304,0.0,3.3334,3.3974,3.4437,3.4925,3.56,3.6106,3.6405,3.6405,3.6405,3.6405,3.6405,3.6405,3.6405,3.6405,3.6405,3.6405,3.6405,3.6405,3.6405,3.6405,3.6405,3.6405,3.6405,3.6405,3.6405,3.6405,3.6405,3.6405,3.6405,3.6405,3.6405,3.6405,3.6405,3.6256,3.6031,3.6031,3.5906,3.5728,3.5728,3.5728,3.5728,0.0,0.0,0.0,0.0,0.0,1.6824,1.6824,1.7523,1.8219,1.8648,1.915,1.9553,1.9773,1.9798,1.9798,1.9798,1.9798,0.0,0.0,0.0,0.0,0.0,0.0,0.0,0.0,0.0,2.1256,2.1256,2.1419,2.1769,0.0,0.0,2.2596,2.3108,0.0,0.0,0.0,0.0,0.0,0.0,0.0,0.0,0.0,0.0,0.0,0.0,0.0,0.0,0.0,0.0,0.0,2.6587,2.7123,0.0,0.0,0.0,2.9654,2.9792,2.9792,2.9792,2.9792,2.9792,3.008,3.0369,3.0369,3.0871,3.1314,3.1183,3.1377,3.1701,3.2118,3.2194,3.2403,0.0,0.0,3.3839,3.4594,3.5274,3.5829,3.624,3.6964,3.7163,3.6476,3.6405,3.6405,3.6405,3.6405,3.6405,3.6405,3.6405,3.6405,3.6405,3.6405,3.6405,3.6405,3.6405,3.6405,3.6405,3.6405,3.6405,3.6405,3.6405,3.6405,3.6405,3.6405,3.6405,3.6405,3.6405,3.6405,3.6405,3.6405,3.6405,3.6405,3.6405,3.6405,3.6405,0.0,0.0,0.0,0.0,0.0,0.0,1.7592,1.6978,1.7048,1.8514,1.8701,1.8992,1.9721,1.9798,1.9798,1.9798,1.9798,0.0,0.0,0.0,0.0,0.0,0.0,0.0,0.0,0.0,2.0717,2.0717,2.1245,2.1769,2.2295,2.2295,2.2596,2.3108,0.0,0.0,0.0,0.0,0.0,0.0,0.0,0.0,0.0,0.0,0.0,0.0,0.0,0.0,0.0,0.0,0.0,0.0,0.0,0.0,0.0,0.0,2.9321,2.9792,2.9792,2.9792,2.9792,2.9792,2.9792,2.9804,2.9804,3.0533,3.1097,3.0692,3.1351,3.2052,3.2155,3.2194,3.2403,3.3002,3.3995,0.0,3.4705,3.6604,3.7547,3.6435,3.842,3.8952,3.6628,3.6405,3.6405,3.6405,3.6405,3.6405,3.6405,3.6405,3.6405,3.6405,3.6405,3.6405,3.6405,3.6405,3.6405,3.6405,3.6405,3.6405,3.6405,3.6405,3.6405,3.6405,3.6405,3.6405,3.6405,3.6405,3.6405,3.6405,3.6405,3.6405,3.6405,3.6405,3.6405,3.6405,0.0,0.0,0.0,0.0,0.0,0.0,0.0,1.7827,1.8167,1.8648,1.9136,1.954,1.9773,1.9798,1.9798,1.9798,1.9798,0.0,0.0,0.0,0.0,0.0,0.0,0.0,0.0,0.0,2.0075,2.0075,2.025,2.0815,2.1744,2.1744,2.2232,2.3108,2.3108,2.3108,0.0,0.0,0.0,0.0,0.0,0.0,0.0,0.0,0.0,0.0,0.0,0.0,0.0,0.0,0.0,0.0,0.0,0.0,0.0,2.7708,2.8461,2.9303,2.9902,2.9941,2.9792,2.9792,3.0279,3.0595,2.9953,3.052,3.0985,3.0206,3.0303,3.0622,3.1025,3.1411,3.2081,3.3366,3.359,3.4108,3.5527,3.5746,3.5895,3.6262,3.7009,3.7232,3.6476,3.6405,3.6405,3.6405,3.6405,3.6405,3.6405,3.6405,3.6405,3.6405,3.6405,3.6405,3.6405,3.6405,3.6405,3.6405,3.6405,3.6405,3.6405,3.6405,3.6405,3.6405,3.6405,3.6405,3.6405,3.6405,3.6405,3.6405,3.6405,3.6405,3.6405,3.6405,3.6405,3.6405,0.0,0.0,0.0,0.0,0.0,0.0,0.0,1.7988,1.8369,1.8661,1.9097,1.9488,1.9773,1.9798,1.9798,1.9798,1.9798,0.0,0.0,0.0,0.0,0.0,0.0,0.0,0.0,1.9798,1.9798,1.9798,1.9798,2.0376,2.1507,2.1507,2.2069,2.3108,2.3108,2.3108,0.0,0.0,0.0,0.0,0.0,0.0,2.4904,0.0,0.0,0.0,0.0,0.0,0.0,0.0,0.0,0.0,0.0,0.0,0.0,0.0,2.8103,2.8458,2.9209,2.9925,3.0403,3.0104,3.0615,3.1143,3.0921,3.1026,3.1044,3.0457,3.0336,3.0484,3.1027,3.1597,3.2517,3.4099,3.4308,3.4719,3.6033,3.607,3.6411,3.7533,3.6909,3.6557,3.7,3.6651,3.6405,3.6405,3.6405,3.6405,3.6405,3.6405,3.6405,3.6405,3.6405,3.6405,3.6405,3.6405,3.6405,3.6405,3.6405,3.6405,3.6405,3.6405,3.6405,3.6405,3.6405,3.6405,0.0,3.6405,3.6405,3.6405,3.6405,3.6405,3.6405,3.6405,3.6405,3.6405,0.0,0.0,0.0,0.0,0.0,0.0,0.0,1.7688,1.7936,1.8688,1.8781,1.9044,1.9734,1.9798,1.9798,1.9798,0.0,0.0,0.0,0.0,0.0,0.0,0.0,0.0,0.0,1.9798,1.9798,1.9798,1.9849,2.0439,2.1507,2.1545,2.2121,2.3108,2.3108,2.3108,0.0,0.0,0.0,0.0,0.0,0.0,0.0,0.0,0.0,0.0,0.0,0.0,0.0,0.0,0.0,0.0,0.0,0.0,0.0,0.0,0.0,0.0,0.0,2.9688,3.1276,3.0588,3.0814,3.1433,3.2253,3.1843,0.0,3.1124,3.1217,3.1431,3.186,3.2577,3.3596,3.5093,3.5836,3.6198,3.6198,3.7173,3.8336,3.9617,3.7782,3.6849,3.7984,3.7057,3.6405,3.6405,3.6405,3.6405,3.6405,3.6405,3.6405,3.6405,3.6405,3.6405,3.6405,3.6405,3.6405,3.6405,3.6405,3.6405,3.6405,3.6405,3.6405,3.6405,3.6405,3.6405,3.6405,3.6405,3.6405,3.6405,3.6405,3.6405,3.6405,3.6405,3.6405,3.6405,0.0,0.0,0.0,0.0,0.0,0.0,0.0,0.0,0.0,0.0,1.954,1.9618,1.9785,1.9798,1.9798,0.0,0.0,0.0,0.0,0.0,0.0,0.0,0.0,0.0,0.0,1.9798,1.9798,1.9798,2.0251,2.0842,2.1507,2.192,2.247,2.3108,2.3108,2.3108,2.3108,0.0,0.0,0.0,0.0,0.0,0.0,0.0,0.0,0.0,2.6499,2.6499,0.0,0.0,0.0,0.0,0.0,0.0,0.0,0.0,2.7337,2.75,2.7012,0.0,3.0018,3.0452,3.1025,3.1372,0.0,0.0,0.0,0.0,0.0,3.2092,3.1501,3.2861,3.4458,3.5632,3.6026,3.6198,3.6198,3.5809,3.6245,3.8291,3.7266,3.6849,3.7984,3.7057,3.6405,3.6405,3.6405,3.6405,3.6405,3.6405,3.6405,3.6405,3.6405,3.6405,3.6405,3.6405,3.6405,3.6405,3.6405,3.6405,3.6405,3.6405,3.6405,3.6405,3.6405,3.6405,3.6405,3.6405,3.6405,3.6405,3.6405,3.6405,3.6405,3.6405,3.6405,3.6405,0.0,0.0,0.0,0.0,0.0,0.0,0.0,0.0,0.0,0.0,0.0,0.0,0.0,0.0,0.0,0.0,0.0,0.0,0.0,0.0,0.0,0.0,0.0,0.0,1.9798,1.9798,1.9798,1.9798,2.0125,2.0703,2.1507,2.1794,2.2345,2.3108,2.3108,2.3108,2.312,2.3411,2.3346,0.0,2.3766,0.0,0.0,0.0,0.0,0.0,2.6399,2.6499,0.0,2.6499,2.6748,2.7057,0.0,0.0,0.0,0.0,2.7637,2.8117,2.728,2.8592,3.0154,2.9815,3.0789,3.167,3.1066,0.0,0.0,0.0,0.0,3.2069,3.2429,3.3532,3.4887,3.6391,3.5999,3.571,3.6259,3.6282,3.6731,3.7953,3.803,3.7828,3.7368,3.7243,3.6953,3.6428,3.6405,3.6405,3.6405,3.6405,3.6405,3.6405,3.6405,3.6405,3.6405,3.6405,3.6405,3.6405,3.6405,3.6405,3.6405,3.6405,3.6405,3.6405,3.6405,3.6405,3.6405,3.6405,3.6405,3.6405,3.6405,3.6405,3.6452,3.7,3.6849,3.6557,0.0,0.0,0.0,0.0,0.0,0.0,0.0,0.0,0.0,0.0,0.0,0.0,0.0,0.0,0.0,0.0,0.0,0.0,0.0,0.0,0.0,0.0,0.0,1.9798,1.9798,1.9798,1.9798,1.9798,1.9886,2.0464,2.1507,2.1583,2.2159,2.3108,2.3108,2.3108,2.3133,2.365,2.3574,0.0,2.365,0.0,0.0,0.0,0.0,0.0,0.0,0.0,0.0,2.6499,2.6956,2.7534,2.7534,0.0,0.0,0.0,0.0,0.0,2.7753,2.9072,3.036,2.9072,3.0267,3.1734,3.1658,0.0,0.0,0.0,0.0,3.2277,3.3646,3.4419,3.5407,3.7044,3.5974,3.5311,3.6431,3.7161,3.7676,3.7947,3.8952,3.8841,3.6849,3.7517,3.7632,3.6499,3.6405,3.6405,3.6405,3.6405,3.6405,3.6405,3.6557,3.6675,3.6675,3.6499,3.6405,3.6405,3.6405,3.6405,3.6405,3.6405,3.6405,3.6405,3.6405,3.6499,3.6675,3.6675,3.6756,3.6919,3.6732,3.6779,3.7013,3.7609,3.7461,3.7243,0.0,0.0,0.0,0.0,0.0,0.0,0.0,0.0,0.0,0.0,0.0,0.0,0.0,0.0,0.0,0.0,0.0,0.0,0.0,0.0,0.0,0.0,1.9798,1.9798,1.9798,1.9798,1.9798,1.9798,2.0301,2.088,2.1507,2.197,2.2508,2.3108,2.3108,2.3108,2.3108,2.3195,2.3183,2.3108,2.3195,0.0,0.0,0.0,0.0,0.0,0.0,0.0,0.0,2.6499,2.6572,2.6692,2.6692,0.0,0.0,0.0,0.0,0.0,2.6905,2.7436,2.8351,2.8837,2.9564,3.0289,3.0831,3.1839,3.2639,0.0,0.0,3.4566,3.3663,3.5374,3.6931,3.6892,3.6374,3.6201,3.6907,3.5981,3.5756,3.7258,3.7997,3.8221,3.787,3.8007,3.7632,3.6499,3.6405,3.6405,3.6405,3.6405,3.6405,3.6405,3.7345,3.7848,3.7848,3.6883,3.6405,3.6405,3.6405,3.6405,3.6405,3.6405,3.6405,3.6405,3.6405,3.6953,3.7848,3.7848,3.8424,3.9263,3.8257,3.8446,3.9139,3.7335,3.7805,3.9536,0.0,0.0,0.0,0.0,0.0,0.0,0.0,0.0,0.0,0.0,0.0,0.0,0.0,0.0,0.0,0.0,0.0,0.0,0.0,0.0,0.0,1.9798,1.9798,1.9798,1.9798,1.9798,1.9798,1.9798,2.0088,2.0515,2.1094,2.192,2.2596,2.3108,2.3108,2.3108,2.3108,2.3108,2.3108,2.3108,0.0,0.0,0.0,0.0,0.0,0.0,0.0,0.0,0.0,0.0,2.6515,2.7145,2.7145,0.0,0.0,0.0,0.0,0.0,2.7953,2.8117,2.8379,2.8314,2.8841,2.9359,2.9358,3.0244,3.1399,0.0,0.0,0.0,3.4179,3.5035,3.552,3.4906,3.6065,3.7077,3.7149,3.7839,3.8498,3.9025,4.0168,4.0419,3.9205,3.9618,3.9508,3.837,3.8292,3.8292,3.8292,3.8292,3.8292,3.8292,3.8166,3.8107,3.8107,3.6977,3.6709,3.7322,3.7322,3.7,3.6405,3.6405,3.6405,3.6405,3.6405,3.6686,3.7243,3.7848,3.8424,3.8872,3.8311,3.885,3.9768,3.8684,3.9741,4.172,0.0,0.0,0.0,0.0,0.0,0.0,0.0,0.0,0.0,0.0,0.0,0.0,0.0,0.0,0.0,0.0,0.0,0.0,0.0,0.0,1.961,1.961,1.961,1.966,1.9798,1.9798,1.9798,1.9798,1.9798,2.0175,2.0905,2.1857,2.2596,2.3108,2.3108,2.3108,2.3108,2.3108,2.3108,2.3108,0.0,0.0,0.0,0.0,0.0,0.0,0.0,0.0,0.0,0.0,0.0,0.0,0.0,0.0,0.0,2.8939,2.9002,2.8955,2.8748,2.87,2.854,2.7871,0.0,2.8901,2.8524,2.9107,0.0,0.0,0.0,0.0,3.4501,3.4771,3.4634,3.4263,3.5815,3.7049,3.6981,3.8728,4.0006,3.999,4.1574,4.1945,4.008,4.0682,4.0724,3.9558,3.947,3.947,3.947,3.9746,3.9899,3.9899,3.9258,3.8912,3.8912,3.8334,3.7916,3.7723,3.7984,3.7632,3.6803,3.7093,3.7219,3.7219,3.7219,3.7219,3.7302,3.8166,3.8514,3.8491,3.8198,3.8671,3.9579,4.0396,4.1637,4.2805,0.0,0.0,0.0,0.0,0.0,0.0,0.0,0.0,0.0,0.0,0.0,0.0,0.0,0.0,0.0,0.0,0.0,0.0,0.0,0.0,1.9058,1.9058,1.9058,1.9284,1.9798,1.9798,1.9798,1.9798,1.9798,2.0363,2.1457,2.2033,2.2596,2.3108,2.3108,2.3108,2.3108,2.3108,2.3108,2.3108,2.3108,0.0,0.0,0.0,0.0,0.0,0.0,0.0,0.0,0.0,0.0,0.0,0.0,0.0,2.7953,2.8764,2.9002,2.8828,2.8002,2.7802,2.7786,2.772,2.8363,0.0,2.9344,3.0081,0.0,3.2341,0.0,0.0,3.4219,3.5325,3.637,3.731,3.6035,3.5244,3.6148,3.6069,3.6482,3.8007,3.9716,4.0562,3.9952,3.9964,3.9514,3.8311,3.8221,3.8221,3.8221,3.9293,3.9899,3.9899,4.0838,4.1343,4.1343,4.231,4.0696,3.6534,3.7586,3.8062,3.803,3.9139,3.9659,3.9659,3.9659,3.9659,3.9659,3.9746,3.9768,3.9659,3.8536,3.8153,3.8613,4.185,4.2487,4.185,0.0,0.0,0.0,0.0,0.0,0.0,0.0,0.0,0.0,0.0,0.0,0.0,0.0,0.0,0.0,0.0,0.0,0.0,0.0,0.0,1.8845,1.8518,1.882,1.9096,1.9296,1.9622,1.9798,1.9798,1.9798,2.0213,2.1018,2.1557,2.2096,2.2621,2.2945,2.3108,2.3108,2.3108,2.3108,2.3108,2.3108,2.3108,0.0,0.0,0.0,0.0,0.0,0.0,0.0,0.0,2.6863,2.7715,0.0,2.9207,2.878,3.0148,2.9827,2.905,2.9254,2.8923,2.8508,2.8508,2.8764,0.0,0.0,2.9696,3.0452,3.2221,3.2141,0.0,3.4069,3.4885,3.5588,3.6638,3.671,3.6763,3.7137,3.7995,3.8951,3.9993,4.1062,4.1802,4.2006,4.2023,4.1823,4.1378,4.1322,4.1322,4.1322,4.1782,4.2023,4.2023,4.1747,4.1587,4.1587,4.133,4.0318,3.8595,3.9727,3.9915,3.9227,3.9703,3.9899,3.9899,3.9899,3.9899,3.9964,4.0661,4.0958,4.0979,4.1253,4.0887,4.0526,4.2548,4.3036,4.2725,0.0,0.0,0.0,0.0,0.0,0.0,0.0,0.0,0.0,0.0,0.0,0.0,0.0,0.0,0.0,0.0,0.0,0.0,0.0,1.8845,1.8518,1.7965,1.8468,1.8757,1.8757,1.9447,1.9798,1.9798,1.9798,2.0113,2.0717,2.1243,2.1782,2.232,2.2857,2.3108,2.3108,2.3108,2.3108,2.3123,2.338,2.3335,0.0,0.0,0.0,0.0,0.0,0.0,0.0,0.0,2.7154,0.0,0.0,0.0,2.9333,3.1014,3.0314,2.9129,2.9721,2.9442,2.8939,2.8668,0.0,0.0,2.9708,2.9609,2.9834,3.14,3.2015,3.2618,3.3737,3.4623,3.54,3.6093,3.654,3.7035,3.7715,3.8819,3.9954,4.0962,4.1673,4.2331,4.297,4.2862,4.2765,4.2765,4.2765,4.2765,4.2765,4.3095,4.329,4.329,4.2548,4.2132,4.2132,4.1351,4.0972,4.0972,4.1747,4.1539,4.0447,4.0824,4.0972,4.0972,4.0972,4.0781,4.049,4.1274,4.1399,4.1169,4.231,4.229,4.1747,4.288,4.329,4.329,0.0,0.0,0.0,0.0,0.0,0.0,0.0,0.0,0.0,0.0,0.0,0.0,0.0,0.0,0.0,0.0,0.0,0.0,1.8983,1.8493,1.7953,1.7412,1.7903,1.8204,1.8216,1.9258,1.9798,1.9798,1.9798,2.0113,2.0691,2.1243,2.1784,2.2307,2.2844,2.3095,2.3095,2.3108,2.3108,2.3183,2.3987,2.3811,2.3213,0.0,0.0,0.0,0.0,0.0,0.0,0.0,2.7611,2.8431,0.0,0.0,0.0,3.1014,3.0314,2.9018,2.9018,2.9018,2.8796,0.0,0.0,0.0,3.0522,3.0081,2.9487,2.9751,3.2378,3.4274,3.3208,3.4767,3.6217,3.6237,3.54,3.5453,3.7529,3.781,3.8466,4.0196,4.0999,4.1658,4.2336,4.1929,4.1608,4.1608,4.1608,4.1608,4.1608,4.2684,4.329,4.329,4.329,4.329,4.329,4.329,4.329,4.329,4.329,4.2705,4.1649,4.2785,4.329,4.329,4.329,4.2664,4.1608,4.1608,4.0958,4.0051,4.1169,4.1608,4.1747,4.288,4.329,4.329,0.0,0.0,0.0,0.0,0.0,0.0,0.0,0.0,0.0,0.0,0.0,0.0,0.0,0.0,0.0,0.0,0.0,0.0,1.8445,1.828,1.7953,1.7412,1.7903,1.838,1.8744,1.9434,1.9798,1.9798,1.9798,1.9886,2.0088,2.0666,2.1018,2.1206,2.2119,2.2546,2.2571,2.2945,2.3424,2.3958,2.4205,2.4162,2.4031,0.0,0.0,0.0,0.0,0.0,0.0,0.0,0.0,0.0,0.0,0.0,0.0,3.1351,3.1161,3.0629,3.0072,2.9919,2.9705,2.8828,0.0,0.0,0.0,3.0579,0.0,0.0,3.2928,3.4661,3.4206,3.5483,3.701,3.8258,3.82,3.8234,3.8837,3.8925,3.9287,4.0285,4.0576,4.1149,4.2291,4.2252,4.2337,4.2756,4.2785,4.2785,4.2785,4.3115,4.329,4.329,4.329,4.329,4.329,4.329,4.329,4.329,4.329,4.3115,4.2805,4.3135,4.329,4.329,4.329,4.3115,4.2785,4.2785,4.2603,4.2325,4.2664,4.2785,4.284,4.319,4.329,4.329,0.0,0.0,0.0,0.0,0.0,0.0,0.0,0.0,0.0,0.0,0.0,0.0,0.0,0.0,0.0,0.0,0.0,0.0,0.0,0.0,1.7738,1.7412,1.7903,1.8543,1.9296,1.9622,1.9798,1.9798,1.9798,1.9798,1.9811,2.0427,2.0826,2.1078,2.1707,2.2253,2.2698,2.2764,2.3368,2.4307,2.4307,2.4481,2.4794,0.0,0.0,0.0,0.0,0.0,0.0,0.0,0.0,0.0,3.0205,0.0,0.0,3.1117,3.1029,3.0837,3.0011,3.0042,3.0087,2.9223,2.9254,2.9843,3.1066,0.0,0.0,0.0,3.3449,3.4861,3.4562,3.576,3.7232,3.8554,3.8764,3.8907,3.9337,3.9406,3.9556,3.9963,4.0247,4.0711,4.1523,4.2096,4.2541,4.2925,4.316,4.329,4.329,4.329,4.329,4.329,4.329,4.329,4.329,4.329,4.329,4.329,4.329,4.329,4.329,4.329,4.329,4.329,4.329,4.329,4.329,4.329,4.329,4.329,4.329,4.329,4.329,4.329,4.329,4.329,0.0,0.0,0.0,0.0,0.0,0.0,0.0,0.0,0.0,0.0,0.0,0.0,0.0,0.0,0.0,0.0,0.0,0.0,0.0,0.0,1.7412,1.7462,1.8028,1.8794,1.9773,1.9798,1.9798,1.9798,1.9798,1.9798,1.9811,2.0365,2.091,2.1446,2.1429,2.2033,2.3028,2.2592,2.3097,2.4227,2.4352,2.4809,2.5398,2.5398,0.0,0.0,0.0,0.0,0.0,0.0,0.0,0.0,3.0214,3.09,3.1365,3.0614,3.0404,3.0238,2.9442,2.9812,3.0208,2.9333,2.979,3.0775,3.1929,3.2537,3.2837,3.2749,3.3955,3.4938,3.4613,3.5796,3.7086,3.7841,3.7956,3.829,3.9265,3.9406,3.9406,3.9406,3.9948,4.0337,4.0397,4.1493,4.2246,4.2306,4.288,4.322,4.322,4.326,4.329,4.329,4.329,4.329,4.329,4.329,4.329,4.329,4.329,4.329,4.329,4.329,4.329,4.329,4.329,4.329,4.329,4.329,4.329,4.329,4.329,4.329,4.329,4.329,4.329,4.329,0.0,0.0,0.0,0.0,0.0,0.0,0.0,0.0,0.0,0.0,0.0,0.0,0.0,0.0,0.0,0.0,0.0,0.0,0.0,0.0,1.7588,1.8003,1.8945,1.956,1.9798,1.9798,1.9798,1.9798,1.9798,1.9798,1.9798,1.9924,2.0064,2.0206,2.0669,2.1012,2.134,2.2612,2.3321,2.3689,2.4747,2.5259,2.5398,2.5398,2.5398,0.0,0.0,0.0,0.0,0.0,0.0,0.0,2.9564,3.0454,3.1467,3.1278,3.1234,3.1205,3.1014,3.1102,0.0,3.0223,3.091,3.1857,3.2131,3.3591,3.4641,3.3874,3.4595,3.5449,3.5626,3.6543,3.7673,3.8875,3.9068,3.9141,3.9355,3.9406,3.9406,3.9406,3.9526,3.981,4.0352,4.0651,4.1059,4.1568,4.2211,4.2586,4.2586,4.3025,4.329,4.329,4.329,4.329,4.329,4.329,4.329,4.329,4.329,4.329,4.329,4.329,4.329,4.329,4.329,4.329,4.329,4.329,4.329,4.329,4.329,4.329,4.329,4.329,4.329,4.329,0.0,0.0,0.0,0.0,0.0,0.0,0.0,0.0,0.0,0.0,0.0,0.0,0.0,0.0,0.0,0.0,0.0,0.0,0.0,0.0,0.0,1.8556,1.9359,1.9798,1.9798,1.9798,1.9798,1.9798,1.9798,1.9798,1.9798,1.9798,1.9965,2.0283,2.0269,2.0586,2.117,2.183,2.2606,2.3464,2.416,2.5039,2.5933,2.5933,2.5933,2.6013,2.6759,0.0,0.0,0.0,0.0,0.0,0.0,0.0,3.1423,3.1043,3.1205,3.1423,3.1029,3.1205,0.0,3.0984,0.0,3.2422,3.2746,3.3964,3.4957,3.4749,3.5133,3.5641,3.6153,3.6872,3.7716,3.8766,3.9182,3.9406,3.9406,3.9406,3.9406,3.9406,3.9406,3.9541,3.9903,4.0217,4.0546,4.0891,4.1538,4.1912,4.1912,4.2506,4.2865,4.2865,4.3145,4.329,4.329,4.329,4.329,4.329,4.329,4.329,4.329,4.329,4.329,4.329,4.329,4.329,4.329,4.329,4.329,4.329,4.329,4.329,4.329,4.329,4.329,4.329,0.0,0.0,0.0,0.0,0.0,0.0,0.0,0.0,0.0,0.0,0.0,0.0,0.0,0.0,0.0,0.0,0.0,0.0,0.0,0.0,0.0,1.8958,1.9509,1.9798,1.9798,1.9798,1.9798,1.9798,1.9798,1.9798,0.0,1.9798,2.0105,2.0597,2.0055,2.0425,2.1431,2.1054,2.1778,2.325,2.3481,2.46,2.6122,2.6122,2.627,2.6563,2.7047,2.6995,2.6787,2.7395,0.0,0.0,0.0,0.0,3.1231,3.0659,3.0984,3.1351,3.0688,3.0999,3.1511,3.1511,3.1989,0.0,3.335,3.4024,3.4682,3.537,3.5504,3.5699,3.6389,3.6985,3.7629,3.8305,3.8958,3.9406,3.9406,3.9406,3.9406,3.9406,3.9406,3.9406,3.9406,3.9885,4.0232,4.0232,4.0846,4.1224,4.1224,4.1852,4.2231,4.2231,4.2716,4.3025,4.3145,4.3145,4.3205,4.329,4.329,4.329,4.329,4.329,4.329,4.329,4.329,4.329,4.329,4.329,4.329,4.329,4.329,4.329,4.329,4.329,4.329,4.329,0.0,0.0,0.0,0.0,0.0,0.0,0.0,0.0,0.0,0.0,0.0,0.0,0.0,0.0,0.0,0.0,0.0,0.0,1.5632,0.0,0.0,1.897,1.9509,1.9798,1.9798,1.9798,1.9798,1.9798,1.9798,0.0,0.0,0.0,0.0,1.9927,1.9837,2.022,2.0941,2.1442,2.1983,2.2642,2.3851,2.4449,2.4595,2.4595,2.5384,2.6431,2.5892,2.6455,2.7471,2.7575,2.8111,0.0,0.0,0.0,3.0733,3.1201,3.1423,3.1467,3.138,0.0,3.1511,0.0,3.1989,3.2677,3.335,3.4024,3.4682,3.537,3.5504,3.5699,3.6389,3.6985,3.7629,3.8305,3.8958,3.9406,3.9406,3.9406,3.9406,3.9406,3.9406,3.9406,3.9406,3.9481,3.9526,3.9526,4.0157,4.0531,4.0531,4.1179,4.1523,4.1523,4.1613,4.1927,4.2511,4.2511,4.2776,4.329,4.329,4.329,4.329,4.329,4.329,4.329,4.329,4.329,4.329,4.329,4.329,4.329,4.329,4.329,4.329,4.329,4.329,4.329,0.0,0.0,0.0,0.0,0.0,0.0,0.0,0.0,0.0,0.0,0.0,0.0,0.0,0.0,0.0,1.3851,1.5455,1.6539,1.6593,1.7601,1.8443,1.8983,1.9509,1.9798,1.9798,1.9798,1.9798,1.9798,0.0,0.0,0.0,1.9798,1.9798,0.0,0.0,0.0,2.0283,2.0959,2.1719,2.2604,2.3641,2.4394,2.4951,2.5384,2.5946,2.6457,2.6135,2.6694,2.76,2.76,2.8051,2.8712,2.9383,0.0,0.0,0.0,3.1511,3.1511,3.1511,3.1511,3.1511,0.0,3.172,3.2123,3.2781,3.3455,3.4128,3.4802,3.5235,3.5594,3.5893,3.6462,3.7105,3.7734,3.8407,3.8975,3.9346,3.9406,3.9406,3.9406,3.9406,3.9406,3.9406,3.9406,3.9406,3.9406,3.9675,3.9825,3.9825,4.0472,4.0831,4.0831,4.1209,4.1538,4.1837,4.1837,4.2167,4.2791,4.2791,4.297,4.329,4.329,4.329,4.329,4.329,4.329,4.329,4.329,4.329,4.329,4.329,4.329,4.329,4.329,4.329,4.329,0.0,0.0,0.0,0.0,0.0,0.0,0.0,0.0,0.0,0.0,0.0,0.0,0.0,0.0,0.0,0.0,1.5309,1.6595,1.7349,1.7903,1.8443,1.8983,1.9509,1.9798,1.9798,1.9798,1.9798,0.0,0.0,0.0,1.9798,1.9798,1.9798,0.0,2.0321,2.0358,0.0,0.0,2.1327,2.2604,2.3185,2.4107,2.5203,2.5946,2.6216,2.6243,2.6431,2.6852,2.7357,2.7549,2.7931,2.8457,2.9129,2.9773,0.0,0.0,0.0,3.1511,3.1511,0.0,3.1511,3.1511,3.1511,3.1675,3.2347,3.3021,3.3694,3.4353,3.5026,3.5504,3.5504,3.6043,3.6658,3.7105,3.7853,3.8571,3.9095,3.9287,3.9406,3.9406,3.9406,3.9406,3.9406,3.9406,3.9406,3.9406,3.9406,3.9406,3.9406,3.987,4.0157,4.0157,4.0621,4.0965,4.1149,4.1313,4.1643,4.2156,4.2156,4.2466,4.307,4.307,4.3145,4.329,4.329,4.329,4.329,4.329,4.329,4.329,4.329,4.329,4.329,4.329,4.329,4.329,0.0,0.0,0.0,0.0,0.0,0.0,0.0,0.0,0.0,0.0,0.0,0.0,1.3732,1.3827,1.3827,1.3792,1.4926,1.6151,1.7315,1.7903,1.8443,1.8983,1.9509,0.0,1.9798,1.9798,1.9798,0.0,0.0,0.0,1.9798,1.9798,1.9798,1.9798,1.9837,2.0194,2.0709,0.0,0.0,0.0,2.2591,2.3347,2.4437,2.5175,2.5453,2.555,2.6243,2.6523,2.6669,2.7357,2.7615,2.7764,2.844,2.9114,2.9773,0.0,0.0,0.0,0.0,3.1511,0.0,3.1511,3.1511,3.1675,3.2347,3.3021,3.3694,3.4353,3.5026,3.5504,3.5504,3.6043,3.6508,3.6553,3.7601,3.8424,3.8454,3.9005,3.9406,3.9406,3.9406,3.9406,3.9406,3.9406,3.9406,3.9406,3.9406,3.9406,3.9406,3.9436,3.9451,3.9451,3.9496,3.981,4.0442,4.1089,4.1418,4.1448,4.1448,4.1792,4.2455,4.2455,4.2765,4.329,4.329,4.329,4.329,4.329,4.329,4.329,4.329,4.329,4.329,4.329,4.329,4.329,0.0,0.0,0.0,0.0,0.0,0.0,0.0,0.0,0.0,0.0,0.0,0.0,0.0,1.3792,1.3956,1.4341,1.5129,1.5949,1.6767,1.7689,1.828,1.8481,1.9321,1.9798,1.9798,1.9798,1.9798,0.0,0.0,1.9798,1.9798,1.9798,1.9798,1.9824,2.0258,2.0346,2.0169,2.0358,0.0,0.0,2.2591,2.3567,2.4979,2.478,2.4979,2.5425,2.5701,2.6109,2.6616,2.7357,2.76,2.772,2.8382,2.8757,2.916,3.0193,3.0972,3.1511,0.0,0.0,0.0,3.1511,3.1511,3.157,3.1795,3.2377,3.3051,3.3709,3.4398,3.4997,3.5429,3.5699,3.5998,3.6434,3.6883,3.7466,3.829,3.8601,3.8931,3.9346,3.9406,3.9406,3.9406,3.9406,3.9406,3.9406,3.9406,3.9406,3.9406,3.9406,3.9406,3.9406,3.9406,3.9511,3.9768,4.0008,4.0337,4.0756,4.0756,4.1119,4.1747,4.1747,4.2107,4.272,4.272,4.294,4.329,4.329,4.329,4.329,4.329,4.329,4.329,4.329,4.329,4.329,0.0,0.0,0.0,0.0,0.0,0.0,0.0,0.0,0.0,0.0,0.0,0.0,0.0,0.0,1.3814,1.4629,1.5253,1.5853,1.6468,1.7565,1.8204,1.8204,1.9233,1.9798,1.9798,1.9798,1.9798,0.0,0.0,0.0,0.0,1.9798,1.9798,1.9824,2.027,2.022,0.0,0.0,0.0,2.224,2.2435,2.3658,2.5342,2.4865,2.5133,2.5796,2.6054,2.6296,2.6616,2.7357,2.76,2.7675,2.8126,2.8412,2.8846,3.0133,3.0822,0.0,3.1436,0.0,0.0,3.1511,3.1511,3.1511,3.1511,3.2033,3.2632,3.308,3.3874,3.4637,3.507,3.5355,3.5654,3.6088,3.6359,3.6808,3.7646,3.814,3.8556,3.902,3.9257,3.9406,3.9406,3.9406,3.9406,3.9406,3.9406,3.9406,3.9406,3.9406,3.9406,3.9406,3.9406,3.9406,3.9406,3.9406,3.9616,4.0068,4.0068,4.0412,4.1074,4.1074,4.1433,4.2066,4.2066,4.2521,4.329,4.329,4.329,4.329,4.329,4.329,4.329,4.329,4.329,4.329,0.0,0.0,0.0,0.0,0.0,0.0,0.0,0.0,0.0,0.0,0.0,0.0,0.0,0.0,0.0,1.4618,1.5264,1.5853,1.6468,1.7565,1.8204,1.8204,1.9233,1.9798,1.9798,1.9798,1.9798,0.0,0.0,0.0,0.0,0.0,1.9798,1.9798,1.9798,1.9798,1.9836,0.0,2.1019,2.1573,2.2083,2.3551,2.5398,2.5384,2.5824,2.6563,2.7306,2.7113,2.6616,2.7357,2.76,2.76,2.76,2.8051,0.0,0.0,0.0,0.0,0.0,0.0,0.0,3.1511,3.1511,3.1511,3.1511,3.1989,3.2482,3.2497,3.3529,3.4443,3.4503,3.5026,3.5489,3.5504,3.6043,3.6479,3.6508,3.7554,3.8365,3.838,3.8958,3.9376,3.9376,3.9391,3.9406,3.9406,3.9406,3.9406,3.9406,3.9406,3.9406,3.9406,3.9406,3.9406,3.9406,3.9406,3.9406,3.9406,3.9406,3.9735,4.0367,4.0367,4.0726,4.1373,4.1373,4.2087,4.3265,4.326,4.3275,4.329,4.329,4.329,4.329,4.329,4.329,4.329,0.0,0.0,0.0,0.0,0.0,0.0,0.0,0.0,0.0,0.0,0.0,0.0,0.0,1.4037,1.4503,1.5287,1.551,1.5853,1.6468,1.7565,1.8204,1.8204,1.9233,1.9798,1.9798,1.9798,1.9798,0.0,0.0,0.0,0.0,0.0,0.0,0.0,1.9798,1.9798,1.9836,2.0439,2.1318,2.2306,2.2299,2.3551,2.5342,2.4809,2.5049,2.5796,2.6536,2.6669,2.6616,2.7357,2.76,2.76,2.76,2.8051,0.0,0.0,0.0,0.0,3.1316,0.0,0.0,0.0,0.0,0.0,3.1511,3.1645,3.1914,3.2407,3.2796,3.335,3.4323,3.4652,3.4937,3.5429,3.5654,3.5953,3.6434,3.6808,3.718,3.7629,3.8272,3.8676,3.8676,3.9125,3.9406,3.9406,3.9406,3.9406,3.9406,3.9406,3.9406,3.9406,3.9406,3.9406,3.9406,3.9406,3.9406,3.9406,3.9406,3.9496,3.9675,3.9675,4.0053,4.0666,4.0666,4.1145,4.1953,4.2451,4.291,4.329,4.329,4.329,4.329,4.329,4.329,4.329,0.0,0.0,0.0,0.0,0.0,0.0,1.2905,1.2905,0.0,0.0,0.0,0.0,0.0,0.0,1.4835,1.5186,1.5688,1.6117,1.6479,1.7565,1.8204,1.8204,1.9233,1.9798,1.9798,1.9798,1.9798,0.0,0.0,0.0,0.0,0.0,0.0,0.0,0.0,0.0,0.0,0.0,2.1467,2.2169,2.2495,2.3746,2.5342,2.4908,2.5398,2.6375,2.6798,2.6956,2.7021,2.7461,2.76,2.7645,2.7931,2.8081,2.8366,2.9324,0.0,0.0,0.0,0.0,0.0,3.1511,0.0,0.0,3.1511,3.1511,3.1615,3.1989,3.2303,3.2736,3.3514,3.4113,3.4622,3.5011,3.5325,3.5639,3.6028,3.6312,3.6626,3.6985,3.7584,3.7973,3.7973,3.8601,3.899,3.899,3.9242,3.9406,3.9406,3.9406,3.9406,3.9406,3.9406,3.9406,3.9406,3.9406,3.9406,3.9406,3.9406,3.9406,3.9406,3.9406,3.9616,3.9975,3.9975,4.0367,4.1014,4.1403,4.1942,4.2551,4.2821,4.2925,4.297,4.322,4.329,4.329,0.0,0.0,0.0,1.2952,1.2974,1.2981,1.303,1.303,1.301,0.0,0.0,0.0,0.0,0.0,0.0,0.0,1.5777,1.6423,1.65,1.7565,1.8204,1.8204,1.9233,1.9798,1.9798,1.9798,1.9798,0.0,0.0,0.0,0.0,0.0,0.0,0.0,0.0,0.0,0.0,2.1268,2.1532,2.1683,2.2681,2.3974,2.5287,2.537,2.6215,2.7382,2.7534,2.7645,2.772,2.7794,2.7824,2.7914,2.844,2.8246,2.8064,2.9262,2.9638,0.0,0.0,0.0,0.0,3.1511,3.1511,0.0,3.1511,3.1511,3.1511,3.1511,3.1974,3.2407,3.2482,3.3469,3.4293,3.4384,3.4952,3.5415,3.5489,3.6013,3.6389,3.6389,3.6926,3.73,3.73,3.7898,3.8305,3.8305,3.8916,3.9316,3.9406,3.9406,3.9406,3.9406,3.9406,3.9406,3.9406,3.9406,3.9406,3.9406,3.9406,3.9406,3.9406,3.9406,3.9406,3.9406,3.9406,3.9735,4.0292,4.0292,4.0726,4.1463,4.2066,4.2291,4.2346,4.2876,4.3145,4.3205,0.0,0.0,1.3001,1.333,1.3376,1.3483,1.3825,1.386,0.0,0.0,0.0,0.0,0.0,0.0,0.0,0.0,1.5632,1.5986,1.6466,1.7565,1.8204,1.8204,1.9233,1.9798,1.9798,1.9798,1.9798,0.0,0.0,0.0,0.0,0.0,0.0,0.0,0.0,0.0,0.0,2.1268,2.1744,2.2209,2.2844,2.3664,2.4581,2.5161,2.5577,2.5986,2.7176,2.7959,2.85,2.9024,2.9204,2.9142,2.8727,2.8876,2.9262,2.9518,2.9939,3.0507,3.1286,3.1511,3.1511,3.1511,3.1511,0.0,3.1511,3.1511,3.1511,3.1511,3.16,3.1854,3.2407,3.2706,3.3066,3.3604,3.4263,3.4892,3.5429,3.5609,3.5699,3.5699,3.6267,3.6688,3.6688,3.7225,3.7599,3.7599,3.8212,3.8841,3.9376,3.9406,3.9406,3.9406,3.9406,3.9406,3.9406,3.9406,3.9406,3.9406,3.9406,3.9406,3.9406,3.9406,3.9406,3.9406,3.9406,3.9466,3.9601,3.9601,4.0307,4.1403,4.1538,4.1598,4.1613,4.1733,4.2107,4.2571,0.0,0.0,1.3561,1.3753,1.3792,1.386,1.4075,1.4091,0.0,0.0,0.0,0.0,0.0,0.0,0.0,0.0,0.0,0.0,0.0,1.8129,1.8606,1.8606,1.9359,1.9798,1.9798,1.9798,1.9798,0.0,0.0,0.0,0.0,0.0,0.0,0.0,0.0,0.0,0.0,2.1394,2.197,2.2719,2.2995,2.3798,2.4894,2.5259,2.6061,2.7093,2.7836,2.853,2.9204,2.9819,2.9847,2.9593,2.9564,2.9564,2.9653,2.9967,3.0253,3.0657,3.1316,3.1768,3.1951,3.1596,3.1782,0.0,0.0,3.1511,3.1511,3.1511,3.1511,3.16,3.1929,3.2273,3.2602,3.2961,3.3559,3.4128,3.4457,3.5085,3.5504,3.5504,3.5804,3.5998,3.5998,3.6582,3.7075,3.7389,3.7719,3.8048,3.8374,3.8718,3.8901,3.8901,3.9227,3.9406,3.9406,3.9406,3.9406,3.9406,3.9406,3.9406,3.9406,3.9406,3.9406,3.9406,3.9406,3.9406,3.9406,3.9406,3.9795,4.0442,4.0771,4.0909,4.0954,4.1283,4.1613,4.1897,1.363,0.0,1.4133,1.4221,1.4231,1.426,1.4338,1.4348,0.0,0.0,0.0,0.0,0.0,0.0,0.0,0.0,0.0,0.0,1.8204,1.8694,1.9008,1.9008,1.9509,1.9798,1.9798,1.9798,1.9798,0.0,0.0,0.0,0.0,0.0,0.0,0.0,0.0,0.0,0.0,0.0,2.2207,2.3108,2.3108,2.3922,2.5155,2.5297,2.6593,2.8386,2.88,2.931,2.9877,3.0478,3.0372,3.0042,3.0387,3.0253,3.0042,3.0387,3.0597,3.0807,3.1346,3.1923,3.2272,3.1824,3.2162,3.2492,0.0,0.0,0.0,3.1893,3.181,3.171,3.171,3.2046,3.2318,3.2318,3.2871,3.3305,3.3305,3.4352,3.516,3.5295,3.5429,3.5504,3.5504,3.5983,3.6552,3.718,3.724,3.7285,3.7404,3.7913,3.8197,3.8197,3.8871,3.9212,3.9212,3.9331,3.9406,3.9406,3.9406,3.9406,3.9406,3.9406,3.9406,3.9406,3.9406,3.9406,3.9406,3.9406,3.9406,3.9451,4.0008,4.0217,4.0277,4.0834,4.1104,4.1209,1.4114,1.4075,0.0,1.4648,1.4717,1.4834,1.5191,1.5249,0.0,0.0,0.0,0.0,1.6188,1.6886,1.7303,1.7303,1.7858,1.8204,1.8204,1.8694,1.9008,1.9008,1.9509,1.9798,1.9798,1.9798,1.9798,1.9798,0.0,0.0,0.0,0.0,0.0,0.0,2.0365,0.0,0.0,2.2008,2.2543,2.3108,2.3108,2.353,2.4218,2.4878,2.606,2.7621,2.9571,3.0328,3.0507,3.1152,3.1346,3.1182,3.0658,3.0867,3.1182,3.0643,3.0927,3.1406,3.1481,3.1553,3.1753,3.2327,3.2532,3.2736,3.3248,0.0,3.3349,3.3349,0.0,3.2479,3.2479,0.0,0.0,3.1615,3.2183,3.2602,3.2602,3.326,3.3964,3.4533,3.513,3.5504,3.5504,3.5579,3.5893,3.6553,3.6613,3.6836,3.7375,3.7462,3.7524,3.7524,3.8153,3.8497,3.8497,3.9092,3.9406,3.9406,3.9406,3.9406,3.9406,3.9406,3.9406,3.9406,3.9406,3.9406,3.9406,3.9406,3.9406,3.9406,3.9481,3.9511,3.9526,3.9601,4.0008,4.0502,1.4537,1.4693,0.0,0.0,1.5146,1.5205,1.5366,1.5396,0.0,0.0,0.0,0.0,1.7646,1.834,1.8746,1.8746,1.8983,1.9133,1.9133,1.9334,0.0,1.9459,1.9685,1.9798,1.9798,1.9798,1.9798,1.9798,1.9798,0.0,0.0,0.0,0.0,0.0,2.0592,2.1168,2.1983,2.2194,2.2621,2.3108,2.3108,2.3662,2.451,2.4931,2.6476,2.8651,3.0437,3.1091,3.1122,3.1406,3.1511,3.1451,3.1167,3.1271,3.1451,3.1152,3.1271,3.1511,3.1511,3.181,3.212,3.1993,3.2285,3.2668,3.2962,3.3013,3.3132,3.3534,0.0,0.0,0.0,0.0,0.0,0.0,3.2377,3.2419,3.1987,3.2497,3.3307,3.4364,3.4754,3.507,3.5474,3.5504,3.5624,3.5893,3.5923,3.6028,3.6266,3.6671,3.6881,3.6881,3.7494,3.7823,3.7823,3.8482,3.8826,3.8826,3.9212,3.9406,3.9406,3.9406,3.9406,3.9406,3.9406,3.9406,3.9406,3.9406,3.9406,3.9406,3.9406,3.9406,3.9406,3.9406,3.9571,3.981,1.4951,0.0,0.0,1.5396,1.5396,1.5435,1.5566,1.5891,1.6285,1.6796,1.7737,1.8552,1.9061,1.98,2.0263,2.0263,2.0263,2.0263,2.0263,2.0263,2.0263,2.0263,2.0263,2.0201,2.005,2.005,1.9974,1.9798,0.0,0.0,0.0,0.0,0.0,0.0,0.0,2.157,2.2307,2.2458,2.2744,2.3105,2.3283,2.4154,2.5419,2.597,2.7429,2.9412,3.0954,3.1511,3.1511,3.1511,3.1511,3.1511,3.1511,3.1511,3.1511,3.1511,3.1511,3.1511,3.1511,3.1895,3.2216,3.1881,3.2202,3.2641,3.2828,3.2868,3.3066,3.3735,3.3722,0.0,0.0,0.0,3.3443,0.0,0.0,3.2612,3.1894,3.2218,3.2893,3.3854,3.4122,3.4488,3.516,3.522,3.5295,3.5489,3.5504,3.5504,3.5504,3.5953,3.6239,3.6239,3.6821,3.715,3.715,3.7793,3.8123,3.8123,3.8631,3.8943,3.914,3.914,3.9227,3.9406,3.9406,3.9406,3.9406,3.9406,3.9406,3.9406,3.9406,3.9406,3.9406,3.9406,3.9406,3.9406,1.5376,1.5386,0.0,1.5396,1.5396,1.5557,1.6007,1.7114,1.7882,1.7764,1.9245,2.0263,2.0165,2.0929,2.1457,2.1457,2.1457,2.1457,2.1457,2.1457,2.1457,2.1457,2.1457,2.1193,2.0679,2.0666,2.039,1.9798,0.0,0.0,0.0,0.0,0.0,0.0,2.202,2.227,2.2332,2.2844,2.3083,2.3158,2.3738,2.5118,2.6985,2.8352,2.8933,2.9226,3.0896,3.1511,3.1511,3.1511,3.1511,3.1511,3.1511,3.1511,3.1511,3.1511,3.1511,3.1511,3.1511,3.1525,3.1711,3.2396,3.2573,3.2776,3.3417,3.3572,3.3761,3.4431,3.405,3.3799,3.4443,3.4037,0.0,0.0,0.0,0.0,0.0,3.2574,3.2576,3.2571,3.3141,3.3799,3.4458,3.4518,3.4802,3.5459,3.5504,3.5504,3.5504,3.5534,3.5518,3.5518,3.6178,3.6538,3.6538,3.7135,3.7417,3.7417,3.7447,3.7808,3.8422,3.8422,3.8796,3.9406,3.9406,3.9406,3.9406,3.9406,3.9406,3.9406,3.9406,3.9406,3.9406,3.9406,3.9406,3.9406,0.0,0.0,0.0,1.5913,1.5855,1.6011,1.6436,1.7349,1.8169,1.8602,1.9685,2.0567,2.1006,2.1314,2.1507,2.1507,2.1507,2.1507,2.1507,2.1507,2.1507,2.1507,2.1507,2.1419,2.1231,2.1218,2.113,2.0929,2.0929,0.0,0.0,0.0,0.0,0.0,0.0,2.2508,2.2844,2.302,2.3333,2.3837,2.5321,2.5975,2.6264,2.8245,2.9364,2.9996,3.1102,3.1511,3.1511,3.1511,3.1511,3.1511,3.1511,3.1511,3.1511,3.1511,3.1511,3.1511,3.1511,3.1511,3.1553,3.181,3.1881,3.2064,3.2774,3.2949,3.3132,3.3799,3.4112,3.4333,3.4552,3.4788,0.0,0.0,0.0,0.0,0.0,3.2882,3.2419,3.1911,3.2818,3.3588,3.3815,3.3844,3.3918,3.4158,3.4592,3.4832,3.4832,3.525,3.5504,3.5504,3.5729,3.5833,3.5833,3.6477,3.6791,3.6823,3.721,3.7524,3.7749,3.7749,3.7868,3.809,3.8556,3.8736,3.8781,3.9212,3.9406,3.9406,3.9406,3.9406,3.9406,3.9406,3.9406,3.9406,1.6314,1.6518,1.6625,1.6357,1.6441,1.6647,1.6908,1.7812,1.8627,1.9115,2.02,2.1115,2.1596,2.1898,2.2071,2.2071,2.2071,2.2071,2.2071,2.2071,2.2071,2.2071,2.2071,2.1983,2.1782,2.1782,2.1681,2.1507,2.1507,2.1608,0.0,0.0,0.0,0.0,0.0,2.2782,2.3105,2.3321,2.3637,2.417,2.6116,2.6855,2.7,2.8774,2.9613,2.9981,3.1102,3.1511,3.1511,3.1511,3.1511,3.1511,3.1511,3.1511,3.1511,3.1511,3.1511,3.1511,3.1511,3.1511,3.1511,3.1511,3.1511,3.1625,3.2106,3.2202,3.2424,3.3106,3.3582,3.3962,3.4198,3.4592,0.0,0.0,0.0,0.0,0.0,3.3013,3.2424,3.1937,3.2414,3.2874,3.3126,3.314,3.3245,3.3484,3.3904,3.4248,3.4503,3.4922,3.525,3.5489,3.5504,3.5504,3.5504,3.5923,3.6133,3.6148,3.6552,3.6851,3.709,3.709,3.721,3.7417,3.7853,3.8033,3.8078,3.8509,3.8823,3.9032,3.9032,3.9182,3.9406,3.9406,3.9406,3.9406,1.6726,1.6746,1.6765,1.6765,1.7122,1.7429,1.7429,1.8539,1.9365,1.9365,2.0878,2.1967,2.1967,2.2644,2.3108,2.3108,2.3108,2.3108,2.3108,2.3108,2.3108,2.3108,2.3108,2.2857,2.2345,2.2332,2.2096,2.1583,2.1583,0.0,0.0,0.0,0.0,0.0,2.3108,2.3108,2.3145,2.3738,2.4029,2.4246,2.62,2.7781,2.905,2.9996,2.9827,2.9286,3.0911,3.1511,3.1511,3.1511,3.1511,3.1511,3.1511,3.1511,3.1511,3.1511,3.1511,3.1511,3.1511,3.1511,3.1511,3.1511,3.1511,3.1511,3.1511,3.1511,3.1711,3.241,3.2573,3.2788,3.343,3.3569,3.3811,0.0,0.0,0.0,3.3559,3.3,3.2602,3.2561,3.1938,3.175,3.2392,3.2452,3.2706,3.335,3.3425,3.3739,3.4384,3.4428,3.4757,3.5429,3.5459,3.5474,3.5504,3.5504,3.5504,3.5504,3.5504,3.5833,3.6449,3.6449,3.6761,3.7315,3.7327,3.736,3.736,3.7404,3.7778,3.8365,3.8365,3.8766,3.9346,3.9391,3.9406,3.9406,1.7217,1.7471,1.7669,1.7669,1.7773,1.7852,1.7852,1.9209,2.0268,2.0268,2.1741,2.2793,2.2793,2.2975,2.3108,2.3108,2.3108,2.3108,2.3108,2.3108,2.3108,2.3108,2.3108,2.3045,2.2895,2.2895,2.2832,2.2681,2.2681,0.0,2.2895,0.0,0.0,0.0,0.0,2.3108,2.3145,2.3738,2.4456,2.5382,2.7581,2.8292,2.8263,3.0389,3.0673,3.0103,3.1117,3.1511,3.1511,3.1511,3.1511,3.1511,3.1511,3.1511,3.1511,3.1511,3.1511,3.1511,3.1511,3.1511,3.1511,3.1511,3.1511,3.1511,3.1511,3.1511,3.1539,3.1739,3.2216,3.2654,3.2828,3.3261,3.3662,0.0,0.0,0.0,3.2935,3.2709,3.2396,3.1853,3.1625,3.157,3.1735,3.1765,3.1824,3.1989,3.2482,3.2826,3.3006,3.3484,3.4069,3.4742,3.4757,3.5012,3.5504,3.5504,3.5504,3.5504,3.5504,3.5594,3.5759,3.5759,3.5848,3.6028,3.6507,3.6731,3.6761,3.7225,3.7509,3.7659,3.7659,3.8063,3.8721,3.9212,3.9406,3.9406,1.7656,1.7998,1.8264,1.8264,1.8792,1.9075,1.864,1.96,2.0643,2.1417,2.2336,2.3161,2.3779,2.3622,2.3499,2.3499,2.3499,2.3371,2.312,2.3108,2.3108,2.3108,2.3108,2.3108,2.3108,2.3108,2.3108,2.3108,2.3108,0.0,2.3108,0.0,0.0,0.0,0.0,2.3246,2.3549,2.4356,2.5201,2.6173,2.8196,2.8716,0.0,3.0284,3.0911,3.0837,3.094,3.1205,3.1511,3.1511,3.1511,3.1511,3.1511,3.1511,3.1511,3.1511,3.1511,3.1511,3.1511,3.1511,3.1511,3.1511,3.1511,3.1511,3.1511,3.1511,3.1511,3.1511,3.1824,3.212,3.212,3.242,3.2678,3.2678,3.2944,3.3026,3.2654,3.26,3.2451,3.2021,3.1979,3.1853,3.1524,3.1511,3.1511,3.1511,3.1854,3.2198,3.2482,3.2856,3.3365,3.4039,3.4338,3.4682,3.5071,3.5355,3.5504,3.5504,3.5504,3.5504,3.5504,3.5504,3.5504,3.5534,3.5893,3.6058,3.6088,3.6432,3.6746,3.703,3.73,3.7629,3.8033,3.8721,3.9137,3.9406,1.8164,1.8449,1.8685,1.8685,1.9869,2.0533,1.9771,2.0151,2.1084,2.2611,2.2886,2.3446,2.4661,2.4377,2.4104,2.4104,2.4104,2.3876,2.3358,2.3321,2.3296,2.3221,2.3221,2.3183,2.3108,2.3108,2.3108,2.3108,2.3108,0.0,0.0,0.0,0.0,0.0,0.0,0.0,2.4268,2.5197,2.5954,2.6658,2.833,2.8939,2.8955,3.0042,3.0837,3.1263,3.0659,3.0911,3.1511,3.1511,3.1511,3.1511,3.1511,3.1511,3.1511,3.1511,3.1511,3.1511,3.1511,3.1511,3.1511,3.1511,3.1511,3.1511,3.1511,3.1511,3.1511,3.1511,3.1511,3.1511,3.1511,3.1511,3.1511,3.1511,3.2035,3.2465,3.2465,3.2465,3.2465,3.2465,3.2465,0.0,3.1553,3.1511,3.1511,3.1511,3.1511,3.175,3.2347,3.2377,3.2677,3.335,3.3934,3.4278,3.4384,3.5026,3.537,3.537,3.5459,3.5504,3.5504,3.5504,3.5504,3.5504,3.5504,3.5504,3.5504,3.5504,3.5833,3.6434,3.7045,3.7268,3.736,3.8018,3.8691,3.9272,1.8994,1.9121,1.918,1.918,2.0073,2.0955,2.1453,2.2308,2.301,2.3321,2.3986,2.453,2.4775,2.4729,2.4653,2.4653,2.4653,2.4616,2.4499,2.4499,2.4302,2.3866,2.3841,2.3612,2.3108,2.3108,2.3108,2.3108,2.3108,2.3108,0.0,0.0,0.0,0.0,0.0,0.0,2.5322,2.5523,2.5954,2.6658,2.833,2.8572,2.8182,3.0419,3.097,3.0584,3.1102,3.138,3.1511,3.1511,3.1511,3.1511,3.1511,3.1511,3.1511,3.1511,3.1511,3.1511,3.1511,3.1511,3.1511,3.1511,3.1511,3.1511,3.1511,3.1511,3.1511,3.1511,3.1511,3.1511,3.1511,3.1511,3.1511,3.1511,3.1611,3.1697,3.1697,3.1697,3.1697,3.1697,3.1697,3.164,3.151,3.1511,3.1511,3.1511,3.1511,3.1555,3.1675,3.1675,3.1974,3.2647,3.2781,3.3125,3.3664,3.4338,3.4682,3.4682,3.5235,3.5504,3.5504,3.5504,3.5504,3.5504,3.5504,3.5504,3.5504,3.5504,3.5579,3.5744,3.6387,3.6673,3.6731,3.7345,3.8003,3.8646,1.9266,1.9463,1.9776,2.0307,2.1393,2.2499,2.342,2.4415,2.4938,2.4627,2.4946,2.5335,2.5653,2.541,2.5205,2.5205,2.5205,2.5093,2.4829,2.4804,2.4691,2.4443,2.4402,2.4139,2.3574,2.3574,2.3409,2.3108,2.3108,2.3108,0.0,0.0,0.0,2.36,0.0,2.5121,2.5611,2.5929,2.6235,2.6658,2.833,2.8476,2.7871,2.9551,3.0238,3.0299,3.0238,3.0762,3.1511,3.1511,3.1511,3.1511,3.1511,3.1511,3.1511,3.1511,3.1511,3.1511,3.1511,3.1511,3.1511,3.1511,3.1511,3.1511,3.1511,3.1511,3.1511,3.1511,3.1511,3.1511,3.1511,3.1511,3.1511,3.1511,3.1511,3.1511,3.1511,3.1511,3.1511,3.1511,3.1511,3.1511,3.1511,3.1511,3.1511,3.1511,3.1511,3.1511,3.1511,3.1511,3.1645,3.1974,3.2318,3.2647,3.2976,3.3664,3.3979,3.3994,3.4667,3.4982,3.4997,3.534,3.5504,3.5504,3.5504,3.5504,3.5504,3.5504,3.5504,3.5518,3.5848,3.5983,3.6058,3.6701,3.7135,3.7571,1.9836,2.0122,2.0669,2.1668,2.2941,2.4102,2.488,2.5856,2.6336,2.5854,2.5791,2.5967,2.6449,2.6067,2.5791,2.5791,2.5791,2.5598,2.5197,2.5172,2.5093,2.498,2.4967,2.4716,2.4192,2.4167,2.3938,2.3459,2.3346,2.3283,2.3283,0.0,0.0,2.4217,2.5172,2.5661,2.5829,2.6298,2.6499,2.6624,2.8117,2.8298,2.7819,2.8876,2.969,3.0238,2.9721,3.0374,3.1511,3.1511,3.1511,3.1511,3.1511,3.1511,3.1511,3.1511,3.1511,3.1511,3.1511,3.1511,3.1511,3.1511,3.1511,3.1511,3.1511,3.1511,3.1511,3.1511,3.1511,3.1511,3.1511,3.1511,3.1511,3.1511,3.1511,3.1511,3.1511,3.1511,3.1511,3.1511,3.1511,3.1511,3.1511,3.1511,3.1511,3.1511,3.1511,3.1511,3.1511,3.1511,3.1511,3.1511,3.2004,3.2288,3.2288,3.2961,3.329,3.3305,3.3964,3.4278,3.4308,3.4981,3.5295,3.5295,3.5444,3.5504,3.5504,3.5504,3.5504,3.5504,3.5504,3.5504,3.5564,3.6088,3.6389,3.6643,2.1573,2.1793,2.2114,2.3136,2.4176,2.4898,2.4998,2.5856,2.6474,2.6411,2.6411,2.6436,2.6487,2.6449,2.6411,2.6411,2.6411,2.6386,2.6348,2.6336,2.6109,2.5548,2.5523,2.5272,2.4741,2.4729,2.4704,2.4641,2.4139,2.3916,2.3904,2.3361,2.3684,2.4754,2.5335,2.5904,2.6411,2.6491,2.6499,2.6572,2.7467,2.7769,2.7871,2.9551,3.0238,3.0374,3.1029,3.138,3.1511,3.1511,3.1511,3.1511,3.1511,3.1511,3.1511,3.1511,3.1511,3.1511,3.1511,3.1511,3.1511,3.1511,3.1511,3.1511,3.1511,3.1511,3.1511,3.1511,3.1511,3.1511,3.1511,3.1511,3.1511,3.1511,3.1511,3.1511,3.1511,3.1511,3.1511,3.1511,3.1511,3.1511,3.1511,3.1511,3.1511,3.1511,3.1511,3.1511,3.1511,3.1511,3.1511,3.1511,3.157,3.1585,3.1585,3.2258,3.2587,3.2602,3.3275,3.3589,3.362,3.4293,3.4578,3.4622,3.5235,3.5504,3.5504,3.5504,3.5504,3.5504,3.5504,3.5504,3.5519,3.5579,3.5968,3.6523,2.1943,2.2497,2.322,2.4228,2.4725,2.5211,2.5804,2.6245,2.6499,2.6499,2.6499,2.6499,2.6499,2.6499,2.6499,2.6499,2.6499,2.6499,2.6499,2.6499,2.6386,2.616,2.6147,2.5866,2.5297,2.5285,2.5118,2.4804,2.4591,2.4318,2.4004,2.4089,2.454,2.531,2.5879,2.6273,2.6499,2.6499,2.6499,2.6572,2.7384,2.7703,2.7835,2.9066,2.9843,3.0344,3.0659,3.1087,3.1511,3.1511,3.1511,3.1511,3.1511,3.1511,3.1511,3.1511,3.1511,3.1511,3.1511,3.1511,3.1511,3.1511,3.1511,3.1511,3.1511,3.1511,3.1511,3.1511,3.1511,3.1511,3.1511,3.1511,3.1511,3.1511,3.1511,3.1511,3.1511,3.1511,3.1511,3.1511,3.1511,3.1511,3.1511,3.1511,3.1511,3.1511,3.1511,3.1511,3.1511,3.1511,3.1511,3.1511,3.1511,3.1511,3.1511,3.1765,3.1899,3.1914,3.2572,3.2901,3.2916,3.3589,3.4113,3.4548,3.5205,3.5504,3.5504,3.5504,3.5504,3.5504,3.5504,3.5504,3.5504,3.5504,3.5669,3.5953,2.2776,2.3441,2.4264,2.5264,2.5441,2.5681,2.6383,2.6499,2.6499,2.6499,2.6499,2.6499,2.6499,2.6499,2.6499,2.6499,2.6499,2.6499,2.6499,2.6499,2.6499,2.6499,2.6499,2.6298,2.5866,2.5866,2.5674,2.531,2.5118,2.4829,2.4481,2.487,2.5247,2.5624,2.6235,2.6499,2.6499,2.6499,2.6499,2.6572,2.7384,2.7838,2.8182,2.905,2.9919,3.0644,3.0644,3.1029,3.1511,3.1511,3.1511,3.1511,3.1511,3.1511,3.1511,3.1511,3.1511,3.1511,3.1511,3.1511,3.1511,3.1511,3.1511,3.1511,3.1511,3.1511,3.1511,3.1511,3.1511,3.1511,3.1511,3.1511,3.1511,3.1511,3.1511,3.1511,3.1511,3.1511,3.1511,3.1511,3.1511,3.1511,3.1511,3.1511,3.1511,3.1511,3.1511,3.1511,3.1511,3.1511,3.1511,3.1511,3.1511,3.1511,3.1511,3.1511,3.1511,3.1511,3.1974,3.2213,3.2228,3.2901,3.3559,3.4233,3.4906,3.5205,3.522,3.5429,3.5504,3.5504,3.5504,3.5504,3.5504,3.5504,3.5504,3.5564,2.4582,2.4969,2.53,2.6314,2.6469,2.6499,2.6499,2.6499,2.6499,2.6499,2.6499,2.6499,2.6499,2.6499,2.6499,2.6499,2.6499,2.6499,2.6499,2.6499,2.6499,2.6499,2.6499,2.6499,2.6487,2.6487,2.6491,2.6474,2.5879,2.5603,2.5573,2.5586,2.5586,2.5624,2.6235,2.6499,2.6499,2.6499,2.6499,2.6572,2.7384,2.823,2.9081,2.995,3.0777,3.1496,3.1496,3.1496,3.1511,3.1511,3.1511,3.1511,3.1511,3.1511,3.1511,3.1511,3.1511,3.1511,3.1511,3.1511,3.1511,3.1511,3.1511,3.1511,3.1511,3.1511,3.1511,3.1511,3.1511,3.1511,3.1511,3.1511,3.1511,3.1511,3.1511,3.1511,3.1511,3.1511,3.1511,3.1511,3.1511,3.1511,3.1511,3.1511,3.1511,3.1511,3.1511,3.1511,3.1511,3.1511,3.1511,3.1511,3.1511,3.1511,3.1511,3.1511,3.1511,3.1511,3.1511,3.1511,3.154,3.2213,3.2886,3.3544,3.4218,3.4503,3.4563,3.522,3.5504,3.5504,3.5504,3.5504,3.5504,3.5504,3.5504,3.5504,2.488,2.5558,2.6112,2.6435,2.6499,2.6499,2.6499,2.6499,2.6499,2.6499,2.6499,2.6499,2.6499,2.6499,2.6499,2.6499,2.6499,2.6499,2.6499,2.6499,2.6499,2.6499,2.6499,2.6499,2.6499,2.6499,2.6499,2.6499,2.6311,2.6223,2.621,2.5791,2.5816,2.6223,2.6411,2.6499,2.6499,2.6499,2.6499,2.6572,2.7384,2.823,2.9097,2.9965,3.0807,3.1511,3.1511,3.1511,3.1511,3.1511,3.1511,3.1511,3.1511,3.1511,3.1511,3.1511,3.1511,3.1511,3.1511,3.1511,3.1511,3.1511,3.1511,3.1511,3.1511,3.1511,3.1511,3.1511,3.1511,3.1511,3.1511,3.1511,3.1511,3.1511,3.1511,3.1511,3.1511,3.1511,3.1511,3.1511,3.1511,3.1511,3.1511,3.1511,3.1511,3.1511,3.1511,3.1511,3.1511,3.1511,3.1511,3.1511,3.1511,3.1511,3.1511,3.1511,3.1511,3.1511,3.1511,3.1511,3.1525,3.2183,3.2617,3.2856,3.3529,3.4084,3.4518,3.4727,3.5085,3.5504,3.5504,3.5504,3.5504,3.5504,3.5504,3.5504,2.5494,2.606,2.6499,2.6499,2.6499,2.6499,2.6499,2.6499,2.6499,2.6499,2.6499,2.6499,2.6499,2.6499,2.6499,2.6499,2.6499,2.6499,2.6499,2.6499,2.6499,2.6499,2.6499,2.6499,2.6499,2.6499,2.6499,2.6499,2.6499,2.6499,2.6487,2.6105,2.6147,2.6499,2.6499,2.6499,2.6521,2.6816,2.6956,2.7023,2.7838,2.8716,2.9551,3.0087,3.0807,3.1511,3.1511,3.1511,3.1511,3.1511,3.1511,3.1511,3.1511,3.1511,3.1511,3.1511,3.1511,3.1511,3.1511,3.1511,3.1511,3.1511,3.1511,3.1511,3.1511,3.1511,3.1511,3.1511,3.1511,3.1511,3.1511,3.1511,3.1511,3.1511,3.1511,3.1511,3.1511,3.1511,3.1511,3.1511,3.1511,3.1511,3.1511,3.1511,3.1511,3.1511,3.1511,3.1511,3.1511,3.1511,3.1511,3.1511,3.1511,3.1511,3.1511,3.1511,3.1511,3.1511,3.1511,3.1511,3.1511,3.1929,3.2108,3.2168,3.2826,3.3365,3.3799,3.4278,3.4742,3.5145,3.54,3.5504,3.5504,3.5504,3.5504,3.5504,2.6314,2.6499,2.6499,2.6499,2.6499,2.6499,2.6499,2.6499,2.6499,2.6499,2.6499,2.6499,2.6499,2.6499,2.6499,2.6499,2.6499,2.6499,2.6499,2.6499,2.6499,2.6499,2.6499,2.6499,2.6499,2.6499,2.6499,2.6499,2.6499,2.6499,2.6499,2.6499,2.6499,2.6499,2.6499,2.6499,2.6538,2.7351,2.7703,2.7786,2.8716,2.9582,3.0314,3.0359,3.0851,3.1511,3.1511,3.1511,3.1511,3.1511,3.1511,3.1511,3.1511,3.1511,3.1511,3.1511,3.1511,3.1511,3.1511,3.1511,3.1511,3.1511,3.1511,3.1511,3.1511,3.1511,3.1511,3.1511,3.1511,3.1511,3.1511,3.1511,3.1511,3.1511,3.1511,3.1511,3.1511,3.1511,3.1511,3.1511,3.1511,3.1511,3.1511,3.1511,3.1511,3.1511,3.1511,3.1511,3.1511,3.1511,3.1511,3.1511,3.1511,3.1511,3.1511,3.1511,3.1511,3.1511,3.1511,3.1511,3.1511,3.1511,3.1511,3.154,3.2168,3.2482,3.2661,3.386,3.4429,3.4626,3.5222,3.5459,3.5504,3.5504,3.5504,3.5504,2.6452,2.6499,2.6499,2.6499,2.6499,2.6499,2.6499,2.6499,2.6499,2.6499,2.6499,2.6499,2.6499,2.6499,2.6499,2.6499,2.6499,2.6499,2.6499,2.6499,2.6499,2.6499,2.6499,2.6499,2.6499,2.6499,2.6499,2.6499,2.6499,2.6499,2.6499,2.6499,2.6499,2.6499,2.6499,2.6499,2.6538,2.7351,2.7703,2.7835,2.9364,3.0118,3.0374,3.0984,3.1336,3.1511,3.1511,3.1511,3.1511,3.1511,3.1511,3.1511,3.1511,3.1511,3.1511,3.1511,3.1511,3.1511,3.1511,3.1511,3.1511,3.1511,3.1511,3.1511,3.1511,3.1511,3.1511,3.1511,3.1511,3.1511,3.1511,3.1511,3.1511,3.1511,3.1511,3.1511,3.1511,3.1511,3.1511,3.1511,3.1511,3.1511,3.1511,3.1511,3.1511,3.1511,3.1511,3.1511,3.1511,3.1511,3.1511,3.1511,3.1511,3.1511,3.1511,3.1511,3.1511,3.1511,3.1511,3.1511,3.1511,3.1511,3.1511,3.1511,3.1675,3.2324,3.3239,3.3035,3.388,3.5232,3.4873,3.5056,3.5504,3.5504,3.5504,3.5504,2.6401,2.6499,2.6499,2.6499,2.6499,2.6499,2.6499,2.6499,2.6499,2.6499,2.6499,2.6499,2.6499,2.6499,2.6499,2.6499,2.6499,2.6499,2.6499,2.6499,2.6499,2.6499,2.6499,2.6499,2.6499,2.6499,2.6499,2.6499,2.6499,2.6499,2.6516,2.6871,2.685,2.6521,2.73,2.7229,2.6607,2.8214,2.8668,2.8411,2.9766,3.0524,3.0851,3.0925,3.119,3.1511,3.1511,3.1511,3.1511,3.1511,3.1511,3.1511,3.1511,3.1511,3.1511,3.1511,3.1511,3.1511,3.1511,3.1511,3.1511,3.1511,3.1511,3.1511,3.1511,3.1511,3.1511,3.1511,3.1511,3.1511,3.1511,3.1511,3.1511,3.1511,3.1511,3.1511,3.1511,3.1511,3.1511,3.1511,3.1511,3.1511,3.1511,3.1511,3.1511,3.1511,3.1511,3.1511,3.1511,3.1511,3.1511,3.1511,3.1511,3.1511,3.1511,3.1511,3.1511,3.1511,3.1511,3.1511,3.1511,3.1511,3.1511,3.1511,3.1511,3.1906,3.2611,3.2844,3.3824,3.5161,3.541,3.5707,3.6006,3.6006,3.5798,3.5504,2.6297,2.6499,2.6499,2.6499,2.6499,2.6499,2.6499,2.6499,2.6499,2.6499,2.6499,2.6499,2.6499,2.6499,2.6499,2.6499,2.6499,2.6499,2.6499,2.6499,2.6499,2.6499,2.6499,2.6499,2.6499,2.6499,2.6499,2.6499,2.6499,2.6555,2.6696,2.7384,2.7334,2.6748,2.8298,2.8149,2.685,2.927,2.9873,2.927,3.0118,3.0881,3.1423,3.0748,3.0911,3.1511,3.1511,3.1511,3.1511,3.1511,3.1511,3.1511,3.1511,3.1511,3.1511,3.1511,3.1511,3.1511,3.1511,3.1511,3.1511,3.1511,3.1511,3.1511,3.1511,3.1511,3.1511,3.1511,3.1511,3.1511,3.1511,3.1511,3.1511,3.1511,3.1511,3.1511,3.1511,3.1511,3.1511,3.1511,3.1511,3.1511,3.1511,3.1511,3.1511,3.1511,3.1511,3.1511,3.1511,3.1511,3.1511,3.1511,3.1511,3.1511,3.1511,3.1511,3.1511,3.1511,3.1511,3.1511,3.1511,3.1511,3.1511,3.1511,3.1625,3.1725,3.1912,3.305,3.4036,3.4938,3.6094,3.6593,3.6627,3.6736,3.6384,3.5861,2.6297,2.6499,2.6499,2.6499,2.6499,2.6499,2.6499,2.6499,2.6499,2.6499,2.6499,2.6499,2.6499,2.6499,2.6499,2.6499,2.6499,2.6499,2.6499,2.6499,2.6499,2.6499,2.6499,2.6499,2.6499,2.6499,2.6499,2.6499,2.6499,2.685,2.7534,2.7637,2.762,2.7554,2.8556,2.8443,2.7637,2.9504,3.0223,3.0178,3.0999,3.1394,3.1496,3.1365,3.1394,3.1511,3.1511,3.1511,3.1511,3.1511,3.1511,3.1511,3.1511,3.1511,3.1511,3.1511,3.1511,3.1511,3.1511,3.1511,3.1511,3.1511,3.1511,3.1511,3.1511,3.1511,3.1511,3.1511,3.1511,3.1511,3.1511,3.1511,3.1511,3.1511,3.1511,3.1511,3.1511,3.1511,3.1511,3.1511,3.1511,3.1511,3.1511,3.1511,3.1511,3.1511,3.1511,3.1511,3.1511,3.1511,3.1511,3.1511,3.1511,3.1511,3.1511,3.1511,3.1511,3.1511,3.1511,3.1511,3.1511,3.1511,3.1511,3.1524,3.2162,3.2747,3.3287,3.3503,3.433,3.5483,3.5744,3.6189,3.6762,3.738,3.7529,3.7442,2.5494,2.6129,2.6499,2.6499,2.6499,2.6499,2.6499,2.6499,2.6499,2.6499,2.6499,2.6499,2.6499,2.6499,2.6499,2.6499,2.6499,2.6499,2.6499,2.6499,2.6499,2.6499,2.6499,2.6499,2.6499,2.6499,2.6499,2.6499,2.6499,2.6905,2.7703,2.8182,2.8395,2.846,2.9766,2.9613,2.8508,3.0223,3.0688,3.0374,3.119,3.1511,3.1511,3.1511,3.1511,3.1511,3.1511,3.1511,3.1511,3.1511,3.1511,3.1511,3.1511,3.1511,3.1511,3.1511,3.1511,3.1511,3.1511,3.1511,3.1511,3.1511,3.1511,3.1511,3.1511,3.1511,3.1511,3.1511,3.1511,3.1511,3.1511,3.1511,3.1511,3.1511,3.1511,3.1511,3.1511,3.1511,3.1511,3.1511,3.1511,3.1511,3.1511,3.1511,3.1511,3.1511,3.1511,3.1511,3.1511,3.1511,3.1511,3.1511,3.1511,3.1511,3.1511,3.1511,3.1511,3.1511,3.1511,3.1511,3.1511,3.1511,3.1511,3.1539,3.2272,3.279,3.3119,3.3836,3.475,3.5704,3.6125,3.6701,3.7321,3.7676,3.7798,3.7807,2.4808,2.5804,2.6499,2.6499,2.6499,2.6499,2.6499,2.6499,2.6499,2.6499,2.6499,2.6499,2.6499,2.6499,2.6499,2.6499,2.6499,2.6499,2.6499,2.6499,2.6499,2.6499,2.6499,2.6499,2.6499,2.6499,2.6499,2.6499,2.6499,2.7023,2.8019,2.8684,2.9113,2.9364,3.0837,3.0673,2.9395,3.0866,3.1146,3.0629,3.1248,3.1511,3.1511,3.1511,3.1511,3.1511,3.1511,3.1511,3.1511,3.1511,3.1511,3.1511,3.1511,3.1511,3.1511,3.1511,3.1511,3.1511,3.1511,3.1511,3.1511,3.1511,3.1511,3.1511,3.1511,3.1511,3.1511,3.1511,3.1511,3.1511,3.1511,3.1511,3.1511,3.1511,3.1511,3.1511,3.1511,3.1511,3.1511,3.1511,3.1511,3.1511,3.1511,3.1511,3.1511,3.1511,3.1511,3.1511,3.1511,3.1511,3.1511,3.1511,3.1511,3.1511,3.1511,3.1511,3.1511,3.1511,3.1511,3.1582,3.1753,3.1753,3.1838,3.202,3.2745,3.3066,3.3159,3.4333,3.5167,3.5746,3.6508,3.7222,3.7834,3.803,3.8181,3.8332,2.4808,2.5804,2.6499,2.6499,2.6499,2.6499,2.6499,2.6499,2.6499,2.6499,2.6499,2.6499,2.6499,2.6499,2.6499,2.6499,2.6499,2.6499,2.6499,2.6499,2.6499,2.6499,2.6499,2.6499,2.6499,2.6499,2.6499,2.6499,2.6499,2.7317,2.8907,2.8971,2.9426,3.0238,3.1102,3.1029,3.0269,3.1117,3.1467,3.1423,3.1467,3.1511,3.1511,3.1511,3.1511,3.1511,3.1511,3.1511,3.1511,3.1511,3.1511,3.1511,3.1511,3.1511,3.1511,3.1511,3.1511,3.1511,3.1511,3.1511,3.1511,3.1511,3.1511,3.1511,3.1511,3.1511,3.1511,3.1511,3.1511,3.1511,3.1511,3.1511,3.1511,3.1511,3.1511,3.1511,3.1511,3.1511,3.1511,3.1511,3.1511,3.1511,3.1511,3.1511,3.1511,3.1511,3.1511,3.1511,3.1511,3.1511,3.1511,3.1511,3.1511,3.1511,3.1511,3.1511,3.1511,3.1511,3.1511,3.1867,3.252,3.252,3.2868,3.3479,3.4161,3.4455,3.4503,3.523,3.556,3.5678,3.6502,3.7256,3.7974,3.8661,3.9328,3.9927,2.3872,2.4886,2.5769,2.6383,2.6499,2.6499,2.6499,2.6499,2.6499,2.6499,2.6499,2.6499,2.6499,2.6499,2.6499,2.6499,2.6499,2.6499,2.6499,2.6499,2.6499,2.6499,2.6499,2.6499,2.6499,2.6499,2.6499,2.6499,2.6499,2.7351,2.9002,2.9002,2.9721,3.1058,3.1365,3.1336,3.1058,3.138,3.1511,3.1511,3.1511,3.1511,3.1511,3.1511,3.1511,3.1511,3.1511,3.1511,3.1511,3.1511,3.1511,3.1511,3.1511,3.1511,3.1511,3.1511,3.1511,3.1511,3.1511,3.1511,3.1511,3.1511,3.1511,3.1511,3.1511,3.1511,3.1511,3.1511,3.1511,3.1511,3.1511,3.1511,3.1511,3.1511,3.1511,3.1511,3.1511,3.1511,3.1511,3.1511,3.1511,3.1511,3.1511,3.1511,3.1511,3.1511,3.1511,3.1511,3.1511,3.1511,3.1511,3.1511,3.1511,3.1511,3.1511,3.1511,3.1725,3.2174,3.2174,3.2559,3.3209,3.3209,3.3365,3.3633,3.4309,3.46,3.4652,3.5328,3.56,3.5633,3.5932,3.6535,3.7308,3.8041,3.8768,3.9474,2.2888,2.3836,2.485,2.5856,2.6025,2.6129,2.6448,2.6499,2.6499,2.6499,2.6499,2.6499,2.6499,2.6499,2.6499,2.6499,2.6499,2.6499,2.6499,2.6499,2.6499,2.6499,2.6499,2.6499,2.6499,2.6499,2.6499,2.6499,2.6499,2.7229,2.8604,2.8876,2.9766,3.1117,3.1394,3.1511,3.1511,3.1511,3.1511,3.1511,3.1511,3.1511,3.1511,3.1511,3.1511,3.1511,3.1511,3.1511,3.1511,3.1511,3.1511,3.1511,3.1511,3.1511,3.1511,3.1511,3.1511,3.1511,3.1511,3.1511,3.1511,3.1511,3.1511,3.1511,3.1511,3.1511,3.1511,3.1511,3.1511,3.1511,3.1511,3.1511,3.1511,3.1511,3.1511,3.1511,3.1511,3.1511,3.1511,3.1511,3.1511,3.1511,3.1511,3.1511,3.1511,3.1511,3.1511,3.1511,3.1511,3.1511,3.1511,3.1511,3.1511,3.1511,3.1511,3.1511,3.1867,3.26,3.26,3.3053,3.3912,3.3912,3.4025,3.4252,3.4712,3.4918,3.4941,3.5407,3.56,3.56,3.56,3.6084,3.6863,3.7376,3.8159,3.9068,2.1989,2.2813,2.38,2.4797,2.4987,2.5335,2.6332,2.6487,2.6499,2.6499,2.6499,2.6499,2.6499,2.6499,2.6499,2.6499,2.6499,2.6499,2.6499,2.6499,2.6499,2.6499,2.6499,2.6499,2.6499,2.6499,2.6499,2.6499,2.6499,2.6905,2.772,2.8588,2.9473,3.0344,3.1146,3.1511,3.1511,3.1511,3.1511,3.1511,3.1511,3.1511,3.1511,3.1511,3.1511,3.1511,3.1511,3.1511,3.1511,3.1511,3.1511,3.1511,3.1511,3.1511,3.1511,3.1511,3.1511,3.1511,3.1511,3.1511,3.1511,3.1511,3.1511,3.1511,3.1511,3.1511,3.1511,3.1511,3.1511,3.1511,3.1511,3.1511,3.1511,3.1511,3.1511,3.1511,3.1511,3.1511,3.1511,3.1511,3.1511,3.1511,3.1511,3.1511,3.1511,3.1511,3.1511,3.1511,3.1511,3.1511,3.1511,3.1511,3.1511,3.1511,3.1511,3.1511,3.1867,3.26,3.2615,3.33,3.46,3.46,3.4965,3.56,3.56,3.56,3.56,3.56,3.56,3.56,3.56,3.6096,3.6795,3.6795,3.7731,3.8983,2.1868,2.2234,2.2758,2.3781,2.4528,2.5105,2.5406,2.606,2.6499,2.6499,2.6499,2.6499,2.6499,2.6499,2.6499,2.6499,2.6499,2.6499,2.6499,2.6499,2.6499,2.6499,2.6499,2.6499,2.6499,2.6499,2.6499,2.6499,2.6499,2.6905,2.772,2.8588,2.9473,3.0344,3.1146,3.1511,3.1511,3.1511,3.1511,3.1511,3.1511,3.1511,3.1511,3.1511,3.1511,3.1511,3.1511,3.1511,3.1511,3.1511,3.1511,3.1511,3.1511,3.1511,3.1511,3.1511,3.1511,3.1511,3.1511,3.1511,3.1511,3.1511,3.1511,3.1511,3.1511,3.1511,3.1511,3.1511,3.1511,3.1511,3.1511,3.1511,3.1511,3.1511,3.1511,3.1511,3.1511,3.1511,3.1511,3.1511,3.1511,3.1511,3.1511,3.1511,3.1511,3.1511,3.1511,3.1511,3.1511,3.1511,3.174,3.2258,3.1768,3.1739,3.2272,3.1753,3.1867,3.2615,3.3079,3.3761,3.4628,3.5086,3.5407,3.56,3.56,3.56,3.56,3.56,3.56,3.56,3.56,3.5746,3.6028,3.6598,3.7083,3.7596,2.1336,2.1451,2.1764,2.2739,2.3404,2.3945,2.4337,2.5252,2.5921,2.5921,2.625,2.6499,2.6499,2.6499,2.6499,2.6499,2.6499,2.6499,2.6499,2.6499,2.6499,2.6499,2.6499,2.6499,2.6499,2.6499,2.6499,2.6499,2.6499,2.6748,2.7246,2.8443,2.9286,2.9843,3.0999,3.1511,3.1511,3.1511,3.1511,3.1511,3.1511,3.1511,3.1511,3.1511,3.1511,3.1511,3.1511,3.1511,3.1511,3.1511,3.1511,3.1511,3.1511,3.1511,3.1511,3.1511,3.1511,3.1511,3.1511,3.1511,3.1511,3.1511,3.1511,3.1511,3.1511,3.1511,3.1511,3.1511,3.1511,3.1511,3.1511,3.1511,3.1511,3.1511,3.1511,3.1511,3.1511,3.1511,3.1511,3.1511,3.1511,3.1511,3.1511,3.1511,3.1511,3.1511,3.1511,3.1511,3.1511,3.1782,3.2148,3.2602,3.242,3.2544,3.2986,3.2557,3.2557,3.3,3.3404,3.4087,3.5016,3.5424,3.56,3.56,3.56,3.56,3.56,3.56,3.56,3.56,3.56,3.56,3.565,3.6146,3.653,3.6931,2.0605,2.0605,2.0857,2.1726,2.1933,2.2309,2.3239,2.4228,2.4898,2.4998,2.5804,2.6401,2.6499,2.6499,2.6499,2.6499,2.6499,2.6499,2.6499,2.6499,2.6499,2.6499,2.6499,2.6499,2.6499,2.6499,2.6499,2.6499,2.6499,2.6538,2.6641,2.8263,2.905,2.9192,3.0792,3.1511,3.1511,3.1511,3.1511,3.1511,3.1511,3.1511,3.1511,3.1511,3.1511,3.1511,3.1511,3.1511,3.1511,3.1511,3.1511,3.1511,3.1511,3.1511,3.1511,3.1511,3.1511,3.1511,3.1511,3.1511,3.1511,3.1511,3.1511,3.1511,3.1511,3.1511,3.1511,3.1511,3.1511,3.1511,3.1511,3.1511,3.1511,3.1511,3.1511,3.1511,3.1511,3.1511,3.1511,3.1511,3.1511,3.1511,3.1511,3.1511,3.1511,3.1511,3.1511,3.1511,3.1511,3.2203,3.2627,3.2695,3.3274,3.362,3.3684,3.362,3.3595,3.3595,3.3659,3.4337,3.5515,3.5577,3.56,3.56,3.56,3.56,3.56,3.56,3.56,3.56,3.56,3.56,3.56,3.56,3.6062,3.6699,2.0605,2.0605,2.0654,2.0857,2.1517,2.2065,2.2291,2.3184,2.4108,2.4898,2.5194,2.5629,2.6418,2.6499,2.6499,2.6499,2.6499,2.6499,2.6499,2.6499,2.6499,2.6499,2.6499,2.6499,2.6499,2.6499,2.6499,2.6499,2.6499,2.6816,2.7467,2.8508,2.9364,3.0057,3.1058,3.1511,3.1511,3.1511,3.1511,3.1511,3.1511,3.1511,3.1511,3.1511,3.1511,3.1511,3.1511,3.1511,3.1511,3.1511,3.1511,3.1511,3.1511,3.1511,3.1511,3.1511,3.1511,3.1511,3.1511,3.1511,3.1511,3.1511,3.1511,3.1511,3.1511,3.1511,3.1511,3.1511,3.1511,3.1511,3.1511,3.1511,3.1511,3.1511,3.1511,3.1511,3.1511,3.1511,3.1511,3.1511,3.1511,3.1511,3.1511,3.1511,3.1511,3.1511,3.1511,3.1511,3.1511,3.2203,3.2841,3.3365,3.3518,3.3849,3.4382,3.3862,3.3595,3.3608,3.4137,3.4528,3.483,3.5362,3.56,3.56,3.56,3.56,3.56,3.56,3.56,3.56,3.56,3.56,3.56,3.56,3.5701,3.5949,2.0605,2.0605,2.0605,2.0605,2.1011,2.1336,2.1336,2.217,2.298,2.3496,2.4391,2.5211,2.5734,2.6198,2.6499,2.6499,2.6499,2.6499,2.6499,2.6499,2.6499,2.6499,2.6499,2.6499,2.6499,2.6499,2.6499,2.6499,2.6499,2.6905,2.772,2.8588,2.9473,3.0344,3.1146,3.1511,3.1511,3.1511,3.1511,3.1511,3.1511,3.1511,3.1511,3.1511,3.1511,3.1511,3.1511,3.1511,3.1511,3.1511,3.1511,3.1511,3.1511,3.1511,3.1511,3.1511,3.1511,3.1511,3.1511,3.1511,3.1511,3.1511,3.1511,3.1511,3.1511,3.1511,3.1511,3.1511,3.1511,3.1511,3.1511,3.1511,3.1511,3.1511,3.1511,3.1511,3.1511,3.1511,3.1511,3.1511,3.1511,3.1511,3.1511,3.1511,3.1511,3.1511,3.1511,3.1511,3.1511,3.2503,3.3235,3.3582,3.4227,3.4728,3.5075,3.4728,3.4544,3.4544,3.4592,3.4759,3.5086,3.543,3.56,3.56,3.56,3.56,3.56,3.56,3.56,3.56,3.56,3.56,3.56,3.56,3.56,3.565,2.0605,2.0605,2.0605,2.0605,2.0605,2.0605,2.0605,2.126,2.1886,2.2215,2.3551,2.4671,2.5211,2.6008,2.6499,2.6499,2.6499,2.6499,2.6499,2.6499,2.6499,2.6499,2.6499,2.6499,2.6499,2.6499,2.6499,2.6499,2.6499,2.6905,2.772,2.8588,2.9473,3.0344,3.1146,3.1511,3.1511,3.1511,3.1511,3.1511,3.1511,3.1511,3.1511,3.1511,3.1511,3.1511,3.1511,3.1511,3.1511,3.1511,3.1511,3.1511,3.1511,3.1511,3.1511,3.1511,3.1511,3.1511,3.1511,3.1511,3.1511,3.1511,3.1511,3.1511,3.1511,3.1511,3.1511,3.1511,3.1511,3.1511,3.1511,3.1511,3.1511,3.1511,3.1511,3.1511,3.1511,3.1511,3.1511,3.1511,3.1511,3.1511,3.1511,3.1511,3.1511,3.1511,3.1511,3.1511,3.1511,3.2853,3.3595,3.3595,3.4899,3.56,3.56,3.56,3.56,3.56,3.504,3.5063,3.56,3.56,3.56,3.56,3.56,3.56,3.56,3.56,3.56,3.56,3.56,3.56,3.56,3.56,3.56,3.56,2.0605,2.0605,2.0605,2.0605,2.0605,2.0605,2.0605,2.0712,2.1394,2.3073,2.2776,2.3404,2.6013,2.6418,2.6499,2.6499,2.6499,2.6499,2.6499,2.6499,2.6499,2.6499,2.6499,2.6499,2.6499,2.6499,2.6499,2.6499,2.6499,2.6905,2.772,2.8588,2.9473,3.0344,3.1146,3.1511,3.1511,3.1511,3.1511,3.1511,3.1511,3.1511,3.1511,3.1511,3.1511,3.1511,3.1511,3.1511,3.1511,3.1511,3.1511,3.1511,3.1511,3.1511,3.1511,3.1511,3.1511,3.1511,3.1511,3.1511,3.1511,3.1511,3.1511,3.1511,3.1511,3.1511,3.1511,3.1511,3.1511,3.1511,3.1511,3.1511,3.1511,3.1511,3.1511,3.1511,3.1511,3.1511,3.1511,3.1511,3.1511,3.1511,3.1511,3.1511,3.1511,3.1511,3.1511,3.1511,3.1511,3.2853,3.3595,3.3595,3.4899,3.56,3.56,3.56,3.56,3.56,3.5504,3.5515,3.56,3.56,3.56,3.56,3.56,3.56,3.56,3.56,3.56,3.56,3.56,3.56,3.56,3.56,3.56,3.56,2.0605,2.0605,2.0605,2.0605,2.0605,2.0605,2.0605,2.1039,2.1688,2.2553,2.3257,2.3963,2.4749,2.5323,2.5652,2.5652,2.6193,2.6499,2.6499,2.6499,2.6499,2.6499,2.6499,2.6499,2.6499,2.6499,2.6499,2.6499,2.6499,2.6905,2.7703,2.8084,2.9002,3.0314,3.0659,3.1073,3.1511,3.1511,3.1511,3.1511,3.1511,3.1511,3.1511,3.1511,3.1511,3.1511,3.1511,3.1511,3.1511,3.1511,3.1511,3.1511,3.1511,3.1511,3.1511,3.1511,3.1511,3.1511,3.1511,3.1511,3.1511,3.1511,3.1511,3.1511,3.1511,3.1511,3.1511,3.1511,3.1511,3.1511,3.1511,3.1511,3.1511,3.1511,3.1511,3.1511,3.1511,3.1511,3.1511,3.1511,3.1511,3.1511,3.1511,3.1881,3.2104,3.2104,3.2104,3.2104,3.2104,3.305,3.3595,3.3595,3.4899,3.56,3.56,3.56,3.56,3.56,3.56,3.56,3.56,3.56,3.56,3.56,3.56,3.56,3.56,3.56,3.56,3.56,3.56,3.56,3.56,3.56,3.56,3.56]},{"header":{"parameterUnit":"m.s-1","parameterCategory":1,"la1":30.6,"la2":28.766,"lo1":-90.7593,"lo2":-88.6598,"dy":0.0162,"dx":0.0183,"nx":116,"ny":114,"refTime":"2023-09-09T12:00:00:Z","depth":0,"parameterNumber":3,"parameterNumberName":"V-component_of_WINDS"},"data":[0.0,0.0,0.0,0.0,0.0,0.0,0.0,0.0,0.0,0.0,0.0,0.0,0.0,0.0,0.0,0.0,0.0,0.0,0.0,0.0,0.0,0.0,0.0,0.0,0.0,0.0,0.0,0.0,0.0,0.0,0.0,0.0,0.0,0.0,0.0,0.0,0.0,0.0,0.0,0.0,0.0,0.0,0.0,0.0,0.0,0.0,0.0,0.0,0.0,0.0,0.0,0.0,0.0,0.0,0.0,0.0,0.0,0.0,0.0,0.0,0.0,0.0,0.0,0.0,0.0,0.0,0.0,0.0,0.0,0.0,0.0,0.0,0.0,0.0,0.0,0.0,0.0,0.0,0.0,0.0,0.0,0.0,0.0,0.0,0.0,0.0,0.0,0.0,0.0,0.0,0.0,0.0,0.0,0.0,0.0,0.0,0.0,0.0,0.0,0.0,0.0,0.0,0.0,0.0,0.0,0.0,0.0,0.0,0.0,0.0,0.0,0.0,0.0,0.0,0.0,0.0,0.0,0.0,0.0,0.0,0.0,0.0,0.0,0.0,0.0,0.0,0.0,0.0,0.0,0.0,0.0,0.0,0.0,0.0,0.0,0.0,0.0,0.0,0.0,0.0,0.0,0.0,0.0,0.0,0.0,0.0,0.0,0.0,0.0,0.0,0.0,0.0,0.0,0.0,0.0,0.0,0.0,0.0,0.0,0.0,0.0,0.0,0.0,0.0,0.0,0.0,0.0,0.0,0.0,0.0,0.0,0.0,0.0,0.0,0.0,0.0,0.0,0.0,0.0,0.0,0.0,0.0,0.0,0.0,0.0,0.0,0.0,0.0,0.0,0.0,0.0,0.0,0.0,0.0,0.0,0.0,0.0,0.0,0.0,0.0,0.0,0.0,0.0,0.0,0.0,0.0,0.0,0.0,0.0,0.0,0.0,0.0,0.0,0.0,0.0,0.0,0.0,0.0,0.0,0.0,0.0,0.0,0.0,0.0,0.0,0.0,0.0,0.0,0.0,0.0,0.0,0.0,0.0,0.0,0.0,0.0,0.0,0.0,0.0,0.0,0.0,0.0,0.0,0.0,0.0,0.0,0.0,0.0,0.0,0.0,0.0,0.0,0.0,0.0,0.0,0.0,0.0,0.0,0.0,0.0,0.0,0.0,0.0,0.0,0.0,0.0,0.0,0.0,0.0,0.0,0.0,0.0,0.0,0.0,0.0,0.0,0.0,0.0,0.0,0.0,0.0,0.0,0.0,0.0,0.0,0.0,0.0,0.0,0.0,0.0,0.0,0.0,0.0,0.0,0.0,0.0,0.0,0.0,0.0,0.0,0.0,0.0,0.0,0.0,0.0,0.0,0.0,0.0,0.0,0.0,0.0,0.0,0.0,0.0,0.0,0.0,0.0,0.0,0.0,0.0,0.0,0.0,0.0,0.0,0.0,0.0,0.0,0.0,0.0,0.0,0.0,0.0,0.0,0.0,0.0,0.0,0.0,0.0,0.0,0.0,0.0,0.0,0.0,0.0,0.0,0.0,0.0,0.0,0.0,0.0,0.0,0.0,0.0,0.0,0.0,0.0,0.0,0.0,0.0,0.0,0.0,0.0,0.0,0.0,0.0,0.0,0.0,0.0,0.0,0.0,0.0,0.0,0.0,0.0,0.0,0.0,0.0,0.0,0.0,0.0,0.0,0.0,0.0,0.0,0.0,0.0,0.0,0.0,0.0,0.0,0.0,0.0,0.0,0.0,0.0,0.0,0.0,0.0,0.0,0.0,0.0,0.0,0.0,0.0,0.0,0.0,0.0,0.0,0.0,0.0,0.0,0.0,0.0,0.0,0.0,0.0,0.0,0.0,0.0,0.0,0.0,0.0,0.0,0.0,0.0,0.0,0.0,0.0,0.0,0.0,0.0,0.0,0.0,0.0,0.0,0.0,0.0,0.0,0.0,0.0,0.0,0.0,0.0,0.0,0.0,0.0,0.0,0.0,0.0,0.0,0.0,0.0,0.0,0.0,0.0,0.0,0.0,0.0,0.0,0.0,0.0,0.0,0.0,0.0,0.0,0.0,0.0,0.0,0.0,0.0,0.0,0.0,0.0,0.0,0.0,0.0,0.0,0.0,0.0,0.0,0.0,0.0,0.0,0.0,0.0,0.0,0.0,0.0,0.0,0.0,0.0,0.0,0.0,0.0,0.0,0.0,0.0,0.0,0.0,0.0,0.0,0.0,0.0,0.0,0.0,0.0,0.0,0.0,0.0,0.0,0.0,0.0,0.0,0.0,0.0,0.0,0.0,0.0,0.0,0.0,0.0,0.0,0.0,0.0,0.0,0.0,0.0,0.0,0.0,0.0,0.0,0.0,0.0,0.0,0.0,0.0,0.0,0.0,0.0,0.0,0.0,0.0,0.0,0.0,0.0,0.0,0.0,0.0,0.0,0.0,0.0,0.0,0.0,0.0,0.0,0.0,0.0,0.0,0.0,0.0,0.0,0.0,0.0,0.0,0.0,0.0,0.0,0.0,0.0,0.0,0.0,0.0,0.0,0.0,0.0,0.0,0.0,0.0,0.0,0.0,0.0,0.0,0.0,0.0,0.0,0.0,0.0,0.0,0.0,0.0,0.0,0.0,0.0,0.0,0.0,0.0,0.0,0.0,0.0,0.0,0.0,0.0,0.0,0.0,0.0,0.0,0.0,0.0,0.0,0.0,0.0,0.0,0.0,0.0,0.0,0.0,0.0,0.0,0.0,0.0,0.0,0.0,0.0,0.0,0.0,0.0,0.0,0.0,0.0,0.0,0.0,0.0,0.0,0.0,0.0,0.0,0.0,0.0,0.0,0.0,0.0,0.0,0.0,0.0,0.0,0.0,0.0,0.0,0.0,0.0,0.0,0.0,0.0,0.0,0.0,0.0,0.0,0.0,0.0,0.0,0.0,0.0,0.0,0.0,0.0,0.0,0.0,0.0,0.0,0.0,0.0,0.0,0.0,0.0,0.0,0.0,0.0,0.0,0.0,0.0,0.0,0.0,0.0,0.0,0.0,0.0,0.0,0.0,0.0,0.0,0.0,0.0,0.0,0.0,0.0,0.0,0.0,0.0,0.0,0.0,0.0,0.0,0.0,0.0,0.0,0.0,0.0,0.0,0.0,0.0,0.0,0.0,0.0,0.0,0.0,0.0,0.0,0.0,0.0,0.0,0.0,0.0,0.0,0.0,0.0,0.0,0.0,0.0,0.0,0.0,0.0,0.0,0.0,0.0,0.0,0.0,0.0,0.0,0.0,0.0,0.0,0.0,0.0,0.0,0.0,0.0,0.0,0.0,0.0,0.0,0.0,0.0,0.0,0.0,0.0,0.0,0.0,0.0,0.0,0.0,0.0,0.0,0.0,0.0,0.0,0.0,0.0,0.0,0.0,0.0,0.0,0.0,0.0,0.0,0.0,0.0,0.0,0.0,0.0,0.0,0.0,0.0,0.0,0.0,0.0,0.0,0.0,0.0,0.0,0.0,0.0,0.0,0.0,0.0,0.0,0.0,0.0,0.0,0.0,0.0,0.0,0.0,0.0,0.0,0.0,0.0,0.0,0.0,0.0,0.0,0.0,0.0,0.0,0.0,0.0,0.0,0.0,0.0,0.0,0.0,0.0,0.0,0.0,0.0,0.0,0.0,0.0,0.0,0.0,0.0,0.0,0.0,0.0,0.0,0.0,0.0,0.0,0.0,0.0,0.0,0.0,0.0,0.0,0.0,0.0,0.0,0.0,0.0,0.0,0.0,0.0,0.0,0.0,0.0,0.0,0.0,0.0,0.0,0.0,0.0,0.0,0.0,0.0,0.0,0.0,0.0,0.0,0.0,0.0,0.0,0.0,0.0,0.0,0.0,0.0,0.0,0.0,0.0,0.0,0.0,0.0,0.0,0.0,0.0,0.0,0.0,0.0,0.0,0.0,0.0,0.0,0.0,0.0,0.0,0.0,0.0,0.0,0.0,0.0,0.0,0.0,0.0,0.0,0.0,0.0,0.0,0.0,0.0,0.0,0.0,0.0,0.0,0.0,0.0,0.0,0.0,0.0,0.0,0.0,0.0,0.0,0.0,0.0,0.0,0.0,0.0,0.0,0.0,0.0,0.0,0.0,0.0,0.0,0.0,0.0,0.0,0.0,0.0,0.0,0.0,0.0,0.0,0.0,0.0,0.0,0.0,0.0,0.0,0.0,0.0,0.0,0.0,0.0,0.0,0.0,0.0,0.0,0.0,0.0,0.0,0.0,0.0,0.0,0.0,0.0,0.0,0.0,0.0,0.0,0.0,0.0,0.0,0.0,0.0,0.0,0.0,0.0,0.0,0.0,0.0,0.0,0.0,0.0,0.0,0.0,0.0,0.0,0.0,0.0,0.0,0.0,0.0,0.0,0.0,0.0,0.0,0.0,0.0,0.0,0.0,0.0,0.0,0.0,0.0,0.0,0.0,0.0,0.0,0.0,0.0,0.0,0.0,0.0,0.0,0.0,0.0,0.0,0.0,0.0,0.0,0.0,0.0,0.0,0.0,0.0,0.0,0.0,0.0,0.0,0.0,0.0,0.0,0.0,0.0,0.0,0.0,0.0,0.0,0.0,0.0,0.0,0.0,0.0,0.0,0.0,0.0,0.0,0.0,0.0,0.0,0.0,0.0,0.0,0.0,0.0,0.0,0.0,0.0,0.0,0.0,0.0,0.0,0.0,0.0,0.0,0.0,0.0,0.0,0.0,0.0,0.0,0.0,0.0,0.0,0.0,0.0,0.0,0.0,0.0,0.0,0.0,0.0,0.0,0.0,0.0,0.0,0.0,0.0,0.0,0.0,0.0,0.0,0.0,0.0,0.0,0.0,0.0,0.0,0.0,0.0,0.0,0.0,0.0,0.0,0.0,0.0,0.0,0.0,0.0,0.0,0.0,0.0,0.0,0.0,0.0,0.0,0.0,0.0,0.0,0.0,0.0,0.0,0.0,0.0,0.0,0.0,0.0,0.0,0.0,0.0,0.0,0.0,0.0,0.0,0.0,0.0,0.0,0.0,0.0,0.0,0.0,0.0,0.0,0.0,0.0,0.0,0.0,0.0,0.0,0.0,0.0,0.0,0.0,0.0,0.0,0.0,0.0,0.0,0.0,0.0,0.0,0.0,0.0,0.0,0.0,0.0,0.0,0.0,0.0,0.0,0.0,0.0,0.0,0.0,0.0,0.0,0.0,0.0,0.0,0.0,0.0,0.0,0.0,0.0,0.0,0.0,0.0,0.0,0.0,0.0,0.0,0.0,0.0,0.0,0.0,0.0,0.0,0.0,0.0,0.0,0.0,0.0,0.0,0.0,0.0,0.0,0.0,0.0,0.0,0.0,0.0,0.0,0.0,0.0,0.0,0.0,0.0,0.0,0.0,0.0,0.0,0.0,0.0,0.0,0.0,0.0,0.0,0.0,0.0,0.0,0.0,0.0,0.0,0.0,0.0,0.0,0.0,0.0,0.0,0.0,0.0,0.0,0.0,0.0,0.0,0.0,0.0,0.0,0.0,0.0,0.0,0.0,0.0,0.0,0.0,0.0,0.0,0.0,0.0,0.0,0.0,0.0,0.0,0.0,0.0,0.0,0.0,0.0,0.0,0.0,0.0,0.0,0.0,0.0,0.0,0.0,0.0,0.0,0.0,0.0,0.0,0.0,0.0,0.0,0.0,0.0,0.0,0.0,0.0,0.0,0.0,0.0,0.0,0.0,0.0,0.0,0.0,0.0,0.0,0.0,0.0,0.0,0.0,0.0,0.0,0.0,0.0,0.0,0.0,0.0,0.0,0.0,0.0,0.0,0.0,0.0,0.0,0.0,0.0,0.0,0.0,0.0,0.0,0.0,0.0,0.0,0.0,0.0,0.0,0.0,0.0,0.0,0.0,0.0,0.0,0.0,0.0,0.0,0.0,0.0,0.0,0.0,0.0,0.0,0.0,0.0,0.0,0.0,0.0,0.0,0.0,0.0,0.0,0.0,0.0,0.0,0.0,0.0,0.0,0.0,0.0,0.0,0.0,0.0,0.0,0.0,0.0,0.0,0.0,0.0,0.0,0.0,0.0,0.0,0.0,0.0,0.0,0.0,0.0,0.0,2.9159,2.8874,0.0,0.0,0.0,0.0,0.0,0.0,0.0,0.0,0.0,0.0,0.0,0.0,0.0,0.0,0.0,0.0,0.0,0.0,0.0,0.0,0.0,0.0,0.0,0.0,0.0,0.0,0.0,0.0,0.0,0.0,0.0,0.0,0.0,0.0,0.0,0.0,0.0,0.0,0.0,0.0,0.0,0.0,0.0,0.0,0.0,0.0,0.0,0.0,0.0,0.0,0.0,0.0,0.0,0.0,0.0,0.0,0.0,0.0,0.0,0.0,0.0,0.0,0.0,0.0,0.0,0.0,0.0,0.0,0.0,0.0,0.0,0.0,0.0,0.0,0.0,0.0,0.0,0.0,0.0,0.0,0.0,0.0,0.0,0.0,0.0,0.0,0.0,0.0,0.0,0.0,0.0,0.0,0.0,0.0,0.0,0.0,0.0,0.0,0.0,0.0,0.0,0.0,0.0,0.0,0.0,0.0,0.0,0.0,0.0,0.0,0.0,0.0,0.0,0.0,3.0026,2.9398,0.0,0.0,0.0,0.0,0.0,0.0,0.0,0.0,0.0,0.0,0.0,0.0,0.0,0.0,0.0,0.0,0.0,0.0,0.0,0.0,0.0,0.0,0.0,0.0,0.0,0.0,0.0,0.0,0.0,0.0,0.0,0.0,0.0,0.0,0.0,0.0,0.0,0.0,0.0,0.0,0.0,0.0,0.0,0.0,0.0,0.0,0.0,0.0,0.0,0.0,0.0,0.0,0.0,0.0,0.0,0.0,0.0,0.0,0.0,0.0,0.0,0.0,0.0,0.0,0.0,0.0,0.0,0.0,0.0,0.0,0.0,0.0,0.0,0.0,0.0,0.0,0.0,0.0,0.0,0.0,0.0,0.0,0.0,0.0,0.0,0.0,0.0,0.0,0.0,0.0,0.0,0.0,0.0,0.0,0.0,0.0,0.0,0.0,0.0,0.0,0.0,0.0,0.0,0.0,0.0,0.0,0.0,0.0,3.316,3.3335,3.2716,3.344,3.3339,3.2497,3.0838,2.997,2.9758,2.9758,0.0,0.0,0.0,0.0,0.0,0.0,0.0,0.0,0.0,0.0,0.0,0.0,0.0,0.0,0.0,0.0,0.0,0.0,0.0,0.0,0.0,0.0,0.0,0.0,0.0,0.0,0.0,0.0,0.0,0.0,0.0,0.0,0.0,0.0,0.0,0.0,0.0,0.0,2.67,2.67,2.67,2.67,2.67,0.0,0.0,0.0,0.0,0.0,0.0,0.0,0.0,0.0,0.0,0.0,0.0,0.0,0.0,0.0,0.0,0.0,0.0,0.0,0.0,0.0,0.0,0.0,0.0,0.0,0.0,0.0,0.0,0.0,0.0,0.0,0.0,0.0,0.0,0.0,0.0,0.0,0.0,0.0,0.0,0.0,0.0,0.0,3.12,3.12,0.0,0.0,0.0,0.0,0.0,0.0,0.0,0.0,0.0,0.0,0.0,0.0,0.0,3.3727,3.4228,3.3809,3.3786,3.42,3.4371,3.4101,3.3479,3.4149,3.3786,3.2586,3.2319,0.0,3.0372,3.0372,0.0,0.0,0.0,0.0,0.0,0.0,0.0,0.0,0.0,0.0,0.0,0.0,0.0,0.0,0.0,0.0,0.0,0.0,0.0,0.0,0.0,0.0,0.0,0.0,0.0,0.0,0.0,0.0,0.0,0.0,0.0,0.0,0.0,0.0,0.0,0.0,2.67,2.67,2.67,2.67,2.67,2.67,2.67,2.659,2.6358,2.5854,0.0,0.0,0.0,0.0,0.0,0.0,0.0,0.0,0.0,0.0,0.0,0.0,0.0,0.0,0.0,0.0,0.0,0.0,0.0,0.0,0.0,0.0,0.0,0.0,0.0,0.0,0.0,0.0,0.0,0.0,0.0,0.0,0.0,0.0,0.0,0.0,0.0,0.0,0.0,3.1556,3.1809,3.1809,3.2171,3.2442,0.0,0.0,0.0,0.0,0.0,0.0,0.0,0.0,0.0,3.4619,3.4662,3.4818,3.512,3.4867,3.4676,3.46,3.46,3.4248,3.362,3.4297,3.3874,3.2614,3.3,3.2373,3.1062,3.1062,3.0912,3.0673,0.0,0.0,0.0,0.0,3.0673,3.0673,0.0,0.0,0.0,0.0,0.0,0.0,0.0,0.0,0.0,0.0,0.0,0.0,0.0,0.0,0.0,2.67,0.0,0.0,0.0,0.0,0.0,0.0,0.0,0.0,0.0,0.0,0.0,2.67,2.67,2.67,2.67,2.67,2.6801,2.6979,2.6979,2.6818,2.6504,2.6346,2.6284,0.0,0.0,0.0,0.0,0.0,0.0,0.0,0.0,0.0,0.0,0.0,0.0,0.0,0.0,0.0,0.0,0.0,0.0,0.0,0.0,0.0,0.0,0.0,0.0,0.0,0.0,0.0,0.0,0.0,0.0,0.0,0.0,0.0,0.0,0.0,0.0,0.0,0.0,3.2114,3.2571,3.2571,3.3068,3.3396,0.0,0.0,0.0,0.0,0.0,0.0,3.4737,3.4308,3.4524,3.5571,3.543,3.5436,3.56,3.5436,3.5016,3.4346,3.4689,3.4413,3.3606,3.4453,3.4217,3.3125,3.3839,3.3328,3.1989,3.1645,3.1511,3.1511,3.1511,3.1511,3.1511,3.1511,3.1511,3.1511,0.0,0.0,0.0,0.0,0.0,0.0,0.0,0.0,0.0,0.0,0.0,0.0,0.0,0.0,2.67,2.67,2.67,2.67,0.0,0.0,0.0,0.0,0.0,0.0,0.0,0.0,0.0,2.67,2.67,2.67,2.67,2.67,2.7072,2.7739,2.7739,2.7106,2.609,2.6755,2.7043,2.7043,0.0,0.0,0.0,0.0,0.0,0.0,0.0,0.0,0.0,0.0,0.0,0.0,0.0,0.0,0.0,0.0,0.0,0.0,0.0,0.0,0.0,0.0,0.0,0.0,0.0,0.0,0.0,0.0,0.0,0.0,0.0,0.0,0.0,0.0,0.0,0.0,0.0,0.0,0.0,3.3339,3.3379,0.0,0.0,0.0,0.0,3.4449,3.5064,3.5464,3.5532,3.5509,3.5532,3.56,3.4976,3.4953,3.56,3.4965,3.4309,3.3675,3.494,3.4823,3.3558,3.4926,3.513,3.4447,3.5253,3.4765,3.3305,3.2033,3.1511,3.1511,3.1511,3.1511,3.1511,3.1511,3.1511,3.1511,0.0,0.0,0.0,0.0,0.0,0.0,0.0,0.0,0.0,0.0,0.0,0.0,0.0,2.67,2.67,2.67,2.67,2.67,2.67,0.0,0.0,0.0,0.0,0.0,0.0,0.0,2.7663,2.8172,2.8172,2.8172,2.8172,2.8172,2.8324,2.8569,2.8569,2.8336,2.7938,2.8207,2.8324,2.8324,2.8324,2.803,0.0,0.0,0.0,0.0,0.0,0.0,0.0,0.0,0.0,0.0,0.0,0.0,0.0,0.0,0.0,0.0,0.0,0.0,0.0,0.0,0.0,0.0,0.0,0.0,0.0,0.0,0.0,0.0,0.0,0.0,0.0,0.0,0.0,0.0,0.0,0.0,0.0,3.3528,3.3882,0.0,3.4772,3.4666,3.4732,3.5183,3.5057,3.5133,3.5588,3.5636,3.5892,3.6355,3.6596,3.6836,3.7082,3.6836,3.6604,3.6368,3.6847,3.6829,3.6341,3.6853,3.6421,3.5294,3.5571,3.4858,3.3455,3.2976,3.2781,3.2781,3.2781,3.2781,3.2781,3.2781,3.2512,3.2138,0.0,0.0,0.0,0.0,0.0,0.0,0.0,0.0,0.0,0.0,0.0,2.67,2.67,2.67,2.67,2.67,2.67,2.67,2.67,0.0,0.0,0.0,0.0,0.0,0.0,2.8484,2.8467,2.8993,2.8993,2.8993,2.8993,2.8993,2.9128,2.9373,2.9373,2.9508,2.9728,2.9728,2.9593,2.9373,2.9373,2.9077,2.8635,0.0,0.0,0.0,0.0,0.0,0.0,0.0,0.0,0.0,0.0,0.0,0.0,0.0,0.0,0.0,0.0,0.0,0.0,0.0,0.0,0.0,0.0,0.0,0.0,0.0,0.0,0.0,0.0,0.0,0.0,0.0,0.0,0.0,0.0,3.3743,3.4122,3.3896,3.4104,3.4447,3.4887,3.4724,3.4899,3.5571,3.5459,3.5646,3.6332,3.6155,3.6401,3.7149,3.7374,3.7631,3.7893,3.7893,3.7781,3.7524,3.7768,3.7745,3.7527,3.7751,3.7178,3.6019,3.6302,3.5561,3.4204,3.4438,3.4407,3.4128,3.3679,3.3499,3.3499,3.3499,3.3215,3.2841,0.0,0.0,0.0,0.0,0.0,0.0,0.0,0.0,0.0,0.0,2.67,2.67,2.67,2.67,2.67,2.67,2.67,2.6716,2.6733,2.7401,0.0,0.0,0.0,0.0,2.9077,2.9044,2.9044,2.9077,2.9077,2.9077,2.9077,2.9077,2.9457,3.0132,3.0132,3.0521,3.12,3.12,3.0784,3.0132,3.0132,3.0555,3.0961,0.0,0.0,0.0,0.0,0.0,0.0,0.0,0.0,0.0,0.0,0.0,0.0,0.0,0.0,0.0,0.0,0.0,0.0,0.0,0.0,0.0,0.0,0.0,0.0,0.0,0.0,0.0,0.0,0.0,0.0,0.0,0.0,0.0,3.4387,3.3968,3.3836,3.4455,3.3978,3.3617,3.3627,3.4222,3.4902,3.5638,3.6367,3.7081,3.7783,3.7128,3.7094,3.786,3.7207,3.7211,3.7993,3.7993,3.7646,3.6946,3.7567,3.7522,3.6916,3.7564,3.7431,3.6708,3.7519,3.6983,3.5614,3.6352,3.6226,3.5429,3.4083,3.3559,3.3559,3.3559,3.3544,3.3529,0.0,0.0,0.0,0.0,0.0,0.0,0.0,0.0,0.0,0.0,2.67,2.67,2.67,2.67,2.67,2.67,2.67,2.6928,2.7452,0.0,0.0,0.0,0.0,0.0,3.0574,3.0074,3.0057,3.0591,3.0591,3.0591,3.0591,3.0591,3.071,3.0903,3.0903,3.1004,3.12,3.12,3.1072,3.0903,3.0903,3.0761,3.0543,0.0,0.0,0.0,0.0,0.0,0.0,0.0,0.0,0.0,0.0,0.0,0.0,0.0,0.0,0.0,0.0,0.0,0.0,0.0,0.0,0.0,0.0,0.0,0.0,0.0,0.0,0.0,0.0,0.0,0.0,0.0,3.2544,3.2493,3.3691,3.3695,3.3495,3.3198,3.3368,3.3734,3.4271,3.4462,3.4827,3.5567,3.5826,3.6029,3.6223,3.6989,3.7524,3.7748,3.9105,3.991,4.015,4.015,4.0051,3.9841,3.9441,3.9157,3.8978,3.9171,3.8808,3.8102,3.8946,3.8388,3.6948,3.7781,3.7618,3.6761,3.5459,3.4951,3.4951,3.4951,3.4637,3.4158,0.0,0.0,0.0,0.0,0.0,0.0,0.0,0.0,0.0,0.0,2.67,2.67,2.67,2.67,2.67,2.67,2.6979,2.7342,2.7773,0.0,0.0,0.0,0.0,3.032,3.1183,3.0784,3.0768,3.12,3.12,3.12,3.119,3.0938,3.0811,3.0818,3.0566,3.0445,3.0445,3.0445,3.0445,3.0466,3.072,3.0617,3.0303,3.0414,3.0081,2.9563,2.9657,2.9843,3.0081,3.0081,0.0,0.0,0.0,0.0,0.0,0.0,0.0,0.0,0.0,0.0,0.0,0.0,0.0,0.0,0.0,0.0,0.0,0.0,0.0,0.0,0.0,0.0,0.0,0.0,3.2222,3.2304,3.3408,3.3329,3.3097,3.2989,3.3282,3.3667,3.4096,3.4366,3.4918,3.5946,3.6308,3.6749,3.7339,3.7825,3.8237,3.8582,3.95,4.0158,4.0485,4.0502,4.0502,4.0485,4.0023,3.9795,3.9795,3.9795,3.9361,3.8627,3.9141,3.8612,3.7439,3.7951,3.7866,3.7345,0.0,0.0,0.0,0.0,3.6043,3.567,0.0,0.0,0.0,0.0,0.0,0.0,0.0,0.0,0.0,0.0,0.0,2.67,2.67,2.67,2.67,2.67,2.7376,2.7874,0.0,0.0,0.0,3.1166,3.12,3.12,3.12,3.12,3.1251,3.1319,3.1249,3.13,3.1434,3.0819,3.0572,3.0614,3.0015,2.9736,2.9736,2.9658,2.9635,2.968,3.0201,3.0367,3.0251,2.9783,2.9271,2.8721,2.8125,2.8247,2.8685,2.863,0.0,0.0,0.0,0.0,0.0,0.0,0.0,0.0,0.0,0.0,0.0,0.0,0.0,0.0,0.0,0.0,0.0,0.0,0.0,0.0,0.0,0.0,0.0,0.0,3.2544,3.2734,3.3401,3.3046,3.2915,3.3445,3.3576,3.3634,3.3724,3.4318,3.5259,3.6585,3.7289,3.8202,3.9469,3.8916,0.0,0.0,0.0,3.9184,3.9895,3.9895,3.9895,3.9895,3.9801,3.9755,3.9755,3.9755,3.936,3.8695,3.8778,3.8395,3.7629,3.7732,3.77,3.7597,3.7464,3.7387,3.7387,3.7387,3.7387,3.7387,0.0,0.0,0.0,0.0,0.0,0.0,0.0,0.0,0.0,2.67,2.67,2.67,2.67,2.67,2.67,2.67,2.7376,2.8331,0.0,0.0,3.1055,3.119,3.12,3.12,3.12,3.12,3.1488,3.209,3.1551,3.1862,3.2963,3.2287,3.2276,3.2761,3.2122,3.1814,3.178,3.1244,3.1003,3.1031,3.115,3.0826,3.0335,3.0709,3.0787,3.0607,2.9989,2.9859,2.987,2.9395,2.8989,2.8662,2.8662,0.0,0.0,0.0,0.0,0.0,0.0,0.0,0.0,0.0,0.0,0.0,0.0,0.0,0.0,0.0,0.0,0.0,0.0,0.0,0.0,3.2419,3.2511,3.2736,3.3397,3.3846,3.395,3.3562,3.3982,3.4518,3.5055,3.5725,3.6423,3.7176,3.7387,3.7576,3.7851,3.8228,3.8512,3.8669,3.9721,4.0355,4.0522,4.0522,4.0522,4.0522,3.982,0.0,3.9485,3.9485,3.938,3.9272,3.9994,3.9805,3.9074,3.977,3.9664,3.8913,3.7821,3.7387,3.7387,3.7387,3.7387,3.7387,0.0,0.0,0.0,0.0,0.0,0.0,0.0,0.0,0.0,0.0,2.67,2.67,2.67,2.67,2.6852,2.7224,2.8289,0.0,0.0,3.1004,3.12,3.12,3.12,3.1369,3.1742,3.1415,3.161,3.2344,3.2012,3.2038,3.2394,3.2092,3.1952,3.1929,3.1272,3.0992,3.0979,3.0643,3.049,3.0528,3.0829,3.0726,3.0423,3.0723,3.0654,3.0369,3.0061,2.9942,2.9893,2.9608,2.93,2.905,2.905,2.8835,2.8678,0.0,0.0,0.0,0.0,0.0,0.0,0.0,0.0,0.0,0.0,0.0,0.0,0.0,0.0,3.1989,3.1989,0.0,3.2602,3.2961,3.3275,3.3739,3.4412,3.5086,3.5251,3.4577,3.5101,3.576,3.6402,3.6746,3.721,3.7853,3.7898,3.8048,3.8374,3.8721,3.8901,3.8901,3.9647,4.006,4.006,4.006,4.006,4.0028,3.961,3.9406,3.9406,3.9406,3.9406,3.9409,3.9864,3.9793,3.9427,3.9882,3.9776,3.9331,3.8658,3.8389,3.8389,3.8389,3.8389,3.8389,0.0,0.0,0.0,0.0,0.0,0.0,0.0,0.0,0.0,0.0,2.67,2.67,2.67,2.67,2.7063,0.0,0.0,0.0,0.0,3.1025,3.1025,3.1025,3.1025,3.1362,3.2086,3.1467,3.1547,3.2429,3.2285,3.2074,3.1829,3.1755,3.1495,3.1083,3.0464,3.017,3.017,3.0022,2.9982,3.0008,3.0502,3.0683,3.0683,3.0683,3.0387,2.9938,2.982,2.978,2.9766,2.9647,2.9593,2.9593,2.9593,2.9593,2.9623,2.9743,2.9773,0.0,0.0,0.0,0.0,0.0,0.0,0.0,0.0,3.16,3.169,3.169,3.2228,3.2691,3.2691,3.314,3.3529,3.3664,3.4263,3.4937,3.5594,3.6252,3.6507,3.6118,3.6432,3.6911,3.7539,3.7582,3.7868,3.8542,3.8586,3.8841,3.9376,3.9406,3.9406,3.9406,3.9406,3.9406,3.9406,3.9406,3.9406,3.9406,3.9406,3.9406,3.9406,3.9406,3.9406,3.9406,3.9406,3.9406,3.9406,3.9406,3.9406,3.9406,3.9406,3.9406,3.9406,3.9406,3.9406,3.9406,0.0,0.0,0.0,0.0,0.0,0.0,0.0,0.0,0.0,0.0,0.0,0.0,0.0,0.0,0.0,0.0,0.0,0.0,3.0354,3.0404,3.0404,3.0404,3.0404,3.0713,3.1396,3.0802,3.115,3.2483,3.1834,3.2133,3.3345,3.2738,3.2738,3.323,3.2569,3.2261,3.222,3.1571,3.1286,3.1286,3.1357,3.1386,3.1386,3.1386,3.1317,3.1125,3.0592,3.0402,3.0312,2.978,2.9593,2.9593,2.9593,2.9593,2.9698,3.0238,0.0,3.0552,3.1212,3.1391,3.1406,3.1481,3.1553,3.1596,0.0,3.1959,3.2392,3.2392,3.2916,3.338,3.338,3.344,3.3679,3.4278,3.4952,3.5624,3.6299,3.6911,3.7494,3.8003,3.7614,3.7569,3.8212,3.8305,3.8571,3.9227,3.9287,3.9316,3.9406,3.9406,3.9406,3.9406,3.9406,3.9406,3.9406,3.9406,3.9406,3.9406,3.9406,3.9406,3.9406,3.9406,3.9406,3.9406,3.9406,3.9406,3.9406,3.9406,3.9406,3.9406,3.9406,3.9406,3.9406,3.9406,3.9406,3.9406,0.0,0.0,0.0,0.0,0.0,0.0,0.0,0.0,0.0,0.0,0.0,0.0,0.0,0.0,0.0,0.0,0.0,0.0,3.0297,3.0293,3.0145,2.9794,2.9772,3.0279,3.1385,3.0795,3.1156,3.2565,3.2244,3.2182,3.2379,3.2532,3.2518,3.2365,3.2076,3.1951,3.1937,3.164,3.1511,3.1511,3.1511,3.1511,3.1511,3.1511,3.1476,3.1426,3.1171,3.1075,0.0,0.0,3.0702,3.0702,3.0702,3.0702,3.0762,3.1017,3.1091,0.0,3.1421,3.1511,3.1585,3.1974,3.2079,3.2168,3.2572,3.2886,3.308,3.308,3.362,3.4084,3.4084,3.4727,3.5341,3.561,3.6193,3.6851,3.7509,3.7808,3.8227,3.8898,3.8733,3.8673,3.896,3.899,3.9092,3.9376,3.9406,3.9406,3.9406,3.9765,3.9975,3.9975,4.0367,4.0561,4.0561,4.0561,4.0561,4.0561,4.0172,3.9975,3.9978,3.9571,3.9406,3.9406,3.9406,3.9406,3.9406,3.9406,3.9406,3.9406,3.9406,3.9406,3.9406,3.9406,3.9406,3.9406,0.0,0.0,0.0,0.0,0.0,0.0,0.0,0.0,0.0,0.0,0.0,0.0,0.0,0.0,0.0,0.0,0.0,0.0,0.0,2.9892,2.9607,2.9168,2.9146,2.9796,3.1188,3.0592,3.0922,3.2299,3.2299,3.2021,3.151,3.2049,3.2007,3.1511,3.1511,3.1511,3.1511,3.1511,3.1511,3.1511,3.1511,3.1511,3.1511,3.1511,3.1511,3.1511,3.1511,3.1511,0.0,0.0,3.1511,3.1511,3.1511,3.1511,3.1511,3.1511,3.163,3.178,3.178,3.1914,3.2168,3.2647,3.2781,3.2901,3.338,3.3649,3.3784,3.3784,3.4458,3.5042,3.5042,3.5985,3.6746,3.6746,3.727,3.7853,3.8317,3.8556,3.8856,3.9346,3.9406,3.9466,3.966,3.9511,3.9481,3.966,3.9675,3.975,3.9948,4.0412,4.0666,4.0666,4.1149,4.1403,4.1403,4.1403,4.1403,4.1388,4.0905,4.0666,4.0651,3.9975,3.9571,3.9406,3.9406,3.9406,3.9406,3.9406,3.9406,3.9406,3.9406,3.9406,3.9406,3.9406,3.9406,3.9406,0.0,0.0,0.0,0.0,0.0,0.0,0.0,0.0,0.0,0.0,0.0,0.0,0.0,0.0,0.0,0.0,0.0,0.0,0.0,2.8884,2.8547,2.8523,2.8523,2.9159,3.0497,2.9951,3.025,3.1524,3.1524,3.151,3.1511,3.151,3.151,3.1511,3.1511,3.1511,3.1511,3.1511,3.1511,3.1511,3.1511,3.1511,3.1511,3.1511,3.1511,3.1511,3.1511,0.0,0.0,3.1511,3.1511,3.1511,3.1511,3.1511,0.0,3.1511,3.1959,3.2467,3.2467,3.2931,3.344,3.3455,3.3469,3.3469,3.3499,3.3994,3.4458,3.4458,3.5521,3.6449,3.6449,3.6941,3.7357,3.7357,3.7928,3.838,3.8409,3.896,3.9376,3.9406,3.9406,3.9645,4.0307,3.978,3.9675,4.0322,4.0367,4.0651,4.1298,4.1358,4.1373,4.1373,4.1388,4.1403,4.1403,4.1403,4.1403,4.1403,4.1373,4.1373,4.1343,4.0666,4.0023,3.9406,3.9406,3.9406,3.9406,3.9406,3.9406,3.9406,3.9406,3.9406,3.9406,3.9406,3.9406,3.9406,0.0,0.0,0.0,0.0,0.0,0.0,0.0,0.0,0.0,0.0,0.0,0.0,0.0,0.0,0.0,0.0,0.0,0.0,0.0,2.8618,2.8307,2.7919,2.791,2.8321,2.9217,2.9489,3.0012,3.0837,3.1271,3.1511,3.1511,3.1511,3.1511,3.1511,3.1511,3.1511,3.1511,3.1511,3.1511,3.1511,3.1511,3.1511,3.1511,3.1511,3.1511,3.1511,0.0,0.0,0.0,3.1511,3.1511,3.1511,3.1511,3.1511,3.1585,3.2034,3.2632,3.3155,3.3155,3.332,3.3604,3.4054,3.4158,3.4278,3.4726,3.5356,3.5835,3.5835,3.6492,3.7105,3.7105,3.7629,3.8063,3.8063,3.8631,3.9047,3.9047,3.9257,3.9406,3.9406,3.978,4.0157,4.0382,4.0202,4.0337,4.1014,4.1074,4.1164,4.1388,4.1807,4.2066,4.2066,4.2447,4.2651,4.2651,4.2651,4.2651,4.2651,4.2256,4.1841,4.1373,4.0715,4.0277,4.0053,3.9586,3.9406,3.9406,3.9406,3.9406,3.9406,3.9406,3.9406,3.9406,3.9406,3.9406,3.9406,0.0,0.0,0.0,0.0,0.0,0.0,0.0,0.0,0.0,0.0,0.0,0.0,0.0,0.0,0.0,0.0,0.0,0.0,0.0,0.0,2.8005,2.7625,2.76,2.8034,2.8949,2.9383,2.9998,3.0852,3.1286,3.1511,3.1511,3.1511,3.1511,3.1511,3.1511,3.1511,3.1511,3.1511,3.1511,3.1511,3.1511,3.1511,3.1511,3.1511,3.1511,0.0,0.0,0.0,3.1511,3.1511,3.1511,3.1511,3.1511,3.166,3.1989,3.2662,3.3335,3.3859,3.3859,3.4023,3.4322,3.4757,3.4862,3.5042,3.5699,3.6194,3.6568,3.6776,3.7315,3.7764,3.7764,3.8302,3.8751,3.8751,3.9107,3.9406,3.9406,3.9406,3.9496,3.972,4.0142,4.0591,4.1074,4.1119,4.1283,4.1718,4.1747,4.1852,4.2073,4.2496,4.272,4.272,4.31,4.329,4.329,4.329,4.329,4.329,4.291,4.2391,4.1733,4.1313,4.0846,4.0382,3.993,3.9616,3.9406,3.9406,3.9406,3.9406,3.9406,3.9406,3.9406,3.9406,3.9406,3.9406,0.0,0.0,0.0,0.0,0.0,0.0,0.0,0.0,0.0,0.0,0.0,0.0,0.0,0.0,0.0,0.0,0.0,0.0,0.0,0.0,0.0,2.76,2.76,2.8199,2.9458,2.9518,3.0133,3.1346,3.1391,3.1421,3.1451,3.1451,3.1466,3.1511,3.1511,3.1511,3.1511,3.1511,3.1511,3.1511,3.1511,3.1511,3.1511,3.1511,0.0,0.0,0.0,0.0,3.1511,3.1511,3.1511,3.1511,3.1511,3.1974,3.2677,3.3305,3.3994,3.4548,3.4548,3.5027,3.5504,3.5504,3.5534,3.5714,3.6359,3.6553,3.6746,3.7345,3.7973,3.8437,3.8437,3.8975,3.9406,3.9406,3.9406,3.9406,3.9406,3.9436,3.969,4.0322,4.0457,4.1014,4.2276,4.2425,4.2455,4.2455,4.2455,4.2705,4.326,4.329,4.329,4.329,4.329,4.329,4.329,4.329,4.329,4.329,4.329,4.3015,4.2455,4.241,4.1722,4.0502,4.0427,4.0053,3.9451,3.9406,3.9406,3.9406,3.9406,3.9406,3.9406,3.9406,3.9406,3.9406,0.0,0.0,0.0,0.0,0.0,0.0,0.0,0.0,0.0,0.0,0.0,0.0,0.0,0.0,0.0,0.0,0.0,0.0,0.0,0.0,0.0,0.0,0.0,0.0,0.0,0.0,0.0,0.0,2.9834,3.0313,3.0747,3.0747,3.1031,3.1511,3.1511,3.1511,3.1511,3.1511,3.1511,3.1511,0.0,3.1511,3.1511,0.0,0.0,0.0,0.0,0.0,0.0,3.1511,3.1511,3.1511,3.1511,3.2303,3.3275,3.344,3.4322,3.525,3.525,3.537,3.5504,3.5504,3.5878,3.6299,3.6464,3.7242,3.796,3.8108,3.8676,3.9137,3.9137,3.9287,3.9406,3.9406,3.9406,3.9406,3.9406,3.9825,4.0217,4.0382,4.1283,4.2036,4.2366,4.2806,4.307,4.307,4.307,4.3145,4.329,4.329,4.329,4.329,4.329,4.329,4.329,4.329,4.329,4.329,4.329,4.322,4.3055,4.2601,4.2216,4.1822,4.0831,4.0307,4.0113,3.9601,3.9406,3.9406,3.9406,3.9406,3.9406,3.9406,3.9406,3.9406,0.0,0.0,0.0,0.0,0.0,0.0,0.0,0.0,0.0,0.0,0.0,0.0,0.0,0.0,0.0,0.0,0.0,0.0,0.0,0.0,0.0,0.0,0.0,0.0,0.0,0.0,0.0,0.0,0.0,0.0,3.0117,3.0117,3.0313,3.0673,3.0942,3.1062,3.1091,3.1376,0.0,0.0,0.0,0.0,0.0,0.0,0.0,0.0,0.0,0.0,0.0,3.1511,3.1511,3.16,3.2198,3.2886,3.3619,3.4203,3.4921,3.5504,3.5504,3.5504,3.5579,3.5863,3.6207,3.6643,3.7212,3.7901,3.8482,3.8781,3.9155,3.9406,3.9406,3.9406,3.9406,3.9406,3.9406,3.9406,3.9406,3.9993,4.0502,4.0786,4.1747,4.2515,4.2761,4.31,4.329,4.329,4.329,4.329,4.329,4.329,4.329,4.329,4.329,4.329,4.329,4.329,4.329,4.329,4.329,4.329,4.329,4.2955,4.2646,4.2366,4.1598,4.0935,4.0367,3.9989,3.966,3.9406,3.9406,3.9406,3.9406,3.9406,3.9406,3.9406,0.0,0.0,0.0,0.0,0.0,0.0,0.0,0.0,0.0,0.0,0.0,0.0,0.0,0.0,0.0,0.0,0.0,0.0,0.0,0.0,0.0,0.0,0.0,0.0,0.0,0.0,0.0,0.0,0.0,0.0,0.0,0.0,0.0,0.0,0.0,0.0,0.0,0.0,0.0,0.0,0.0,0.0,0.0,0.0,0.0,0.0,0.0,0.0,0.0,0.0,3.1511,3.172,3.2976,3.3425,3.3739,3.4996,3.5429,3.5504,3.5504,3.5504,3.5669,3.6327,3.6568,3.6943,3.814,3.8484,3.8691,3.9272,3.9406,3.9406,3.9406,3.9406,3.9406,3.9406,3.9406,3.9406,3.9406,4.0053,4.0741,4.1328,4.2047,4.2735,4.3265,4.329,4.329,4.329,4.329,4.329,4.329,4.329,4.329,4.329,4.329,4.329,4.329,4.329,4.329,4.329,4.329,4.329,4.329,4.329,4.2995,4.2515,4.2425,4.1733,4.0651,4.0561,4.0142,3.9526,3.9526,3.9481,3.9406,3.9406,3.9406,3.9406,0.0,0.0,0.0,0.0,0.0,0.0,0.0,0.0,0.0,0.0,2.4894,2.4885,0.0,0.0,0.0,0.0,0.0,0.0,0.0,0.0,0.0,0.0,0.0,0.0,0.0,0.0,0.0,0.0,0.0,0.0,0.0,0.0,0.0,0.0,0.0,0.0,0.0,0.0,0.0,0.0,0.0,0.0,0.0,0.0,0.0,0.0,0.0,0.0,0.0,0.0,3.1511,3.1645,3.2422,3.3051,3.3649,3.4443,3.5071,3.5504,3.5504,3.5504,3.5669,3.6327,3.6866,3.7449,3.8212,3.8841,3.9257,3.9376,3.9406,3.9406,3.9406,3.9406,3.9406,3.9406,3.9406,3.9406,3.9406,4.0442,4.1268,4.1388,4.2432,4.319,4.329,4.329,4.329,4.329,4.329,4.329,4.329,4.329,4.329,4.329,4.329,4.329,4.329,4.329,4.329,4.329,4.329,4.329,4.329,4.329,4.325,4.3115,4.2616,4.2276,4.2021,4.1448,4.0831,4.0232,4.0232,3.9903,3.9406,3.9406,3.9406,3.9406,0.0,0.0,0.0,0.0,0.0,0.0,0.0,2.4116,2.3702,2.3938,2.4204,2.4266,2.4012,2.398,0.0,0.0,0.0,0.0,0.0,0.0,0.0,0.0,0.0,0.0,0.0,2.742,2.76,2.76,0.0,2.7764,2.8081,2.8081,2.8246,2.8573,2.8919,0.0,0.0,0.0,0.0,0.0,0.0,0.0,0.0,0.0,0.0,0.0,0.0,0.0,0.0,0.0,3.1511,3.1675,3.2691,3.3245,3.3694,3.4711,3.525,3.5504,3.5504,3.5504,3.5669,3.6327,3.6941,3.7584,3.8242,3.8931,3.9406,3.9406,3.9406,3.9406,3.9406,3.9406,3.9406,3.9406,3.9406,3.9406,3.9406,4.0546,4.1403,4.1403,4.2517,4.329,4.329,4.329,4.329,4.329,4.329,4.329,4.329,4.329,4.329,4.329,4.329,4.329,4.329,4.329,4.329,4.329,4.329,4.329,4.329,4.329,4.329,4.3275,4.3,4.269,4.2381,4.2051,4.1523,4.0905,4.0905,4.0711,4.0442,4.0442,4.0442,4.0442,0.0,0.0,0.0,0.0,0.0,0.0,0.0,2.4116,2.3719,2.3616,2.3595,2.3595,2.3595,2.3595,2.3595,0.0,0.0,0.0,0.0,0.0,0.0,0.0,0.0,0.0,0.0,0.0,0.0,2.739,2.7525,0.0,0.0,0.0,0.0,0.0,2.8156,2.8382,2.844,0.0,0.0,0.0,0.0,3.0507,0.0,0.0,0.0,0.0,0.0,0.0,3.1511,0.0,3.1511,3.1735,3.308,3.3499,3.3754,3.5115,3.5504,3.5504,3.5504,3.5504,3.5669,3.6327,3.6851,3.7389,3.8033,3.8584,3.9017,3.9152,3.9182,3.9227,3.9376,3.9406,3.9406,3.9406,3.9406,3.9406,3.9406,4.0546,4.1403,4.1403,4.2517,4.329,4.329,4.329,4.329,4.329,4.329,4.329,4.329,4.329,4.329,4.329,4.329,4.329,4.329,4.329,4.329,4.329,4.329,4.329,4.329,4.329,4.329,4.329,4.329,4.3025,4.2586,4.2586,4.2211,4.1613,4.1613,4.1523,4.1403,4.1403,4.1403,4.1403,0.0,0.0,0.0,0.0,0.0,0.0,0.0,2.4672,2.4158,2.367,2.3595,2.3595,2.3595,2.3595,2.3595,0.0,0.0,0.0,0.0,0.0,0.0,0.0,0.0,0.0,0.0,0.0,0.0,2.6689,2.73,0.0,0.0,0.0,0.0,0.0,0.0,2.769,2.7735,2.841,0.0,0.0,0.0,0.0,0.0,0.0,0.0,0.0,0.0,3.1511,3.1511,3.1511,3.1511,3.1735,3.308,3.3499,3.3754,3.5115,3.5504,3.5504,3.5504,3.5504,3.5669,3.6327,3.6553,3.6748,3.736,3.7537,3.7764,3.8362,3.8482,3.8676,3.9287,3.9406,3.9406,3.9406,3.9406,3.9406,3.9406,4.0546,4.1403,4.1403,4.2517,4.329,4.329,4.329,4.329,4.329,4.329,4.329,4.329,4.329,4.329,4.329,4.329,4.329,4.329,4.329,4.329,4.329,4.329,4.329,4.329,4.329,4.329,4.329,4.329,4.326,4.322,4.322,4.2865,4.2306,4.2306,4.1946,4.1403,4.1403,4.1403,4.1403,0.0,0.0,0.0,0.0,0.0,0.0,2.5679,2.4943,2.4318,2.4116,2.3805,2.3595,2.3595,2.3595,2.3595,2.3595,0.0,0.0,0.0,0.0,0.0,0.0,0.0,0.0,0.0,0.0,2.6004,2.6004,2.627,0.0,0.0,0.0,0.0,0.0,0.0,2.76,2.7615,2.7872,0.0,0.0,0.0,0.0,0.0,0.0,0.0,0.0,0.0,0.0,3.1511,3.1511,3.1511,3.166,3.2602,3.3185,3.3754,3.5115,3.5504,3.5504,3.5504,3.5504,3.5564,3.5833,3.6193,3.6568,3.6791,3.715,3.7479,3.7749,3.7808,3.8003,3.8676,3.8796,3.8931,3.9331,0.0,3.9159,3.8527,4.0143,4.1164,4.0505,4.2134,4.329,4.329,4.329,4.329,4.329,4.329,4.329,4.329,4.329,4.329,4.329,4.329,4.329,4.329,4.329,4.329,4.329,4.329,4.329,4.329,4.329,4.329,4.329,4.329,4.329,4.329,4.329,4.316,4.294,4.294,4.2791,4.2532,4.2532,4.2532,4.2532,0.0,0.0,0.0,0.0,0.0,2.5753,2.5753,2.5259,2.4762,2.444,2.4074,2.3773,2.3616,2.3595,2.3595,2.3595,2.3595,0.0,0.0,0.0,0.0,0.0,0.0,0.0,0.0,0.0,2.5304,2.5304,2.5498,2.5944,0.0,0.0,2.6958,2.76,0.0,0.0,0.0,0.0,0.0,0.0,0.0,0.0,0.0,0.0,0.0,0.0,0.0,0.0,0.0,0.0,0.0,3.1615,3.2288,0.0,0.0,0.0,3.534,3.5504,3.5504,3.5504,3.5504,3.5504,3.5848,3.6193,3.6193,3.6305,3.6543,3.7039,3.6901,3.7035,3.8192,3.8409,3.8616,0.0,0.0,3.8671,3.7919,3.9305,4.0276,3.9854,4.1279,4.2563,4.323,4.329,4.329,4.329,4.329,4.329,4.329,4.329,4.329,4.329,4.329,4.329,4.329,4.329,4.329,4.329,4.329,4.329,4.329,4.329,4.329,4.329,4.329,4.329,4.329,4.329,4.329,4.329,4.329,4.329,4.329,4.329,4.329,4.329,0.0,0.0,0.0,0.0,0.0,0.0,2.5211,2.5652,2.5605,2.4542,2.44,2.4199,2.3659,2.3595,2.3595,2.3595,2.3595,0.0,0.0,0.0,0.0,0.0,0.0,0.0,0.0,0.0,2.4608,2.4608,2.5262,2.5944,2.6599,2.6599,2.6958,2.76,0.0,0.0,0.0,0.0,0.0,0.0,0.0,0.0,0.0,0.0,0.0,0.0,0.0,0.0,0.0,0.0,0.0,0.0,0.0,0.0,0.0,0.0,3.4982,3.5504,3.5504,3.5504,3.5504,3.5504,3.5504,3.5519,3.5519,3.4739,3.4499,3.6175,3.571,3.5715,3.7983,3.8409,3.8616,3.9287,3.8509,0.0,3.7791,3.7988,3.8543,3.9675,3.9872,4.0824,4.3076,4.329,4.329,4.329,4.329,4.329,4.329,4.329,4.329,4.329,4.329,4.329,4.329,4.329,4.329,4.329,4.329,4.329,4.329,4.329,4.329,4.329,4.329,4.329,4.329,4.329,4.329,4.329,4.329,4.329,4.329,4.329,4.329,4.329,0.0,0.0,0.0,0.0,0.0,0.0,0.0,2.5021,2.4776,2.444,2.4085,2.3784,2.3616,2.3595,2.3595,2.3595,2.3595,0.0,0.0,0.0,0.0,0.0,0.0,0.0,0.0,0.0,2.3924,2.3924,2.4133,2.4807,2.5914,2.5914,2.6524,2.76,2.76,2.76,0.0,0.0,0.0,0.0,0.0,0.0,0.0,0.0,0.0,0.0,0.0,0.0,0.0,0.0,0.0,0.0,0.0,0.0,0.0,3.3021,3.3918,3.469,3.4097,3.471,3.5504,3.5504,3.4986,3.4658,3.5343,3.4725,3.4337,3.5563,3.5558,3.5696,3.6892,3.7434,3.7687,3.7631,3.8344,3.8383,3.691,3.8797,4.0217,3.9834,4.1238,4.2502,4.323,4.329,4.329,4.329,4.329,4.329,4.329,4.329,4.329,4.329,4.329,4.329,4.329,4.329,4.329,4.329,4.329,4.329,4.329,4.329,4.329,4.329,4.329,4.329,4.329,4.329,4.329,4.329,4.329,4.329,4.329,4.329,4.329,4.329,0.0,0.0,0.0,0.0,0.0,0.0,0.0,2.493,2.4627,2.443,2.4116,2.3826,2.3616,2.3595,2.3595,2.3595,2.3595,0.0,0.0,0.0,0.0,0.0,0.0,0.0,0.0,2.3595,2.3595,2.3595,2.3595,2.4283,2.5603,2.5603,2.633,2.76,2.76,2.76,0.0,0.0,0.0,0.0,0.0,0.0,2.9713,0.0,0.0,0.0,0.0,0.0,0.0,0.0,0.0,0.0,0.0,0.0,0.0,0.0,3.2401,3.3691,3.338,3.3713,3.4176,3.4517,3.4301,3.4061,3.4341,3.4194,3.4177,3.4806,3.4937,3.5145,3.5811,3.6429,3.6713,3.6328,3.7359,3.7724,3.6389,3.8469,4.0041,3.9855,4.1902,4.3135,4.2705,4.3056,4.329,4.329,4.329,4.329,4.329,4.329,4.329,4.329,4.329,4.329,4.329,4.329,4.329,4.329,4.329,4.329,4.329,4.329,4.329,4.329,4.329,4.329,0.0,4.329,4.329,4.329,4.329,4.329,4.329,4.329,4.329,4.329,0.0,0.0,0.0,0.0,0.0,0.0,0.0,2.5144,2.4943,2.441,2.4338,2.4158,2.3649,2.3595,2.3595,2.3595,0.0,0.0,0.0,0.0,0.0,0.0,0.0,0.0,0.0,2.3595,2.3595,2.3595,2.3655,2.4332,2.5603,2.5648,2.6363,2.76,2.76,2.76,0.0,0.0,0.0,0.0,0.0,0.0,0.0,0.0,0.0,0.0,0.0,0.0,0.0,0.0,0.0,0.0,0.0,0.0,0.0,0.0,0.0,0.0,0.0,3.2612,3.2001,3.2766,3.3408,3.3634,3.2821,3.33,0.0,3.4078,3.3993,3.4114,3.4808,3.5396,3.5675,3.5285,3.5758,3.6198,3.6198,3.7376,3.8672,3.9877,4.1961,4.286,4.1726,4.2629,4.329,4.329,4.329,4.329,4.329,4.329,4.329,4.329,4.329,4.329,4.329,4.329,4.329,4.329,4.329,4.329,4.329,4.329,4.329,4.329,4.329,4.329,4.329,4.329,4.329,4.329,4.329,4.329,4.329,4.329,4.329,4.329,0.0,0.0,0.0,0.0,0.0,0.0,0.0,0.0,0.0,0.0,2.3784,2.3745,2.3606,2.3595,2.3595,0.0,0.0,0.0,0.0,0.0,0.0,0.0,0.0,0.0,0.0,2.3595,2.3595,2.3595,2.4107,2.4784,2.5603,2.6123,2.6809,2.76,2.76,2.76,2.76,0.0,0.0,0.0,0.0,0.0,0.0,0.0,0.0,0.0,3.1511,3.1511,0.0,0.0,0.0,0.0,0.0,0.0,0.0,0.0,3.0865,3.0981,3.1767,0.0,3.2015,3.1603,3.1918,3.2451,0.0,0.0,0.0,0.0,0.0,3.3196,3.4077,3.4515,3.4458,3.3556,3.498,3.6198,3.6198,3.8738,4.0743,4.1152,4.2447,4.286,4.1726,4.2629,4.329,4.329,4.329,4.329,4.329,4.329,4.329,4.329,4.329,4.329,4.329,4.329,4.329,4.329,4.329,4.329,4.329,4.329,4.329,4.329,4.329,4.329,4.329,4.329,4.329,4.329,4.329,4.329,4.329,4.329,4.329,4.329,0.0,0.0,0.0,0.0,0.0,0.0,0.0,0.0,0.0,0.0,0.0,0.0,0.0,0.0,0.0,0.0,0.0,0.0,0.0,0.0,0.0,0.0,0.0,0.0,2.3595,2.3595,2.3595,2.3595,2.3958,2.4646,2.5603,2.5974,2.6659,2.76,2.76,2.76,2.7615,2.7931,2.7884,0.0,2.8323,0.0,0.0,0.0,0.0,0.0,3.1391,3.1511,0.0,3.1511,3.1248,3.0955,0.0,0.0,0.0,0.0,3.0359,2.9889,3.0733,3.0728,3.0584,3.0942,3.089,3.1055,3.2205,0.0,0.0,0.0,0.0,3.3136,3.2784,3.3642,3.3911,3.2409,3.484,3.7141,3.767,3.8993,4.0305,4.1464,4.1684,4.192,4.233,4.2467,4.2745,4.327,4.329,4.329,4.329,4.329,4.329,4.329,4.329,4.329,4.329,4.329,4.329,4.329,4.329,4.329,4.329,4.329,4.329,4.329,4.329,4.329,4.329,4.329,4.329,4.329,4.329,4.329,4.325,4.2705,4.286,4.3135,0.0,0.0,0.0,0.0,0.0,0.0,0.0,0.0,0.0,0.0,0.0,0.0,0.0,0.0,0.0,0.0,0.0,0.0,0.0,0.0,0.0,0.0,0.0,2.3595,2.3595,2.3595,2.3595,2.3595,2.3699,2.4388,2.5603,2.5693,2.6408,2.76,2.76,2.76,2.763,2.8216,2.8126,0.0,2.8216,0.0,0.0,0.0,0.0,0.0,0.0,0.0,0.0,3.1511,3.1043,3.0479,3.0479,0.0,0.0,0.0,0.0,0.0,3.0253,2.9648,2.9095,3.0436,3.0168,2.9918,3.1178,0.0,0.0,0.0,0.0,3.2989,3.179,3.2877,3.3453,3.199,3.5006,3.7949,3.9067,3.8861,3.9314,4.1231,4.0689,4.093,4.286,4.2173,4.207,4.321,4.329,4.329,4.329,4.329,4.329,4.329,4.3135,4.3036,4.3036,4.321,4.329,4.329,4.329,4.329,4.329,4.329,4.329,4.329,4.329,4.321,4.3036,4.3036,4.2941,4.28,4.2961,4.2921,4.2719,4.2091,4.2249,4.2467,0.0,0.0,0.0,0.0,0.0,0.0,0.0,0.0,0.0,0.0,0.0,0.0,0.0,0.0,0.0,0.0,0.0,0.0,0.0,0.0,0.0,0.0,2.3595,2.3595,2.3595,2.3595,2.3595,2.3595,2.4167,2.4829,2.5603,2.6183,2.6854,2.76,2.76,2.76,2.76,2.7705,2.769,2.76,2.7705,0.0,0.0,0.0,0.0,0.0,0.0,0.0,0.0,3.1511,3.1423,3.1322,3.1322,0.0,0.0,0.0,0.0,0.0,3.1087,3.0672,2.9909,2.9441,2.9628,3.0091,3.0764,3.0881,3.1177,0.0,0.0,3.1021,3.29,3.2485,3.221,3.3254,3.5126,3.6718,3.7475,3.9482,4.0861,4.0749,4.1105,4.1483,4.1829,4.1705,4.207,4.321,4.329,4.329,4.329,4.329,4.329,4.329,4.2351,4.185,4.185,4.2805,4.329,4.329,4.329,4.329,4.329,4.329,4.329,4.329,4.329,4.2745,4.185,4.185,4.1295,4.0525,4.1476,4.1274,4.0618,4.2386,4.1941,4.0232,0.0,0.0,0.0,0.0,0.0,0.0,0.0,0.0,0.0,0.0,0.0,0.0,0.0,0.0,0.0,0.0,0.0,0.0,0.0,0.0,0.0,2.3595,2.3595,2.3595,2.3595,2.3595,2.3595,2.3595,2.3913,2.4395,2.5083,2.6123,2.6958,2.76,2.76,2.76,2.76,2.76,2.76,2.76,0.0,0.0,0.0,0.0,0.0,0.0,0.0,0.0,0.0,0.0,3.0908,3.0851,3.0851,0.0,0.0,0.0,0.0,0.0,3.0042,2.9889,2.9613,2.9675,2.9574,2.9941,3.1829,3.1801,3.1605,0.0,0.0,0.0,3.2647,3.2993,3.3929,3.6424,3.6026,3.5805,3.6987,3.7511,3.8039,3.8728,3.879,3.9288,4.0554,4.0096,4.0204,4.1372,4.147,4.147,4.147,4.147,4.147,4.147,4.156,4.1587,4.1587,4.2725,4.2981,4.2371,4.2371,4.2705,4.329,4.329,4.329,4.329,4.329,4.3001,4.2467,4.185,4.1295,4.0873,4.1399,4.0894,4.0029,4.1078,4.0002,3.802,0.0,0.0,0.0,0.0,0.0,0.0,0.0,0.0,0.0,0.0,0.0,0.0,0.0,0.0,0.0,0.0,0.0,0.0,0.0,0.0,2.3396,2.3396,2.3396,2.3456,2.3595,2.3595,2.3595,2.3595,2.3595,2.4018,2.4859,2.6048,2.6958,2.76,2.76,2.76,2.76,2.76,2.76,2.76,0.0,0.0,0.0,0.0,0.0,0.0,0.0,0.0,0.0,0.0,0.0,0.0,0.0,0.0,0.0,2.9066,2.9002,2.905,2.9254,2.9301,2.9457,3.0118,0.0,2.9733,3.2526,3.2505,0.0,0.0,0.0,0.0,3.2705,3.3946,3.5709,3.7928,3.6685,3.5778,3.674,3.6193,3.6101,3.7332,3.6985,3.7479,3.9689,3.9072,3.9028,4.021,4.0296,4.0296,4.0296,4.0051,3.9899,3.9899,4.0476,4.0781,4.0781,4.1378,4.1788,4.1988,4.1726,4.207,4.29,4.2624,4.2487,4.2487,4.2487,4.2487,4.2441,4.156,4.1211,4.1232,4.1504,4.1063,4.0189,3.9395,3.8111,3.6883,0.0,0.0,0.0,0.0,0.0,0.0,0.0,0.0,0.0,0.0,0.0,0.0,0.0,0.0,0.0,0.0,0.0,0.0,0.0,0.0,2.2763,2.2763,2.2763,2.3032,2.3595,2.3595,2.3595,2.3595,2.3595,2.4268,2.5543,2.6258,2.6958,2.76,2.76,2.76,2.76,2.76,2.76,2.76,2.76,0.0,0.0,0.0,0.0,0.0,0.0,0.0,0.0,0.0,0.0,0.0,0.0,0.0,3.0042,2.9239,2.9002,2.9176,2.9996,3.0208,3.0223,3.0284,2.9628,0.0,3.1709,3.1526,0.0,3.2376,0.0,0.0,3.4033,3.5248,3.5858,3.5136,3.647,3.7261,3.6385,3.7555,3.8402,3.809,3.7566,3.7949,3.9735,3.9834,4.0253,4.1399,4.1483,4.1483,4.1483,4.0468,3.9899,3.9899,3.8881,3.8343,3.8343,3.7392,3.9001,4.3155,4.2111,4.1629,4.1684,4.0618,4.0138,4.0138,4.0138,4.0138,4.0138,4.0051,4.0029,4.0138,4.119,4.1545,4.1091,3.7848,3.7219,3.7848,0.0,0.0,0.0,0.0,0.0,0.0,0.0,0.0,0.0,0.0,0.0,0.0,0.0,0.0,0.0,0.0,0.0,0.0,0.0,0.0,2.2508,2.2094,2.2478,2.2808,2.3047,2.3411,2.3595,2.3595,2.3595,2.4062,2.4993,2.5663,2.6333,2.6988,2.7405,2.76,2.76,2.76,2.76,2.76,2.76,2.76,0.0,0.0,0.0,0.0,0.0,0.0,0.0,0.0,2.9028,2.9301,0.0,2.8796,2.9223,2.7838,2.8182,2.8955,2.8748,2.9081,2.9489,2.9489,2.9239,0.0,0.0,3.1915,3.1846,3.2468,3.3066,0.0,3.4293,3.5928,3.6852,3.5808,3.5762,3.5735,3.5319,3.5547,3.5809,3.597,3.609,3.6579,3.7616,3.7714,3.7906,3.8334,3.8366,3.8366,3.8366,3.7952,3.7714,3.7714,3.7962,3.8107,3.8107,3.8415,3.9448,4.1162,3.9988,3.9828,4.0532,4.0094,3.9899,3.9899,3.9899,3.9899,3.9834,3.9094,3.8783,3.876,3.8469,3.8801,3.9178,3.715,3.6675,3.6977,0.0,0.0,0.0,0.0,0.0,0.0,0.0,0.0,0.0,0.0,0.0,0.0,0.0,0.0,0.0,0.0,0.0,0.0,0.0,2.2508,2.2094,2.141,2.2034,2.2378,2.2378,2.3176,2.3595,2.3595,2.3595,2.3943,2.4608,2.5289,2.5959,2.6629,2.73,2.76,2.76,2.76,2.76,2.7587,2.7344,2.7382,0.0,0.0,0.0,0.0,0.0,0.0,0.0,0.0,2.8027,0.0,0.0,0.0,2.8668,2.699,2.7687,2.8876,2.8266,2.8556,2.9066,2.9333,0.0,0.0,3.134,3.1996,3.2452,3.3343,3.381,3.426,3.4783,3.6208,3.706,3.633,3.5908,3.5453,3.4787,3.4382,3.4237,3.4409,3.4929,3.5481,3.6056,3.6607,3.693,3.693,3.693,3.693,3.693,3.6604,3.6405,3.6405,3.715,3.7563,3.7563,3.8392,3.8796,3.8796,3.7962,3.8189,3.9316,3.8952,3.8796,3.8796,3.8796,3.8997,3.9271,3.8446,3.8311,3.8559,3.7392,3.7415,3.7962,3.6826,3.6405,3.6405,0.0,0.0,0.0,0.0,0.0,0.0,0.0,0.0,0.0,0.0,0.0,0.0,0.0,0.0,0.0,0.0,0.0,0.0,2.2774,2.2064,2.1395,2.0728,2.1335,2.1695,2.171,2.2951,2.3595,2.3595,2.3595,2.3943,2.4605,2.5289,2.5932,2.6614,2.7285,2.7585,2.7585,2.76,2.76,2.7537,2.6787,2.6943,2.7511,0.0,0.0,0.0,0.0,0.0,0.0,0.0,2.7521,2.797,0.0,0.0,0.0,2.699,2.7687,2.8987,2.8987,2.8987,2.9207,0.0,0.0,0.0,3.0522,3.1526,3.282,3.5027,3.4835,3.4612,3.569,3.6042,3.6178,3.6158,3.706,3.7035,3.4959,3.4684,3.4483,3.3953,3.4364,3.4916,3.5445,3.7055,3.8085,3.8085,3.8085,3.8085,3.8085,3.7023,3.6405,3.6405,3.6405,3.6405,3.6405,3.6405,3.6405,3.6405,3.6405,3.7,3.8039,3.6907,3.6405,3.6405,3.6405,3.7047,3.8085,3.8085,3.8783,3.9746,3.8559,3.8085,3.7962,3.6826,3.6405,3.6405,0.0,0.0,0.0,0.0,0.0,0.0,0.0,0.0,0.0,0.0,0.0,0.0,0.0,0.0,0.0,0.0,0.0,0.0,2.2104,2.1809,2.1395,2.0728,2.1335,2.1929,2.2388,2.3186,2.3595,2.3595,2.3595,2.3699,2.3913,2.4575,2.4993,2.5244,2.639,2.6899,2.6929,2.7405,2.7306,2.6813,2.659,2.6629,2.6747,0.0,0.0,0.0,0.0,0.0,0.0,0.0,0.0,0.0,0.0,0.0,0.0,2.6658,2.685,2.7367,2.792,2.8084,2.8282,2.9176,0.0,0.0,0.0,3.1015,0.0,0.0,3.3581,3.3217,3.4543,3.4642,3.4399,3.4072,3.4283,3.4275,3.3649,3.3577,3.3666,3.3878,3.4048,3.449,3.5408,3.5968,3.644,3.6881,3.6907,3.6907,3.6907,3.6581,3.6405,3.6405,3.6405,3.6405,3.6405,3.6405,3.6405,3.6405,3.6405,3.6581,3.6883,3.6557,3.6405,3.6405,3.6405,3.6581,3.6907,3.6907,3.7116,3.7405,3.7047,3.6907,3.6873,3.6523,3.6405,3.6405,0.0,0.0,0.0,0.0,0.0,0.0,0.0,0.0,0.0,0.0,0.0,0.0,0.0,0.0,0.0,0.0,0.0,0.0,0.0,0.0,2.1116,2.0728,2.1335,2.2124,2.3047,2.3411,2.3595,2.3595,2.3595,2.3595,2.361,2.4291,2.4465,2.43,2.5613,2.62,2.6256,2.6919,2.6941,2.6497,2.6497,2.631,2.6014,0.0,0.0,0.0,0.0,0.0,0.0,0.0,0.0,0.0,2.6431,0.0,0.0,2.6871,2.6973,2.7162,2.7986,2.7953,2.7904,2.878,2.8748,2.8788,2.9967,0.0,0.0,0.0,3.2727,3.2579,3.4075,3.4046,3.3782,3.3736,3.3734,3.3598,3.3154,3.3102,3.3228,3.3533,3.3771,3.4161,3.4803,3.5245,3.5656,3.6019,3.6256,3.6405,3.6405,3.6405,3.6405,3.6405,3.6405,3.6405,3.6405,3.6405,3.6405,3.6405,3.6405,3.6405,3.6405,3.6405,3.6405,3.6405,3.6405,3.6405,3.6405,3.6405,3.6405,3.6405,3.6405,3.6405,3.6405,3.6405,3.6405,3.6405,0.0,0.0,0.0,0.0,0.0,0.0,0.0,0.0,0.0,0.0,0.0,0.0,0.0,0.0,0.0,0.0,0.0,0.0,0.0,0.0,2.0728,2.0787,2.1485,2.2423,2.3565,2.3595,2.3595,2.3595,2.3595,2.3595,2.361,2.4216,2.4213,2.374,2.4952,2.5514,2.5548,2.6219,2.6453,2.6411,2.6402,2.6001,2.5398,2.5398,0.0,0.0,0.0,0.0,0.0,0.0,0.0,0.0,2.5522,2.6072,2.6641,2.7384,2.7587,2.7769,2.8556,2.8198,2.7802,2.8668,2.8363,2.8138,2.9162,3.0944,3.2375,3.2464,3.2117,3.2296,3.394,3.3895,3.3797,3.4447,3.4553,3.4212,3.324,3.3102,3.3102,3.3102,3.352,3.3847,3.3897,3.4778,3.537,3.542,3.5981,3.6306,3.6306,3.638,3.6405,3.6405,3.6405,3.6405,3.6405,3.6405,3.6405,3.6405,3.6405,3.6405,3.6405,3.6405,3.6405,3.6405,3.6405,3.6405,3.6405,3.6405,3.6405,3.6405,3.6405,3.6405,3.6405,3.6405,3.6405,3.6405,0.0,0.0,0.0,0.0,0.0,0.0,0.0,0.0,0.0,0.0,0.0,0.0,0.0,0.0,0.0,0.0,0.0,0.0,0.0,0.0,2.0937,2.1455,2.2577,2.331,2.3595,2.3595,2.3595,2.3595,2.3595,2.3595,2.3595,2.3744,2.3754,2.3659,2.447,2.482,2.4848,2.5474,2.5731,2.5711,2.5654,2.5536,2.5398,2.5398,2.5398,0.0,0.0,0.0,0.0,0.0,0.0,0.0,2.6243,2.6561,2.6521,2.6714,2.6765,2.6799,2.699,2.6888,0.0,2.7786,2.851,2.9096,2.9346,2.9915,3.0614,3.1347,3.0843,3.0849,3.2788,3.2473,3.2247,3.3276,3.3441,3.3356,3.3133,3.3102,3.3102,3.3102,3.3203,3.3442,3.3859,3.411,3.4414,3.4841,3.538,3.5694,3.5694,3.6143,3.6405,3.6405,3.6405,3.6405,3.6405,3.6405,3.6405,3.6405,3.6405,3.6405,3.6405,3.6405,3.6405,3.6405,3.6405,3.6405,3.6405,3.6405,3.6405,3.6405,3.6405,3.6405,3.6405,3.6405,3.6405,3.6405,0.0,0.0,0.0,0.0,0.0,0.0,0.0,0.0,0.0,0.0,0.0,0.0,0.0,0.0,0.0,0.0,0.0,0.0,0.0,0.0,0.0,2.2139,2.3097,2.3595,2.3595,2.3595,2.3595,2.3595,2.3595,2.3595,2.3595,2.3595,2.3454,2.3205,2.3837,2.413,2.422,2.481,2.5244,2.5494,2.5459,2.5231,2.4879,2.4879,2.4879,2.4767,2.3989,0.0,0.0,0.0,0.0,0.0,0.0,0.0,2.6572,2.6956,2.6799,2.6572,2.6973,2.6799,0.0,2.7023,0.0,2.8465,2.8718,2.9072,2.9593,3.0373,3.0139,3.0205,3.1497,3.1561,3.1683,3.2528,3.2914,3.3102,3.3102,3.3102,3.3102,3.3102,3.3102,3.3215,3.3483,3.3746,3.4022,3.4311,3.4816,3.513,3.513,3.5667,3.5968,3.5968,3.6243,3.6405,3.6405,3.6405,3.6405,3.6405,3.6405,3.6405,3.6405,3.6405,3.6405,3.6405,3.6405,3.6405,3.6405,3.6405,3.6405,3.6405,3.6405,3.6405,3.6405,3.6405,3.6405,3.6405,0.0,0.0,0.0,0.0,0.0,0.0,0.0,0.0,0.0,0.0,0.0,0.0,0.0,0.0,0.0,0.0,0.0,0.0,0.0,0.0,0.0,2.2643,2.3276,2.3595,2.3595,2.3595,2.3595,2.3595,2.3595,2.3595,0.0,2.3595,2.3334,2.2875,2.3377,2.3574,2.3568,2.4166,2.4778,2.5373,2.5319,2.5061,2.4681,2.4681,2.4524,2.4234,2.3693,2.3752,2.3987,2.332,0.0,0.0,0.0,0.0,2.6497,2.7274,2.7023,2.6658,2.73,2.7007,2.6499,2.6499,2.6901,0.0,2.7984,2.8518,2.907,2.9679,2.9792,2.9955,3.05,3.1035,3.1574,3.2106,3.2726,3.3102,3.3102,3.3102,3.3102,3.3102,3.3102,3.3102,3.3102,3.3504,3.3759,3.3759,3.4274,3.4552,3.4552,3.5079,3.5357,3.5357,3.5843,3.6143,3.6243,3.6243,3.6293,3.6405,3.6405,3.6405,3.6405,3.6405,3.6405,3.6405,3.6405,3.6405,3.6405,3.6405,3.6405,3.6405,3.6405,3.6405,3.6405,3.6405,3.6405,3.6405,0.0,0.0,0.0,0.0,0.0,0.0,0.0,0.0,0.0,0.0,0.0,0.0,0.0,0.0,0.0,0.0,0.0,0.0,2.028,0.0,0.0,2.2658,2.3276,2.3595,2.3595,2.3595,2.3595,2.3595,2.3595,0.0,0.0,0.0,0.0,2.3486,2.3562,2.3312,2.2878,2.3426,2.4096,2.4791,2.4618,2.5208,2.6203,2.6203,2.5412,2.4379,2.4894,2.4295,2.323,2.3138,2.3562,0.0,0.0,0.0,2.5845,2.6472,2.6572,2.6521,2.6624,0.0,2.6499,0.0,2.6901,2.7449,2.7984,2.8518,2.907,2.9679,2.9792,2.9955,3.05,3.1035,3.1574,3.2106,3.2726,3.3102,3.3102,3.3102,3.3102,3.3102,3.3102,3.3102,3.3102,3.3165,3.3203,3.3203,3.3696,3.401,3.401,3.4515,3.4803,3.4803,3.4879,3.5142,3.5631,3.5631,3.5893,3.6405,3.6405,3.6405,3.6405,3.6405,3.6405,3.6405,3.6405,3.6405,3.6405,3.6405,3.6405,3.6405,3.6405,3.6405,3.6405,3.6405,3.6405,3.6405,0.0,0.0,0.0,0.0,0.0,0.0,0.0,0.0,0.0,0.0,0.0,0.0,0.0,0.0,0.0,2.1559,2.044,1.993,2.0491,2.1257,2.2004,2.2673,2.3276,2.3595,2.3595,2.3595,2.3595,2.3595,0.0,0.0,0.0,2.3595,2.3595,0.0,0.0,0.0,2.3205,2.31,2.365,2.4533,2.4031,2.4661,2.5837,2.5412,2.4865,2.435,2.4667,2.4061,2.3108,2.3108,2.3512,2.4092,2.4628,0.0,0.0,0.0,2.6499,2.6499,2.6499,2.6499,2.6499,0.0,2.6675,2.6984,2.7537,2.8072,2.8605,2.917,2.9566,2.9867,3.0118,3.0595,3.1135,3.1662,3.2227,3.2704,3.3052,3.3102,3.3102,3.3102,3.3102,3.3102,3.3102,3.3102,3.3102,3.3102,3.3329,3.3454,3.3454,3.396,3.4261,3.4261,3.454,3.4816,3.5067,3.5067,3.5343,3.5906,3.5906,3.6056,3.6405,3.6405,3.6405,3.6405,3.6405,3.6405,3.6405,3.6405,3.6405,3.6405,3.6405,3.6405,3.6405,3.6405,3.6405,3.6405,0.0,0.0,0.0,0.0,0.0,0.0,0.0,0.0,0.0,0.0,0.0,0.0,0.0,0.0,0.0,0.0,2.0525,2.0086,2.0653,2.1335,2.2004,2.2673,2.3276,2.3595,2.3595,2.3595,2.3595,0.0,0.0,0.0,2.3595,2.3595,2.3595,0.0,2.312,2.3087,0.0,0.0,2.3557,2.4507,2.3904,2.4478,2.5591,2.4865,2.4581,2.4552,2.4379,2.3914,2.3365,2.3168,2.3411,2.3879,2.4415,2.4954,0.0,0.0,0.0,2.6499,2.6499,0.0,2.6499,2.6499,2.6499,2.6637,2.7173,2.7708,2.8242,2.8794,2.939,2.9792,2.9792,3.0244,3.0726,3.1135,3.1763,3.2365,3.2805,3.3002,3.3102,3.3102,3.3102,3.3102,3.3102,3.3102,3.3102,3.3102,3.3102,3.3102,3.3102,3.3492,3.3696,3.3696,3.4085,3.4374,3.449,3.4628,3.4904,3.5295,3.5295,3.5594,3.618,3.618,3.6243,3.6405,3.6405,3.6405,3.6405,3.6405,3.6405,3.6405,3.6405,3.6405,3.6405,3.6405,3.6405,3.6405,0.0,0.0,0.0,0.0,0.0,0.0,0.0,0.0,0.0,0.0,0.0,0.0,2.1658,2.1574,2.1574,2.1597,2.0781,2.0395,2.0681,2.1335,2.2004,2.2673,2.3276,0.0,2.3595,2.3595,2.3595,0.0,0.0,0.0,2.3595,2.3595,2.3595,2.3595,2.3562,2.3257,2.2773,0.0,0.0,0.0,2.4519,2.5257,2.635,2.5618,2.5342,2.5245,2.4552,2.4278,2.4118,2.3365,2.312,2.3246,2.3838,2.4402,2.4954,0.0,0.0,0.0,0.0,2.6499,0.0,2.6499,2.6499,2.6637,2.7173,2.7708,2.8242,2.8794,2.939,2.9792,2.9792,3.0244,3.06,3.0638,3.1516,3.2206,3.2231,3.2729,3.3102,3.3102,3.3102,3.3102,3.3102,3.3102,3.3102,3.3102,3.3102,3.3102,3.3102,3.3128,3.314,3.314,3.3178,3.3442,3.3935,3.4439,3.4715,3.4741,3.4741,3.5029,3.5545,3.5545,3.5845,3.6405,3.6405,3.6405,3.6405,3.6405,3.6405,3.6405,3.6405,3.6405,3.6405,3.6405,3.6405,3.6405,0.0,0.0,0.0,0.0,0.0,0.0,0.0,0.0,0.0,0.0,0.0,0.0,0.0,2.1597,2.1491,2.1236,2.0658,2.0231,2.007,2.1081,2.1809,2.2049,2.3052,2.3595,2.3595,2.3595,2.3595,0.0,0.0,2.3595,2.3595,2.3595,2.3595,2.3573,2.3201,2.3124,2.3279,2.3087,0.0,0.0,2.4519,2.5025,2.581,2.6028,2.581,2.537,2.5091,2.4695,2.4176,2.3365,2.3108,2.3208,2.3816,2.413,2.4469,2.5335,2.6017,2.6499,0.0,0.0,0.0,2.6499,2.6499,2.6549,2.6738,2.7198,2.7733,2.8285,2.8831,2.9333,2.9729,2.9955,3.0206,3.0538,3.0914,3.1403,3.2093,3.239,3.2667,3.3052,3.3102,3.3102,3.3102,3.3102,3.3102,3.3102,3.3102,3.3102,3.3102,3.3102,3.3102,3.3102,3.3102,3.319,3.337,3.3571,3.3847,3.4198,3.4198,3.4465,3.4992,3.4992,3.5293,3.5807,3.5807,3.6031,3.6405,3.6405,3.6405,3.6405,3.6405,3.6405,3.6405,3.6405,3.6405,3.6405,0.0,0.0,0.0,0.0,0.0,0.0,0.0,0.0,0.0,0.0,0.0,0.0,0.0,0.0,2.1606,2.1039,2.0566,2.0132,1.9735,2.0956,2.1695,2.1695,2.2921,2.3595,2.3595,2.3595,2.3595,0.0,0.0,0.0,0.0,2.3595,2.3595,2.3573,2.319,2.3209,0.0,0.0,0.0,2.489,2.5109,2.5287,2.5453,2.5946,2.566,2.4993,2.4724,2.4495,2.4176,2.3365,2.3108,2.317,2.3574,2.3841,2.4205,2.5285,2.5891,0.0,2.6436,0.0,0.0,2.6499,2.6499,2.6499,2.6499,2.6909,2.7412,2.7758,2.8392,2.9032,2.9428,2.9666,2.9917,3.0281,3.0475,3.0851,3.1554,3.1968,3.2353,3.2742,3.2977,3.3102,3.3102,3.3102,3.3102,3.3102,3.3102,3.3102,3.3102,3.3102,3.3102,3.3102,3.3102,3.3102,3.3102,3.3102,3.3278,3.3621,3.3621,3.3909,3.4427,3.4427,3.4728,3.5219,3.5219,3.568,3.6405,3.6405,3.6405,3.6405,3.6405,3.6405,3.6405,3.6405,3.6405,3.6405,0.0,0.0,0.0,0.0,0.0,0.0,0.0,0.0,0.0,0.0,0.0,0.0,0.0,0.0,0.0,2.1047,2.0558,2.0132,1.9735,2.0956,2.1695,2.1695,2.2921,2.3595,2.3595,2.3595,2.3595,0.0,0.0,0.0,0.0,0.0,2.3595,2.3595,2.3595,2.3595,2.364,0.0,2.4967,2.5624,2.6318,2.6128,2.5398,2.5412,2.4965,2.4234,2.3424,2.3647,2.4176,2.3365,2.3108,2.3108,2.3108,2.3512,0.0,0.0,0.0,0.0,0.0,0.0,0.0,2.6499,2.6499,2.6499,2.6499,2.6901,2.7286,2.7298,2.8134,2.8869,2.8888,2.939,2.9779,2.9792,3.0244,3.0575,3.06,3.1512,3.2156,3.2169,3.2726,3.3077,3.3077,3.309,3.3102,3.3102,3.3102,3.3102,3.3102,3.3102,3.3102,3.3102,3.3102,3.3102,3.3102,3.3102,3.3102,3.3102,3.3102,3.3379,3.3872,3.3872,3.4173,3.4678,3.4678,3.5316,3.6344,3.638,3.6392,3.6405,3.6405,3.6405,3.6405,3.6405,3.6405,3.6405,0.0,0.0,0.0,0.0,0.0,0.0,0.0,0.0,0.0,0.0,0.0,0.0,0.0,2.1461,2.1126,2.0541,2.0374,2.0132,1.9735,2.0956,2.1695,2.1695,2.2921,2.3595,2.3595,2.3595,2.3595,0.0,0.0,0.0,0.0,0.0,0.0,0.0,2.3595,2.3595,2.364,2.4332,2.4686,2.491,2.6109,2.6128,2.5453,2.6001,2.5742,2.4993,2.4236,2.4118,2.4176,2.3365,2.3108,2.3108,2.3108,2.3512,0.0,0.0,0.0,0.0,2.6336,0.0,0.0,0.0,0.0,0.0,2.6499,2.6612,2.6839,2.7223,2.755,2.7984,2.8769,2.9045,2.9283,2.9729,2.9917,3.0168,3.0538,3.0851,3.1198,3.1574,3.2114,3.2453,3.2453,3.283,3.3102,3.3102,3.3102,3.3102,3.3102,3.3102,3.3102,3.3102,3.3102,3.3102,3.3102,3.3102,3.3102,3.3102,3.3102,3.3178,3.3329,3.3329,3.3608,3.4123,3.4123,3.4525,3.5203,3.5581,3.6006,3.6405,3.6405,3.6405,3.6405,3.6405,3.6405,3.6405,0.0,0.0,0.0,0.0,0.0,0.0,2.2296,2.2296,0.0,0.0,0.0,0.0,0.0,0.0,2.0894,2.0616,2.0261,1.9947,1.9726,2.0956,2.1695,2.1695,2.2921,2.3595,2.3595,2.3595,2.3595,0.0,0.0,0.0,0.0,0.0,0.0,0.0,0.0,0.0,0.0,0.0,2.4996,2.5084,2.6455,2.6373,2.5453,2.5878,2.537,2.4381,2.3945,2.3796,2.3723,2.3273,2.3108,2.3145,2.3411,2.3537,2.3775,2.4578,0.0,0.0,0.0,0.0,0.0,2.6499,0.0,0.0,2.6499,2.6499,2.6587,2.6901,2.7135,2.7499,2.8122,2.8593,2.9019,2.9377,2.9641,2.9905,3.0231,3.047,3.0733,3.1035,3.1537,3.1863,3.1863,3.239,3.2717,3.2717,3.2964,3.3102,3.3102,3.3102,3.3102,3.3102,3.3102,3.3102,3.3102,3.3102,3.3102,3.3102,3.3102,3.3102,3.3102,3.3102,3.3278,3.358,3.358,3.3872,3.4377,3.4703,3.5155,3.5705,3.5931,3.6019,3.6056,3.6306,3.6405,3.6405,0.0,0.0,0.0,2.2405,2.2415,2.2455,2.254,2.254,2.2506,0.0,0.0,0.0,0.0,0.0,0.0,0.0,2.0217,1.9747,1.9708,2.0956,2.1695,2.1695,2.2921,2.3595,2.3595,2.3595,2.3595,0.0,0.0,0.0,0.0,0.0,0.0,0.0,0.0,0.0,0.0,2.5319,2.5633,2.5812,2.7091,2.6772,2.5508,2.5425,2.4553,2.3335,2.3155,2.3145,2.3208,2.3271,2.3296,2.3371,2.3838,2.3675,2.3496,2.4499,2.4842,0.0,0.0,0.0,0.0,2.6499,2.6499,0.0,2.6499,2.6499,2.6499,2.6499,2.6889,2.7223,2.7286,2.8084,2.8743,2.8787,2.9296,2.9716,2.9779,3.0218,3.05,3.05,3.0984,3.1298,3.1298,3.18,3.2106,3.2106,3.2654,3.3027,3.3102,3.3102,3.3102,3.3102,3.3102,3.3102,3.3102,3.3102,3.3102,3.3102,3.3102,3.3102,3.3102,3.3102,3.3102,3.3102,3.3102,3.3379,3.3809,3.3809,3.4173,3.4753,3.5219,3.5408,3.5493,3.6017,3.6243,3.6293,0.0,0.0,2.2489,2.3088,2.3197,2.3383,2.3975,2.4068,0.0,0.0,0.0,0.0,0.0,0.0,0.0,0.0,2.028,2.0052,1.9711,2.0956,2.1695,2.1695,2.2921,2.3595,2.3595,2.3595,2.3595,0.0,0.0,0.0,0.0,0.0,0.0,0.0,0.0,0.0,0.0,2.5319,2.5914,2.6467,2.7285,2.7073,2.6216,2.5632,2.5217,2.4795,2.3545,2.3409,2.3888,2.4327,2.4478,2.4399,2.4104,2.423,2.4499,2.4741,2.5121,2.5598,2.6311,2.6499,2.6499,2.6499,2.6499,0.0,2.6499,2.6499,2.6499,2.6499,2.6575,2.6788,2.7223,2.7474,2.7745,2.8197,2.8718,2.9245,2.9729,2.988,2.9955,2.9955,3.0432,3.0751,3.0751,3.1235,3.1549,3.1549,3.2064,3.2591,3.3077,3.3102,3.3102,3.3102,3.3102,3.3102,3.3102,3.3102,3.3102,3.3102,3.3102,3.3102,3.3102,3.3102,3.3102,3.3102,3.3102,3.3153,3.3266,3.3266,3.3822,3.4703,3.4816,3.4866,3.4879,3.4979,3.5293,3.5682,0.0,0.0,2.3519,2.3881,2.3949,2.4068,2.444,2.4498,0.0,0.0,0.0,0.0,0.0,0.0,0.0,0.0,0.0,0.0,0.0,2.163,2.2198,2.2198,2.3097,2.3595,2.3595,2.3595,2.3595,0.0,0.0,0.0,0.0,0.0,0.0,0.0,0.0,0.0,0.0,2.5468,2.6183,2.7136,2.7465,2.6929,2.5919,2.5536,2.5112,2.461,2.3827,2.3913,2.4478,2.5021,2.5017,2.4804,2.4808,2.4808,2.4854,2.5118,2.5385,2.5724,2.6336,2.6129,2.5873,2.6366,2.6112,0.0,0.0,2.6499,2.6499,2.6499,2.6499,2.6575,2.6851,2.711,2.7386,2.7657,2.816,2.8605,2.8913,2.944,2.9792,2.9792,3.0043,3.0206,3.0206,3.0696,3.111,3.1373,3.165,3.1926,3.2236,3.2525,3.2641,3.2641,3.2952,3.3102,3.3102,3.3102,3.3102,3.3102,3.3102,3.3102,3.3102,3.3102,3.3102,3.3102,3.3102,3.3102,3.3102,3.3102,3.3429,3.3935,3.4211,3.4289,3.4327,3.4603,3.4879,3.5117,2.3637,0.0,2.4541,2.4694,2.4711,2.4762,2.4897,2.4914,0.0,0.0,0.0,0.0,0.0,0.0,0.0,0.0,0.0,0.0,2.1695,2.2328,2.2703,2.2703,2.3276,2.3595,2.3595,2.3595,2.3595,0.0,0.0,0.0,0.0,0.0,0.0,0.0,0.0,0.0,0.0,0.0,2.6494,2.76,2.76,2.695,2.5992,2.5855,2.5319,2.4594,2.4381,2.4594,2.5042,2.5603,2.5485,2.518,2.5498,2.5385,2.518,2.5498,2.5674,2.5879,2.6361,2.5908,2.5441,2.606,2.5611,2.5158,0.0,0.0,0.0,2.5913,2.6077,2.6198,2.6198,2.6712,2.7148,2.7148,2.7613,2.7946,2.7946,2.8825,2.9503,2.9616,2.9729,2.9792,2.9792,3.0193,3.067,3.1198,3.1248,3.1286,3.1386,3.1813,3.2051,3.2051,3.2616,3.2939,3.2939,3.304,3.3102,3.3102,3.3102,3.3102,3.3102,3.3102,3.3102,3.3102,3.3102,3.3102,3.3102,3.3102,3.3102,3.314,3.3571,3.3746,3.3796,3.4226,3.4452,3.454,2.4508,2.444,0.0,2.5372,2.549,2.5693,2.6344,2.6446,0.0,0.0,0.0,0.0,2.3119,2.2613,2.2296,2.2296,2.193,2.1695,2.1695,2.2328,2.2703,2.2703,2.3276,2.3595,2.3595,2.3595,2.3595,2.3595,0.0,0.0,0.0,0.0,0.0,0.0,2.4216,0.0,0.0,2.6228,2.6926,2.76,2.76,2.7857,2.8169,2.7509,2.7074,2.6702,2.5762,2.5448,2.5598,2.6197,2.6361,2.6223,2.5753,2.5929,2.6223,2.5741,2.5979,2.6411,2.6474,2.6418,2.6146,2.537,2.5075,2.4808,2.4018,0.0,2.3843,2.3843,0.0,2.5176,2.5176,0.0,0.0,2.6587,2.7035,2.7386,2.7386,2.7908,2.8467,2.8944,2.9478,2.9792,2.9792,2.9854,3.0118,3.0638,3.0688,3.0909,3.1361,3.1469,3.1486,3.1486,3.2014,3.2303,3.2303,3.2839,3.3102,3.3102,3.3102,3.3102,3.3102,3.3102,3.3102,3.3102,3.3102,3.3102,3.3102,3.3102,3.3102,3.3102,3.3165,3.319,3.3203,3.3266,3.3571,3.3985,2.5211,2.5481,0.0,0.0,2.6234,2.6336,2.6649,2.67,0.0,0.0,0.0,0.0,2.3874,2.3369,2.3046,2.3046,2.2901,2.2802,2.2802,2.3067,0.0,2.3216,2.346,2.3595,2.3595,2.3595,2.3595,2.3595,2.3595,0.0,0.0,0.0,0.0,0.0,2.4459,2.5199,2.6198,2.6479,2.6988,2.76,2.76,2.8231,2.9049,2.7933,2.7297,2.6952,2.6343,2.6118,2.6172,2.6411,2.6499,2.6449,2.621,2.6298,2.6449,2.6197,2.6298,2.6499,2.6499,2.6077,2.5664,2.5821,2.5423,2.4898,2.4474,2.4373,2.421,2.3617,0.0,0.0,0.0,0.0,0.0,0.0,2.5811,2.6165,2.6751,2.7298,2.7609,2.758,2.8586,2.9428,2.9767,2.9792,2.9892,3.0118,3.0143,3.0231,3.0464,3.0771,3.0947,3.0947,3.1461,3.1738,3.1738,3.229,3.2579,3.2579,3.2939,3.3102,3.3102,3.3102,3.3102,3.3102,3.3102,3.3102,3.3102,3.3102,3.3102,3.3102,3.3102,3.3102,3.3102,3.3102,3.3241,3.3442,2.5896,0.0,0.0,2.67,2.67,2.6767,2.6962,2.7044,2.6969,2.6653,2.5989,2.5389,2.501,2.4479,2.4148,2.4148,2.4148,2.4148,2.4148,2.4148,2.4148,2.4148,2.4148,2.4048,2.3868,2.3868,2.3778,2.3595,0.0,0.0,0.0,0.0,0.0,0.0,0.0,2.5678,2.6614,2.6794,2.7165,2.7627,2.7809,2.8532,2.9403,2.831,2.773,2.7397,2.6731,2.6499,2.6499,2.6499,2.6499,2.6499,2.6499,2.6499,2.6499,2.6499,2.6499,2.6499,2.6499,2.5973,2.5511,2.599,2.5529,2.4933,2.4654,2.46,2.4301,2.3294,2.3312,0.0,0.0,0.0,2.3745,0.0,0.0,2.4939,2.5943,2.6411,2.6696,2.6778,2.7909,2.8907,2.9503,2.9553,2.9616,2.9779,2.9792,2.9792,2.9792,3.0168,3.0374,3.0374,3.0896,3.1173,3.1173,3.1712,3.1989,3.1989,3.2416,3.2713,3.2842,3.2842,3.2952,3.3102,3.3102,3.3102,3.3102,3.3102,3.3102,3.3102,3.3102,3.3102,3.3102,3.3102,3.3102,3.3102,2.6666,2.6683,0.0,2.67,2.67,2.6945,2.7655,2.7927,2.8069,2.8121,2.7105,2.6377,2.6428,2.5902,2.5543,2.5543,2.5543,2.5543,2.5543,2.5543,2.5543,2.5543,2.5543,2.5229,2.459,2.4575,2.4246,2.3595,0.0,0.0,0.0,0.0,0.0,0.0,2.6243,2.6569,2.6644,2.7285,2.757,2.766,2.8321,2.8863,2.9288,2.9041,2.8933,2.8721,2.7095,2.6499,2.6499,2.6499,2.6499,2.6499,2.6499,2.6499,2.6499,2.6499,2.6499,2.6499,2.6499,2.6482,2.6228,2.5282,2.5022,2.4755,2.3781,2.3562,2.3257,2.2253,2.2832,2.3202,2.2234,2.285,0.0,0.0,0.0,0.0,0.0,2.5052,2.5623,2.7089,2.7777,2.8329,2.8881,2.8932,2.917,2.9754,2.9792,2.9792,2.9792,2.9817,2.9836,2.9836,3.0357,3.0625,3.0625,3.116,3.1432,3.1432,3.1457,3.1725,3.224,3.224,3.2554,3.3102,3.3102,3.3102,3.3102,3.3102,3.3102,3.3102,3.3102,3.3102,3.3102,3.3102,3.3102,3.3102,0.0,0.0,0.0,2.7528,2.7427,2.7697,2.8467,2.831,2.7977,2.7644,2.6908,2.6265,2.594,2.5713,2.5603,2.5603,2.5603,2.5603,2.5603,2.5603,2.5603,2.5603,2.5603,2.5498,2.5274,2.5259,2.5154,2.4915,2.4915,0.0,0.0,0.0,0.0,0.0,0.0,2.6854,2.7285,2.7495,2.7869,2.8314,2.8841,2.9488,3.0014,2.9281,2.8636,2.8002,2.6888,2.6499,2.6499,2.6499,2.6499,2.6499,2.6499,2.6499,2.6499,2.6499,2.6499,2.6499,2.6499,2.6499,2.6418,2.6077,2.599,2.5734,2.4725,2.4492,2.421,2.3202,2.2739,2.2403,2.2065,2.1764,0.0,0.0,0.0,0.0,0.0,2.4582,2.5443,2.6629,2.6665,2.7048,2.8249,2.8367,2.8461,2.8662,2.8994,2.9195,2.9195,2.9578,2.9792,2.9792,2.998,3.0068,3.0068,3.0608,3.0871,3.0864,3.1223,3.1486,3.1675,3.1675,3.1775,3.1997,3.2353,3.2503,3.2541,3.2939,3.3102,3.3102,3.3102,3.3102,3.3102,3.3102,3.3102,3.3102,2.8221,2.8645,2.8831,2.8332,2.8441,2.8796,2.9322,2.9103,2.8751,2.8406,2.7644,2.7026,2.6669,2.6447,2.6303,2.6303,2.6303,2.6303,2.6303,2.6303,2.6303,2.6303,2.6303,2.6198,2.5959,2.5959,2.5839,2.5603,2.5603,2.5722,0.0,0.0,0.0,0.0,0.0,2.721,2.7627,2.7854,2.8201,2.8646,2.9101,2.9565,2.9856,2.8899,2.8379,2.8019,2.6888,2.6499,2.6499,2.6499,2.6499,2.6499,2.6499,2.6499,2.6499,2.6499,2.6499,2.6499,2.6499,2.6499,2.6499,2.6499,2.6499,2.6332,2.5681,2.5529,2.5247,2.4246,2.3514,2.2962,2.2609,2.2038,0.0,0.0,0.0,0.0,0.0,2.4373,2.5247,2.5891,2.6015,2.6502,2.7704,2.7808,2.7896,2.8097,2.8417,2.8706,2.8888,2.927,2.9578,2.9779,2.9792,2.9792,2.9792,3.0143,3.0319,3.0331,3.067,3.0922,3.1122,3.1122,3.1223,3.1432,3.1763,3.1913,3.1951,3.2349,3.2612,3.2788,3.2788,3.2914,3.3102,3.3102,3.3102,3.3102,2.9044,2.9077,2.9111,2.9111,2.9694,3.0149,3.0149,3.0215,3.0251,3.0251,2.9203,2.8467,2.8467,2.7931,2.76,2.76,2.76,2.76,2.76,2.76,2.76,2.76,2.76,2.73,2.6659,2.6644,2.6333,2.5693,2.5693,0.0,0.0,0.0,0.0,0.0,2.76,2.76,2.7645,2.8321,2.8637,2.8735,2.913,2.9211,2.8955,2.8002,2.8182,2.8716,2.7078,2.6499,2.6499,2.6499,2.6499,2.6499,2.6499,2.6499,2.6499,2.6499,2.6499,2.6499,2.6499,2.6499,2.6499,2.6499,2.6499,2.6499,2.6499,2.6499,2.6228,2.5264,2.5022,2.4707,2.3763,2.3533,2.3184,0.0,0.0,0.0,2.358,2.4391,2.5016,2.507,2.5921,2.67,2.7211,2.7261,2.7474,2.7984,2.8047,2.8279,2.8787,2.8856,2.9132,2.9729,2.9754,2.9767,2.9792,2.9792,2.9792,2.9792,2.9792,3.0068,3.055,3.055,3.0846,3.1311,3.1356,3.1348,3.1348,3.1386,3.17,3.2156,3.2156,3.2528,3.3052,3.309,3.3102,3.3102,2.982,3.026,3.0642,3.0642,3.0784,3.092,3.092,3.0188,2.9629,2.9629,2.8591,2.7835,2.7835,2.7685,2.76,2.76,2.76,2.76,2.76,2.76,2.76,2.76,2.76,2.7525,2.7345,2.7345,2.727,2.7091,2.7091,0.0,2.7345,0.0,0.0,0.0,0.0,2.76,2.7645,2.8321,2.9146,2.9949,2.932,2.9425,2.975,2.7604,2.7317,2.7887,2.6871,2.6499,2.6499,2.6499,2.6499,2.6499,2.6499,2.6499,2.6499,2.6499,2.6499,2.6499,2.6499,2.6499,2.6499,2.6499,2.6499,2.6499,2.6499,2.6499,2.6435,2.6164,2.5511,2.4915,2.4654,2.4,2.3434,0.0,0.0,0.0,2.451,2.4844,2.5282,2.6025,2.6332,2.6549,2.6688,2.6713,2.6763,2.6901,2.7286,2.7575,2.7695,2.8097,2.8555,2.912,2.9132,2.9346,2.9792,2.9792,2.9792,2.9792,2.9792,2.9867,3.0005,3.0005,3.008,3.0231,3.0633,3.0821,3.0846,3.1235,3.1474,3.1599,3.1599,3.1938,3.2491,3.2939,3.3102,3.3102,3.0581,3.1173,3.1674,3.1674,3.1705,3.1512,3.0908,3.0471,3.0035,2.9512,2.8848,2.8442,2.8464,2.8214,2.8036,2.8036,2.8036,2.7914,2.7615,2.76,2.76,2.76,2.76,2.76,2.76,2.76,2.76,2.76,2.76,0.0,2.76,0.0,0.0,0.0,0.0,2.7764,2.8096,2.9026,3.0,3.0814,2.9518,2.9286,0.0,2.772,2.7078,2.7162,2.7074,2.6799,2.6499,2.6499,2.6499,2.6499,2.6499,2.6499,2.6499,2.6499,2.6499,2.6499,2.6499,2.6499,2.6499,2.6499,2.6499,2.6499,2.6499,2.6499,2.6499,2.6499,2.606,2.5664,2.5664,2.5187,2.482,2.482,2.4433,2.4355,2.4915,2.4987,2.5211,2.5786,2.5838,2.6025,2.6452,2.6499,2.6499,2.6499,2.6788,2.7047,2.7286,2.76,2.7996,2.853,2.8781,2.907,2.9396,2.9666,2.9792,2.9792,2.9792,2.9792,2.9792,2.9792,2.9792,2.9817,3.0118,3.0256,3.0281,3.057,3.0834,3.1072,3.1298,3.1574,3.1913,3.2491,3.2876,3.3102,3.1461,3.1995,3.2446,3.2446,3.2424,3.1961,3.0663,3.0882,3.0822,2.9769,2.9558,2.9541,2.9585,2.9084,2.8727,2.8727,2.8727,2.8485,2.7899,2.7854,2.7824,2.7735,2.7735,2.769,2.76,2.76,2.76,2.76,2.76,0.0,0.0,0.0,0.0,0.0,0.0,0.0,2.8921,3.0028,3.0897,3.1351,2.9659,2.9066,2.905,2.7953,2.7162,2.6731,2.7334,2.7078,2.6499,2.6499,2.6499,2.6499,2.6499,2.6499,2.6499,2.6499,2.6499,2.6499,2.6499,2.6499,2.6499,2.6499,2.6499,2.6499,2.6499,2.6499,2.6499,2.6499,2.6499,2.6499,2.6499,2.6499,2.6499,2.6499,2.5769,2.5194,2.5194,2.5194,2.5194,2.5194,2.5194,0.0,2.6418,2.6499,2.6499,2.6499,2.6499,2.67,2.7173,2.7198,2.7449,2.7984,2.8442,2.8731,2.8787,2.939,2.9679,2.9679,2.9754,2.9792,2.9792,2.9792,2.9792,2.9792,2.9792,2.9792,2.9792,2.9792,3.0068,3.0538,3.1085,3.1306,3.1348,3.1901,3.2466,3.2989,3.2899,3.3119,3.322,3.322,3.2757,3.2153,3.1398,3.0917,3.057,3.0358,2.9885,2.9592,2.9592,2.9503,2.9413,2.9413,2.9413,2.9368,2.9262,2.9262,2.8994,2.8442,2.8412,2.8171,2.76,2.76,2.76,2.76,2.76,2.76,0.0,0.0,0.0,0.0,0.0,0.0,3.0178,3.0417,3.0897,3.1351,2.9659,2.9426,2.9827,2.7571,2.704,2.7417,2.6888,2.6624,2.6499,2.6499,2.6499,2.6499,2.6499,2.6499,2.6499,2.6499,2.6499,2.6499,2.6499,2.6499,2.6499,2.6499,2.6499,2.6499,2.6499,2.6499,2.6499,2.6499,2.6499,2.6499,2.6499,2.6499,2.6499,2.6499,2.6349,2.6245,2.6245,2.6245,2.6245,2.6245,2.6245,2.6314,2.6469,2.6499,2.6499,2.6499,2.6499,2.6537,2.6637,2.6637,2.6889,2.7424,2.7537,2.7795,2.8247,2.8781,2.907,2.907,2.9566,2.9792,2.9792,2.9792,2.9792,2.9792,2.9792,2.9792,2.9792,2.9792,2.9854,2.9993,3.0532,3.0738,3.0821,3.1336,3.1888,3.2428,3.3328,3.3711,3.3868,3.3506,3.3219,3.2812,3.2161,3.1462,3.0899,3.0548,3.0262,3.0193,3.0538,3.0283,3.0072,3.0072,3.0072,2.9937,2.9623,2.9593,2.9458,2.9131,2.9114,2.88,2.8126,2.8126,2.7959,2.76,2.76,2.76,0.0,0.0,0.0,2.8156,0.0,2.9939,3.0522,3.0867,3.1197,3.1351,2.9659,2.952,3.0118,2.8443,2.7769,2.7703,2.7769,2.7246,2.6499,2.6499,2.6499,2.6499,2.6499,2.6499,2.6499,2.6499,2.6499,2.6499,2.6499,2.6499,2.6499,2.6499,2.6499,2.6499,2.6499,2.6499,2.6499,2.6499,2.6499,2.6499,2.6499,2.6499,2.6499,2.6499,2.6499,2.6499,2.6499,2.6499,2.6499,2.6499,2.6499,2.6499,2.6499,2.6499,2.6499,2.6499,2.6499,2.6499,2.6499,2.6499,2.6612,2.6889,2.7148,2.7424,2.767,2.8217,2.848,2.8493,2.9057,2.9321,2.9333,2.9654,2.9792,2.9792,2.9792,2.9792,2.9792,2.9792,2.9792,2.9836,3.008,3.0193,3.0256,3.0796,3.116,3.1491,3.3674,3.4118,3.4314,3.3646,3.3457,3.3211,3.2682,3.1965,3.1316,3.0777,3.0702,3.0912,3.1451,3.1031,3.0702,3.0702,3.0702,3.0507,3.0028,2.9998,2.9937,2.9803,2.9788,2.9488,2.8831,2.8801,2.856,2.8019,2.7884,2.7809,2.7809,0.0,0.0,2.8861,2.9998,3.0582,3.0747,3.1271,3.1511,3.138,2.9889,2.969,3.0193,2.9129,2.8298,2.7769,2.8266,2.762,2.6499,2.6499,2.6499,2.6499,2.6499,2.6499,2.6499,2.6499,2.6499,2.6499,2.6499,2.6499,2.6499,2.6499,2.6499,2.6499,2.6499,2.6499,2.6499,2.6499,2.6499,2.6499,2.6499,2.6499,2.6499,2.6499,2.6499,2.6499,2.6499,2.6499,2.6499,2.6499,2.6499,2.6499,2.6499,2.6499,2.6499,2.6499,2.6499,2.6499,2.6499,2.6499,2.6499,2.6499,2.6914,2.7123,2.7123,2.7657,2.7934,2.7946,2.8467,2.8731,2.8756,2.9352,2.9616,2.9616,2.9741,2.9792,2.9792,2.9792,2.9792,2.9792,2.9792,2.9792,2.9842,3.0281,3.05,3.0713,3.4608,3.4539,3.4381,3.3702,3.3085,3.2668,3.2615,3.1965,3.1481,3.1406,3.1406,3.1436,3.1496,3.1451,3.1406,3.1406,3.1406,3.1376,3.1331,3.1316,3.1047,3.0447,3.0417,3.0118,2.9518,2.9503,2.9473,2.9398,2.88,2.8502,2.8487,2.7872,2.8289,2.9533,3.0193,3.0837,3.1406,3.1466,3.1511,3.1423,3.0539,3.0238,3.0118,2.8443,2.7769,2.762,2.6973,2.6624,2.6499,2.6499,2.6499,2.6499,2.6499,2.6499,2.6499,2.6499,2.6499,2.6499,2.6499,2.6499,2.6499,2.6499,2.6499,2.6499,2.6499,2.6499,2.6499,2.6499,2.6499,2.6499,2.6499,2.6499,2.6499,2.6499,2.6499,2.6499,2.6499,2.6499,2.6499,2.6499,2.6499,2.6499,2.6499,2.6499,2.6499,2.6499,2.6499,2.6499,2.6499,2.6499,2.6499,2.6499,2.6549,2.6562,2.6562,2.7097,2.7374,2.7386,2.7921,2.8185,2.8179,2.8743,2.8982,2.9019,2.9566,2.9792,2.9792,2.9792,2.9792,2.9792,2.9792,2.9792,2.9804,2.9854,3.0181,3.0613,3.4652,3.4272,3.3786,3.3119,3.2774,3.2451,3.2007,3.1697,3.1511,3.1511,3.1511,3.1511,3.1511,3.1511,3.1511,3.1511,3.1511,3.1511,3.1511,3.1511,3.1376,3.1107,3.1092,3.0792,3.0148,3.0133,2.9967,2.9593,2.9338,2.8981,2.8607,2.874,2.9279,3.0163,3.0807,3.1241,3.1511,3.1511,3.1511,3.1423,3.0614,3.0299,3.0178,2.8939,2.8165,2.7653,2.7334,2.6905,2.6499,2.6499,2.6499,2.6499,2.6499,2.6499,2.6499,2.6499,2.6499,2.6499,2.6499,2.6499,2.6499,2.6499,2.6499,2.6499,2.6499,2.6499,2.6499,2.6499,2.6499,2.6499,2.6499,2.6499,2.6499,2.6499,2.6499,2.6499,2.6499,2.6499,2.6499,2.6499,2.6499,2.6499,2.6499,2.6499,2.6499,2.6499,2.6499,2.6499,2.6499,2.6499,2.6499,2.6499,2.6499,2.6499,2.6499,2.6713,2.6826,2.6839,2.7361,2.7607,2.765,2.8185,2.8593,2.8925,2.9541,2.9792,2.9792,2.9792,2.9792,2.9792,2.9792,2.9792,2.9792,2.9792,2.993,3.0168,3.4087,3.3633,3.3093,3.241,3.2272,3.2106,3.1582,3.1511,3.1511,3.1511,3.1511,3.1511,3.1511,3.1511,3.1511,3.1511,3.1511,3.1511,3.1511,3.1511,3.1511,3.1511,3.1511,3.1271,3.0792,3.0792,3.0597,3.0163,2.9967,2.9623,2.9175,2.9639,3.0088,3.0537,3.1197,3.1511,3.1511,3.1511,3.1511,3.1423,3.0614,3.0148,2.9827,2.8955,2.8084,2.7351,2.7351,2.6973,2.6499,2.6499,2.6499,2.6499,2.6499,2.6499,2.6499,2.6499,2.6499,2.6499,2.6499,2.6499,2.6499,2.6499,2.6499,2.6499,2.6499,2.6499,2.6499,2.6499,2.6499,2.6499,2.6499,2.6499,2.6499,2.6499,2.6499,2.6499,2.6499,2.6499,2.6499,2.6499,2.6499,2.6499,2.6499,2.6499,2.6499,2.6499,2.6499,2.6499,2.6499,2.6499,2.6499,2.6499,2.6499,2.6499,2.6499,2.6499,2.6499,2.6499,2.6889,2.706,2.7072,2.7607,2.816,2.8693,2.9289,2.9541,2.9553,2.9729,2.9792,2.9792,2.9792,2.9792,2.9792,2.9792,2.9792,2.9842,3.2882,3.2614,3.2382,3.164,3.151,3.1511,3.1511,3.1511,3.1511,3.1511,3.1511,3.1511,3.1511,3.1511,3.1511,3.1511,3.1511,3.1511,3.1511,3.1511,3.1511,3.1511,3.1511,3.1511,3.1496,3.1496,3.1466,3.1481,3.0807,3.0478,3.0477,3.0492,3.0492,3.0537,3.1197,3.1511,3.1511,3.1511,3.1511,3.1423,3.0614,2.9781,2.8923,2.8051,2.7229,2.6516,2.6516,2.6516,2.6499,2.6499,2.6499,2.6499,2.6499,2.6499,2.6499,2.6499,2.6499,2.6499,2.6499,2.6499,2.6499,2.6499,2.6499,2.6499,2.6499,2.6499,2.6499,2.6499,2.6499,2.6499,2.6499,2.6499,2.6499,2.6499,2.6499,2.6499,2.6499,2.6499,2.6499,2.6499,2.6499,2.6499,2.6499,2.6499,2.6499,2.6499,2.6499,2.6499,2.6499,2.6499,2.6499,2.6499,2.6499,2.6499,2.6499,2.6499,2.6499,2.6499,2.6499,2.6499,2.6524,2.706,2.7595,2.8147,2.8681,2.8919,2.8969,2.9553,2.9792,2.9792,2.9792,2.9792,2.9792,2.9792,2.9792,2.9792,3.2682,3.2203,3.1782,3.1539,3.1511,3.1511,3.1511,3.1511,3.1511,3.1511,3.1511,3.1511,3.1511,3.1511,3.1511,3.1511,3.1511,3.1511,3.1511,3.1511,3.1511,3.1511,3.1511,3.1511,3.1511,3.1511,3.1511,3.1511,3.1286,3.1182,3.1167,3.0702,3.0732,3.1182,3.1406,3.1511,3.1511,3.1511,3.1511,3.1423,3.0614,2.9781,2.8907,2.8035,2.7196,2.6499,2.6499,2.6499,2.6499,2.6499,2.6499,2.6499,2.6499,2.6499,2.6499,2.6499,2.6499,2.6499,2.6499,2.6499,2.6499,2.6499,2.6499,2.6499,2.6499,2.6499,2.6499,2.6499,2.6499,2.6499,2.6499,2.6499,2.6499,2.6499,2.6499,2.6499,2.6499,2.6499,2.6499,2.6499,2.6499,2.6499,2.6499,2.6499,2.6499,2.6499,2.6499,2.6499,2.6499,2.6499,2.6499,2.6499,2.6499,2.6499,2.6499,2.6499,2.6499,2.6499,2.6499,2.6499,2.6512,2.7065,2.7399,2.757,2.8134,2.8568,2.89,2.9107,2.944,2.9792,2.9792,2.9792,2.9792,2.9792,2.9792,2.9792,3.223,3.1824,3.1511,3.1511,3.1511,3.1511,3.1511,3.1511,3.1511,3.1511,3.1511,3.1511,3.1511,3.1511,3.1511,3.1511,3.1511,3.1511,3.1511,3.1511,3.1511,3.1511,3.1511,3.1511,3.1511,3.1511,3.1511,3.1511,3.1511,3.1511,3.1496,3.1076,3.1092,3.1511,3.1511,3.1511,3.1467,3.119,3.1043,3.0984,3.0148,2.9286,2.8443,2.7904,2.7196,2.6499,2.6499,2.6499,2.6499,2.6499,2.6499,2.6499,2.6499,2.6499,2.6499,2.6499,2.6499,2.6499,2.6499,2.6499,2.6499,2.6499,2.6499,2.6499,2.6499,2.6499,2.6499,2.6499,2.6499,2.6499,2.6499,2.6499,2.6499,2.6499,2.6499,2.6499,2.6499,2.6499,2.6499,2.6499,2.6499,2.6499,2.6499,2.6499,2.6499,2.6499,2.6499,2.6499,2.6499,2.6499,2.6499,2.6499,2.6499,2.6499,2.6499,2.6499,2.6499,2.6499,2.6499,2.6499,2.6499,2.6851,2.7002,2.7022,2.7575,2.7996,2.8329,2.8731,2.912,2.949,2.9704,2.9792,2.9792,2.9792,2.9792,2.9792,3.164,3.1511,3.1511,3.1511,3.1511,3.1511,3.1511,3.1511,3.1511,3.1511,3.1511,3.1511,3.1511,3.1511,3.1511,3.1511,3.1511,3.1511,3.1511,3.1511,3.1511,3.1511,3.1511,3.1511,3.1511,3.1511,3.1511,3.1511,3.1511,3.1511,3.1511,3.1511,3.1511,3.1511,3.1511,3.1511,3.1452,3.0644,3.0299,3.0223,2.9286,2.8411,2.7687,2.7637,2.7145,2.6499,2.6499,2.6499,2.6499,2.6499,2.6499,2.6499,2.6499,2.6499,2.6499,2.6499,2.6499,2.6499,2.6499,2.6499,2.6499,2.6499,2.6499,2.6499,2.6499,2.6499,2.6499,2.6499,2.6499,2.6499,2.6499,2.6499,2.6499,2.6499,2.6499,2.6499,2.6499,2.6499,2.6499,2.6499,2.6499,2.6499,2.6499,2.6499,2.6499,2.6499,2.6499,2.6499,2.6499,2.6499,2.6499,2.6499,2.6499,2.6499,2.6499,2.6499,2.6499,2.6499,2.6499,2.6499,2.6499,2.6499,2.6499,2.6524,2.7022,2.7225,2.7285,2.8349,2.8794,2.8862,2.949,2.9754,2.9792,2.9792,2.9792,2.9792,3.1524,3.1511,3.1511,3.1511,3.1511,3.1511,3.1511,3.1511,3.1511,3.1511,3.1511,3.1511,3.1511,3.1511,3.1511,3.1511,3.1511,3.1511,3.1511,3.1511,3.1511,3.1511,3.1511,3.1511,3.1511,3.1511,3.1511,3.1511,3.1511,3.1511,3.1511,3.1511,3.1511,3.1511,3.1511,3.1511,3.1452,3.0644,3.0299,3.0178,2.8636,2.7871,2.762,2.7023,2.6675,2.6499,2.6499,2.6499,2.6499,2.6499,2.6499,2.6499,2.6499,2.6499,2.6499,2.6499,2.6499,2.6499,2.6499,2.6499,2.6499,2.6499,2.6499,2.6499,2.6499,2.6499,2.6499,2.6499,2.6499,2.6499,2.6499,2.6499,2.6499,2.6499,2.6499,2.6499,2.6499,2.6499,2.6499,2.6499,2.6499,2.6499,2.6499,2.6499,2.6499,2.6499,2.6499,2.6499,2.6499,2.6499,2.6499,2.6499,2.6499,2.6499,2.6499,2.6499,2.6499,2.6499,2.6499,2.6499,2.6499,2.6499,2.6499,2.6499,2.6637,2.6498,2.6233,2.7262,2.7742,2.7931,2.8779,2.9383,2.9792,2.9792,2.9792,2.9792,3.1568,3.1511,3.1511,3.1511,3.1511,3.1511,3.1511,3.1511,3.1511,3.1511,3.1511,3.1511,3.1511,3.1511,3.1511,3.1511,3.1511,3.1511,3.1511,3.1511,3.1511,3.1511,3.1511,3.1511,3.1511,3.1511,3.1511,3.1511,3.1511,3.1511,3.1496,3.1117,3.1161,3.1467,3.0688,3.0777,3.1394,2.9797,2.9333,2.9582,2.8247,2.7484,2.7145,2.7061,2.6816,2.6499,2.6499,2.6499,2.6499,2.6499,2.6499,2.6499,2.6499,2.6499,2.6499,2.6499,2.6499,2.6499,2.6499,2.6499,2.6499,2.6499,2.6499,2.6499,2.6499,2.6499,2.6499,2.6499,2.6499,2.6499,2.6499,2.6499,2.6499,2.6499,2.6499,2.6499,2.6499,2.6499,2.6499,2.6499,2.6499,2.6499,2.6499,2.6499,2.6499,2.6499,2.6499,2.6499,2.6499,2.6499,2.6499,2.6499,2.6499,2.6499,2.6499,2.6499,2.6499,2.6499,2.6499,2.6499,2.6499,2.6499,2.6499,2.6499,2.6499,2.636,2.6144,2.6478,2.6784,2.7071,2.7356,2.8118,2.9028,2.9028,2.9346,2.9792,3.1654,3.1511,3.1511,3.1511,3.1511,3.1511,3.1511,3.1511,3.1511,3.1511,3.1511,3.1511,3.1511,3.1511,3.1511,3.1511,3.1511,3.1511,3.1511,3.1511,3.1511,3.1511,3.1511,3.1511,3.1511,3.1511,3.1511,3.1511,3.1511,3.1438,3.1292,3.0614,3.0659,3.1248,2.969,2.9858,3.1161,2.8732,2.8133,2.8732,2.7871,2.7112,2.6572,2.7263,2.7078,2.6499,2.6499,2.6499,2.6499,2.6499,2.6499,2.6499,2.6499,2.6499,2.6499,2.6499,2.6499,2.6499,2.6499,2.6499,2.6499,2.6499,2.6499,2.6499,2.6499,2.6499,2.6499,2.6499,2.6499,2.6499,2.6499,2.6499,2.6499,2.6499,2.6499,2.6499,2.6499,2.6499,2.6499,2.6499,2.6499,2.6499,2.6499,2.6499,2.6499,2.6499,2.6499,2.6499,2.6499,2.6499,2.6499,2.6499,2.6499,2.6499,2.6499,2.6499,2.6499,2.6499,2.6499,2.6499,2.6499,2.6499,2.6499,2.6499,2.6332,2.6181,2.6015,2.5619,2.5648,2.5941,2.5746,2.6525,2.7758,2.784,2.8458,2.93,3.1654,3.1511,3.1511,3.1511,3.1511,3.1511,3.1511,3.1511,3.1511,3.1511,3.1511,3.1511,3.1511,3.1511,3.1511,3.1511,3.1511,3.1511,3.1511,3.1511,3.1511,3.1511,3.1511,3.1511,3.1511,3.1511,3.1511,3.1511,3.1511,3.1161,3.0479,3.0359,3.0374,3.0434,2.9442,2.9551,3.0359,2.8492,2.7786,2.7835,2.7007,2.6607,2.6516,2.6641,2.6607,2.6499,2.6499,2.6499,2.6499,2.6499,2.6499,2.6499,2.6499,2.6499,2.6499,2.6499,2.6499,2.6499,2.6499,2.6499,2.6499,2.6499,2.6499,2.6499,2.6499,2.6499,2.6499,2.6499,2.6499,2.6499,2.6499,2.6499,2.6499,2.6499,2.6499,2.6499,2.6499,2.6499,2.6499,2.6499,2.6499,2.6499,2.6499,2.6499,2.6499,2.6499,2.6499,2.6499,2.6499,2.6499,2.6499,2.6499,2.6499,2.6499,2.6499,2.6499,2.6499,2.6499,2.6499,2.6499,2.6499,2.6499,2.6499,2.6452,2.5611,2.4761,2.3963,2.3897,2.3705,2.3569,2.4681,2.5546,2.6222,2.6601,2.6862,2.7017,3.223,3.1768,3.1511,3.1511,3.1511,3.1511,3.1511,3.1511,3.1511,3.1511,3.1511,3.1511,3.1511,3.1511,3.1511,3.1511,3.1511,3.1511,3.1511,3.1511,3.1511,3.1511,3.1511,3.1511,3.1511,3.1511,3.1511,3.1511,3.1511,3.1087,3.0299,2.9827,2.9597,2.9535,2.8247,2.8379,2.9489,2.7786,2.73,2.762,2.6816,2.6499,2.6499,2.6499,2.6499,2.6499,2.6499,2.6499,2.6499,2.6499,2.6499,2.6499,2.6499,2.6499,2.6499,2.6499,2.6499,2.6499,2.6499,2.6499,2.6499,2.6499,2.6499,2.6499,2.6499,2.6499,2.6499,2.6499,2.6499,2.6499,2.6499,2.6499,2.6499,2.6499,2.6499,2.6499,2.6499,2.6499,2.6499,2.6499,2.6499,2.6499,2.6499,2.6499,2.6499,2.6499,2.6499,2.6499,2.6499,2.6499,2.6499,2.6499,2.6499,2.6499,2.6499,2.6499,2.6499,2.6499,2.6499,2.6499,2.6499,2.6499,2.6499,2.6435,2.5441,2.4737,2.4228,2.3147,2.2729,2.2801,2.2903,2.3777,2.4967,2.5174,2.5796,2.6504,3.2736,3.2007,3.1511,3.1511,3.1511,3.1511,3.1511,3.1511,3.1511,3.1511,3.1511,3.1511,3.1511,3.1511,3.1511,3.1511,3.1511,3.1511,3.1511,3.1511,3.1511,3.1511,3.1511,3.1511,3.1511,3.1511,3.1511,3.1511,3.1511,3.0984,2.9981,2.9317,2.8891,2.8636,2.7162,2.7317,2.8604,2.7129,2.6867,2.7367,2.6748,2.6499,2.6499,2.6499,2.6499,2.6499,2.6499,2.6499,2.6499,2.6499,2.6499,2.6499,2.6499,2.6499,2.6499,2.6499,2.6499,2.6499,2.6499,2.6499,2.6499,2.6499,2.6499,2.6499,2.6499,2.6499,2.6499,2.6499,2.6499,2.6499,2.6499,2.6499,2.6499,2.6499,2.6499,2.6499,2.6499,2.6499,2.6499,2.6499,2.6499,2.6499,2.6499,2.6499,2.6499,2.6499,2.6499,2.6499,2.6499,2.6499,2.6499,2.6499,2.6499,2.6499,2.6499,2.6499,2.6499,2.6499,2.6499,2.6383,2.6146,2.6146,2.6013,2.5756,2.4731,2.4301,2.4174,2.2403,2.1895,2.2147,2.1451,2.22,2.367,2.3764,2.4618,2.5704,3.2736,3.2007,3.1511,3.1511,3.1511,3.1511,3.1511,3.1511,3.1511,3.1511,3.1511,3.1511,3.1511,3.1511,3.1511,3.1511,3.1511,3.1511,3.1511,3.1511,3.1511,3.1511,3.1511,3.1511,3.1511,3.1511,3.1511,3.1511,3.1511,3.0673,2.9097,2.9034,2.8572,2.7769,2.6888,2.6973,2.7736,2.6871,2.6521,2.6572,2.6521,2.6499,2.6499,2.6499,2.6499,2.6499,2.6499,2.6499,2.6499,2.6499,2.6499,2.6499,2.6499,2.6499,2.6499,2.6499,2.6499,2.6499,2.6499,2.6499,2.6499,2.6499,2.6499,2.6499,2.6499,2.6499,2.6499,2.6499,2.6499,2.6499,2.6499,2.6499,2.6499,2.6499,2.6499,2.6499,2.6499,2.6499,2.6499,2.6499,2.6499,2.6499,2.6499,2.6499,2.6499,2.6499,2.6499,2.6499,2.6499,2.6499,2.6499,2.6499,2.6499,2.6499,2.6499,2.6499,2.6499,2.6499,2.6499,2.6008,2.5123,2.5123,2.46,2.3661,2.2664,2.2215,2.214,2.1116,2.0712,2.0781,2.1074,2.1564,2.2118,2.249,2.2935,2.3343,3.3352,3.2652,3.2035,3.1582,3.1511,3.1511,3.1511,3.1511,3.1511,3.1511,3.1511,3.1511,3.1511,3.1511,3.1511,3.1511,3.1511,3.1511,3.1511,3.1511,3.1511,3.1511,3.1511,3.1511,3.1511,3.1511,3.1511,3.1511,3.1511,3.0644,2.9002,2.9002,2.8266,2.6939,2.6641,2.6675,2.6939,2.6624,2.6499,2.6499,2.6499,2.6499,2.6499,2.6499,2.6499,2.6499,2.6499,2.6499,2.6499,2.6499,2.6499,2.6499,2.6499,2.6499,2.6499,2.6499,2.6499,2.6499,2.6499,2.6499,2.6499,2.6499,2.6499,2.6499,2.6499,2.6499,2.6499,2.6499,2.6499,2.6499,2.6499,2.6499,2.6499,2.6499,2.6499,2.6499,2.6499,2.6499,2.6499,2.6499,2.6499,2.6499,2.6499,2.6499,2.6499,2.6499,2.6499,2.6499,2.6499,2.6499,2.6499,2.6499,2.6499,2.6499,2.6499,2.6499,2.6181,2.5564,2.5564,2.504,2.4072,2.4072,2.3854,2.3441,2.244,2.1989,2.1943,2.0992,2.0605,2.0625,2.0772,2.1094,2.1513,2.1963,2.2383,2.2762,3.4012,3.3378,3.268,3.1965,3.1853,3.1768,3.1554,3.1511,3.1511,3.1511,3.1511,3.1511,3.1511,3.1511,3.1511,3.1511,3.1511,3.1511,3.1511,3.1511,3.1511,3.1511,3.1511,3.1511,3.1511,3.1511,3.1511,3.1511,3.1511,3.0777,2.9395,2.9129,2.8247,2.6871,2.6607,2.6499,2.6499,2.6499,2.6499,2.6499,2.6499,2.6499,2.6499,2.6499,2.6499,2.6499,2.6499,2.6499,2.6499,2.6499,2.6499,2.6499,2.6499,2.6499,2.6499,2.6499,2.6499,2.6499,2.6499,2.6499,2.6499,2.6499,2.6499,2.6499,2.6499,2.6499,2.6499,2.6499,2.6499,2.6499,2.6499,2.6499,2.6499,2.6499,2.6499,2.6499,2.6499,2.6499,2.6499,2.6499,2.6499,2.6499,2.6499,2.6499,2.6499,2.6499,2.6499,2.6499,2.6499,2.6499,2.6499,2.6499,2.6499,2.6499,2.6499,2.6499,2.6008,2.4987,2.4987,2.4319,2.3036,2.3036,2.2869,2.2563,2.1849,2.1555,2.1517,2.0857,2.0605,2.0605,2.0605,2.0859,2.1229,2.1552,2.2031,2.2527,3.46,3.4062,3.3404,3.272,3.26,3.2355,3.1625,3.1496,3.1511,3.1511,3.1511,3.1511,3.1511,3.1511,3.1511,3.1511,3.1511,3.1511,3.1511,3.1511,3.1511,3.1511,3.1511,3.1511,3.1511,3.1511,3.1511,3.1511,3.1511,3.1087,3.0284,2.9411,2.8524,2.7653,2.6867,2.6499,2.6499,2.6499,2.6499,2.6499,2.6499,2.6499,2.6499,2.6499,2.6499,2.6499,2.6499,2.6499,2.6499,2.6499,2.6499,2.6499,2.6499,2.6499,2.6499,2.6499,2.6499,2.6499,2.6499,2.6499,2.6499,2.6499,2.6499,2.6499,2.6499,2.6499,2.6499,2.6499,2.6499,2.6499,2.6499,2.6499,2.6499,2.6499,2.6499,2.6499,2.6499,2.6499,2.6499,2.6499,2.6499,2.6499,2.6499,2.6499,2.6499,2.6499,2.6499,2.6499,2.6499,2.6499,2.6499,2.6499,2.6499,2.6499,2.6499,2.6499,2.6008,2.4987,2.4998,2.3945,2.1989,2.1989,2.1479,2.0605,2.0605,2.0605,2.0605,2.0605,2.0605,2.0605,2.0605,2.084,2.119,2.119,2.1757,2.2479,3.47,3.4443,3.4099,3.3417,3.2922,3.2533,3.2299,3.1824,3.1511,3.1511,3.1511,3.1511,3.1511,3.1511,3.1511,3.1511,3.1511,3.1511,3.1511,3.1511,3.1511,3.1511,3.1511,3.1511,3.1511,3.1511,3.1511,3.1511,3.1511,3.1087,3.0284,2.9411,2.8524,2.7653,2.6867,2.6499,2.6499,2.6499,2.6499,2.6499,2.6499,2.6499,2.6499,2.6499,2.6499,2.6499,2.6499,2.6499,2.6499,2.6499,2.6499,2.6499,2.6499,2.6499,2.6499,2.6499,2.6499,2.6499,2.6499,2.6499,2.6499,2.6499,2.6499,2.6499,2.6499,2.6499,2.6499,2.6499,2.6499,2.6499,2.6499,2.6499,2.6499,2.6499,2.6499,2.6499,2.6499,2.6499,2.6499,2.6499,2.6499,2.6499,2.6499,2.6499,2.6499,2.6499,2.6499,2.6499,2.6499,2.6499,2.6193,2.5458,2.6129,2.6164,2.5441,2.6146,2.6008,2.4998,2.4282,2.3257,2.1981,2.1317,2.0857,2.0605,2.0605,2.0605,2.0605,2.0605,2.0605,2.0605,2.0605,2.0664,2.0801,2.1103,2.1356,2.1679,3.5075,3.5005,3.4788,3.4112,3.3659,3.33,3.3039,3.2394,3.1938,3.1938,3.1668,3.1511,3.1511,3.1511,3.1511,3.1511,3.1511,3.1511,3.1511,3.1511,3.1511,3.1511,3.1511,3.1511,3.1511,3.1511,3.1511,3.1511,3.1511,3.1248,3.0762,2.9551,2.8716,2.8165,2.7007,2.6499,2.6499,2.6499,2.6499,2.6499,2.6499,2.6499,2.6499,2.6499,2.6499,2.6499,2.6499,2.6499,2.6499,2.6499,2.6499,2.6499,2.6499,2.6499,2.6499,2.6499,2.6499,2.6499,2.6499,2.6499,2.6499,2.6499,2.6499,2.6499,2.6499,2.6499,2.6499,2.6499,2.6499,2.6499,2.6499,2.6499,2.6499,2.6499,2.6499,2.6499,2.6499,2.6499,2.6499,2.6499,2.6499,2.6499,2.6499,2.6499,2.6499,2.6499,2.6499,2.6499,2.6499,2.6112,2.5629,2.5016,2.5187,2.5028,2.4409,2.501,2.501,2.4391,2.38,2.2776,2.1432,2.0867,2.0605,2.0605,2.0605,2.0605,2.0605,2.0605,2.0605,2.0605,2.0605,2.0605,2.0635,2.0869,2.1064,2.1268,3.56,3.56,3.5407,3.4812,3.4636,3.4394,3.3773,3.3119,3.2668,3.2615,3.2007,3.1568,3.1511,3.1511,3.1511,3.1511,3.1511,3.1511,3.1511,3.1511,3.1511,3.1511,3.1511,3.1511,3.1511,3.1511,3.1511,3.1511,3.1511,3.1452,3.1365,2.975,2.8955,2.8812,2.7213,2.6499,2.6499,2.6499,2.6499,2.6499,2.6499,2.6499,2.6499,2.6499,2.6499,2.6499,2.6499,2.6499,2.6499,2.6499,2.6499,2.6499,2.6499,2.6499,2.6499,2.6499,2.6499,2.6499,2.6499,2.6499,2.6499,2.6499,2.6499,2.6499,2.6499,2.6499,2.6499,2.6499,2.6499,2.6499,2.6499,2.6499,2.6499,2.6499,2.6499,2.6499,2.6499,2.6499,2.6499,2.6499,2.6499,2.6499,2.6499,2.6499,2.6499,2.6499,2.6499,2.6499,2.6499,2.5558,2.4951,2.4862,2.3981,2.3459,2.3368,2.3459,2.3496,2.3496,2.3404,2.2432,2.0712,2.0644,2.0605,2.0605,2.0605,2.0605,2.0605,2.0605,2.0605,2.0605,2.0605,2.0605,2.0605,2.0605,2.082,2.1162,3.56,3.56,3.5549,3.5407,3.4941,3.4552,3.4406,3.3811,3.3182,3.2668,3.2465,3.2148,3.1553,3.1511,3.1511,3.1511,3.1511,3.1511,3.1511,3.1511,3.1511,3.1511,3.1511,3.1511,3.1511,3.1511,3.1511,3.1511,3.1511,3.119,3.0539,2.9489,2.8636,2.7937,2.6939,2.6499,2.6499,2.6499,2.6499,2.6499,2.6499,2.6499,2.6499,2.6499,2.6499,2.6499,2.6499,2.6499,2.6499,2.6499,2.6499,2.6499,2.6499,2.6499,2.6499,2.6499,2.6499,2.6499,2.6499,2.6499,2.6499,2.6499,2.6499,2.6499,2.6499,2.6499,2.6499,2.6499,2.6499,2.6499,2.6499,2.6499,2.6499,2.6499,2.6499,2.6499,2.6499,2.6499,2.6499,2.6499,2.6499,2.6499,2.6499,2.6499,2.6499,2.6499,2.6499,2.6499,2.6499,2.5558,2.4636,2.3854,2.3606,2.3128,2.2328,2.311,2.3496,2.3478,2.2702,2.2103,2.1659,2.0934,2.0605,2.0605,2.0605,2.0605,2.0605,2.0605,2.0605,2.0605,2.0605,2.0605,2.0605,2.0605,2.0664,2.0781,3.56,3.56,3.56,3.56,3.5316,3.5075,3.5075,3.4508,3.395,3.3595,3.3,3.2451,3.2064,3.171,3.1511,3.1511,3.1511,3.1511,3.1511,3.1511,3.1511,3.1511,3.1511,3.1511,3.1511,3.1511,3.1511,3.1511,3.1511,3.1087,3.0284,2.9411,2.8524,2.7653,2.6867,2.6499,2.6499,2.6499,2.6499,2.6499,2.6499,2.6499,2.6499,2.6499,2.6499,2.6499,2.6499,2.6499,2.6499,2.6499,2.6499,2.6499,2.6499,2.6499,2.6499,2.6499,2.6499,2.6499,2.6499,2.6499,2.6499,2.6499,2.6499,2.6499,2.6499,2.6499,2.6499,2.6499,2.6499,2.6499,2.6499,2.6499,2.6499,2.6499,2.6499,2.6499,2.6499,2.6499,2.6499,2.6499,2.6499,2.6499,2.6499,2.6499,2.6499,2.6499,2.6499,2.6499,2.6499,2.5081,2.4036,2.3514,2.2601,2.1859,2.1336,2.1859,2.2113,2.2113,2.2038,2.1773,2.1317,2.0818,2.0605,2.0605,2.0605,2.0605,2.0605,2.0605,2.0605,2.0605,2.0605,2.0605,2.0605,2.0605,2.0605,2.0635,3.56,3.56,3.56,3.56,3.56,3.56,3.56,3.5121,3.4688,3.4455,3.3556,3.2815,3.2451,3.1867,3.1511,3.1511,3.1511,3.1511,3.1511,3.1511,3.1511,3.1511,3.1511,3.1511,3.1511,3.1511,3.1511,3.1511,3.1511,3.1087,3.0284,2.9411,2.8524,2.7653,2.6867,2.6499,2.6499,2.6499,2.6499,2.6499,2.6499,2.6499,2.6499,2.6499,2.6499,2.6499,2.6499,2.6499,2.6499,2.6499,2.6499,2.6499,2.6499,2.6499,2.6499,2.6499,2.6499,2.6499,2.6499,2.6499,2.6499,2.6499,2.6499,2.6499,2.6499,2.6499,2.6499,2.6499,2.6499,2.6499,2.6499,2.6499,2.6499,2.6499,2.6499,2.6499,2.6499,2.6499,2.6499,2.6499,2.6499,2.6499,2.6499,2.6499,2.6499,2.6499,2.6499,2.6499,2.6499,2.4588,2.3496,2.3496,2.1623,2.0605,2.0605,2.0605,2.0605,2.0605,2.1394,2.1355,2.0605,2.0605,2.0605,2.0605,2.0605,2.0605,2.0605,2.0605,2.0605,2.0605,2.0605,2.0605,2.0605,2.0605,2.0605,2.0605,3.56,3.56,3.56,3.56,3.56,3.56,3.56,3.5515,3.504,3.3887,3.4087,3.3659,3.1838,3.1553,3.1511,3.1511,3.1511,3.1511,3.1511,3.1511,3.1511,3.1511,3.1511,3.1511,3.1511,3.1511,3.1511,3.1511,3.1511,3.1087,3.0284,2.9411,2.8524,2.7653,2.6867,2.6499,2.6499,2.6499,2.6499,2.6499,2.6499,2.6499,2.6499,2.6499,2.6499,2.6499,2.6499,2.6499,2.6499,2.6499,2.6499,2.6499,2.6499,2.6499,2.6499,2.6499,2.6499,2.6499,2.6499,2.6499,2.6499,2.6499,2.6499,2.6499,2.6499,2.6499,2.6499,2.6499,2.6499,2.6499,2.6499,2.6499,2.6499,2.6499,2.6499,2.6499,2.6499,2.6499,2.6499,2.6499,2.6499,2.6499,2.6499,2.6499,2.6499,2.6499,2.6499,2.6499,2.6499,2.4588,2.3496,2.3496,2.1623,2.0605,2.0605,2.0605,2.0605,2.0605,2.0731,2.0712,2.0605,2.0605,2.0605,2.0605,2.0605,2.0605,2.0605,2.0605,2.0605,2.0605,2.0605,2.0605,2.0605,2.0605,2.0605,2.0605,3.56,3.56,3.56,3.56,3.56,3.56,3.56,3.5276,3.4835,3.4235,3.3761,3.3287,3.2732,3.2339,3.2104,3.2104,3.174,3.1511,3.1511,3.1511,3.1511,3.1511,3.1511,3.1511,3.1511,3.1511,3.1511,3.1511,3.1511,3.1087,3.0299,2.9919,2.9002,2.7687,2.7334,2.6922,2.6499,2.6499,2.6499,2.6499,2.6499,2.6499,2.6499,2.6499,2.6499,2.6499,2.6499,2.6499,2.6499,2.6499,2.6499,2.6499,2.6499,2.6499,2.6499,2.6499,2.6499,2.6499,2.6499,2.6499,2.6499,2.6499,2.6499,2.6499,2.6499,2.6499,2.6499,2.6499,2.6499,2.6499,2.6499,2.6499,2.6499,2.6499,2.6499,2.6499,2.6499,2.6499,2.6499,2.6499,2.6499,2.6499,2.6499,2.599,2.5652,2.5652,2.5652,2.5652,2.5652,2.4289,2.3496,2.3496,2.1623,2.0605,2.0605,2.0605,2.0605,2.0605,2.0605,2.0605,2.0605,2.0605,2.0605,2.0605,2.0605,2.0605,2.0605,2.0605,2.0605,2.0605,2.0605,2.0605,2.0605,2.0605,2.0605,2.0605]}]]